[[{"header":{"parameterUnit":"m.s-1","parameterCategory":1,"la1":30.6,"la2":29.2853,"lo1":-89.7004,"lo2":-87.6739,"dy":0.0162,"dx":0.0183,"nx":112,"ny":82,"refTime":"2023-08-03T00:00:00:Z","depth":0,"parameterNumber":2,"parameterNumberName":"U-component_of_WINDS"},"data":[0.0,0.0,0.0,0.0,0.0,0.0,0.0,0.0,0.0,0.0,0.0,0.0,0.0,0.0,0.0,0.0,0.0,0.0,0.0,0.0,0.0,0.0,0.0,0.0,0.0,0.0,0.0,0.0,0.0,0.0,0.0,0.0,0.0,0.0,0.0,0.0,0.0,0.0,0.0,0.0,0.0,0.0,0.0,0.0,0.0,0.0,0.0,0.0,0.0,0.0,0.0,0.0,0.0,0.0,0.0,0.0,0.0,0.0,0.0,0.0,0.0,0.0,0.0,0.0,0.0,0.0,0.0,0.0,0.0,0.0,0.0,0.0,0.0,0.0,0.0,0.0,0.0,0.0,0.0,0.0,0.0,0.0,0.0,0.0,0.0,0.0,0.0,0.0,0.0,0.0,-2.1177,-2.1642,-2.1741,-2.1741,-2.1741,-2.1741,-2.1741,-2.1741,0.0,0.0,0.0,0.0,0.0,0.0,0.0,0.0,0.0,0.0,0.0,0.0,0.0,0.0,0.0,0.0,0.0,0.0,0.0,0.0,0.0,0.0,0.0,0.0,0.0,0.0,0.0,0.0,0.0,0.0,0.0,0.0,0.0,0.0,0.0,0.0,0.0,0.0,0.0,0.0,0.0,0.0,0.0,0.0,0.0,0.0,0.0,0.0,0.0,0.0,0.0,0.0,0.0,0.0,0.0,0.0,0.0,0.0,0.0,0.0,0.0,0.0,0.0,0.0,0.0,0.0,0.0,0.0,0.0,0.0,0.0,0.0,0.0,0.0,0.0,0.0,0.0,0.0,0.0,0.0,0.0,0.0,0.0,0.0,0.0,0.0,0.0,0.0,0.0,0.0,0.0,0.0,0.0,0.0,0.0,0.0,0.0,0.0,0.0,0.0,0.0,0.0,0.0,0.0,-2.1177,-2.1642,-2.1741,-2.1741,-2.1741,-2.1741,-2.1741,-2.1741,0.0,0.0,0.0,0.0,0.0,0.0,0.0,0.0,0.0,0.0,0.0,0.0,0.0,0.0,0.0,0.0,0.0,0.0,0.0,0.0,0.0,0.0,0.0,0.0,0.0,0.0,0.0,0.0,0.0,0.0,0.0,0.0,0.0,0.0,0.0,0.0,0.0,0.0,0.0,0.0,0.0,0.0,0.0,0.0,0.0,0.0,0.0,0.0,0.0,0.0,0.0,0.0,0.0,0.0,0.0,0.0,0.0,0.0,0.0,0.0,0.0,0.0,0.0,0.0,0.0,0.0,0.0,0.0,0.0,0.0,0.0,0.0,0.0,0.0,0.0,0.0,0.0,0.0,0.0,0.0,0.0,0.0,0.0,0.0,0.0,0.0,0.0,0.0,0.0,0.0,0.0,0.0,0.0,0.0,0.0,0.0,0.0,0.0,0.0,0.0,0.0,0.0,0.0,-2.1096,-2.1454,-2.1651,-2.1741,-2.1741,-2.1741,-2.1741,-2.1741,-2.1741,-2.1741,0.0,0.0,0.0,0.0,0.0,0.0,0.0,0.0,0.0,0.0,0.0,0.0,0.0,0.0,0.0,0.0,0.0,0.0,0.0,0.0,0.0,0.0,0.0,0.0,0.0,0.0,0.0,0.0,0.0,0.0,0.0,0.0,0.0,0.0,0.0,0.0,0.0,0.0,0.0,0.0,0.0,0.0,0.0,0.0,0.0,0.0,0.0,0.0,0.0,0.0,0.0,0.0,0.0,0.0,0.0,0.0,0.0,0.0,0.0,0.0,0.0,0.0,0.0,0.0,0.0,0.0,0.0,0.0,0.0,0.0,0.0,0.0,0.0,0.0,0.0,0.0,0.0,0.0,0.0,0.0,0.0,0.0,0.0,0.0,0.0,0.0,0.0,0.0,0.0,0.0,0.0,0.0,0.0,0.0,0.0,0.0,0.0,0.0,0.0,0.0,0.0,0.0,-2.1365,-2.1741,-2.1741,-2.1741,-2.1741,-2.1741,-2.1741,-2.1741,-2.1741,-2.1741,0.0,0.0,0.0,0.0,0.0,0.0,0.0,0.0,0.0,0.0,0.0,0.0,0.0,0.0,0.0,0.0,0.0,0.0,0.0,0.0,0.0,0.0,0.0,0.0,0.0,0.0,0.0,0.0,0.0,0.0,0.0,0.0,0.0,0.0,0.0,0.0,0.0,0.0,0.0,0.0,0.0,0.0,0.0,0.0,0.0,0.0,0.0,0.0,0.0,0.0,0.0,0.0,0.0,0.0,0.0,0.0,0.0,0.0,0.0,0.0,0.0,0.0,0.0,0.0,0.0,0.0,0.0,0.0,0.0,0.0,0.0,0.0,0.0,0.0,0.0,0.0,0.0,0.0,0.0,0.0,0.0,0.0,0.0,0.0,0.0,0.0,0.0,0.0,0.0,0.0,0.0,0.0,0.0,0.0,0.0,0.0,0.0,0.0,0.0,0.0,0.0,0.0,-2.1105,-2.1741,-2.1741,-2.1741,-2.1741,-2.1741,-2.1741,-2.1741,-2.1741,-2.1741,0.0,0.0,0.0,0.0,0.0,0.0,0.0,0.0,0.0,0.0,0.0,0.0,0.0,0.0,0.0,0.0,0.0,0.0,0.0,0.0,0.0,0.0,0.0,0.0,0.0,0.0,0.0,0.0,0.0,0.0,0.0,0.0,0.0,0.0,0.0,0.0,0.0,0.0,0.0,0.0,0.0,0.0,0.0,0.0,0.0,0.0,0.0,0.0,0.0,0.0,0.0,0.0,0.0,0.0,0.0,0.0,0.0,0.0,0.0,0.0,0.0,0.0,0.0,0.0,0.0,0.0,0.0,0.0,0.0,0.0,0.0,0.0,0.0,0.0,0.0,0.0,0.0,0.0,0.0,0.0,0.0,0.0,0.0,0.0,0.0,0.0,0.0,0.0,0.0,0.0,0.0,0.0,0.0,0.0,0.0,0.0,0.0,0.0,0.0,0.0,0.0,0.0,-2.1105,-2.1741,-2.1741,-2.1741,-2.1741,-2.1741,-2.1741,-2.1741,-2.1741,0.0,0.0,0.0,0.0,0.0,0.0,0.0,0.0,0.0,0.0,0.0,0.0,0.0,0.0,0.0,0.0,0.0,0.0,0.0,0.0,0.0,0.0,0.0,0.0,0.0,0.0,0.0,0.0,0.0,0.0,0.0,0.0,0.0,0.0,0.0,0.0,0.0,0.0,0.0,0.0,0.0,0.0,0.0,0.0,0.0,0.0,0.0,0.0,0.0,0.0,0.0,0.0,0.0,0.0,0.0,0.0,0.0,0.0,0.0,0.0,0.0,0.0,0.0,0.0,0.0,0.0,0.0,0.0,0.0,0.0,0.0,0.0,0.0,0.0,0.0,0.0,0.0,0.0,0.0,0.0,0.0,0.0,0.0,0.0,0.0,0.0,0.0,0.0,0.0,0.0,0.0,0.0,0.0,0.0,0.0,0.0,0.0,0.0,0.0,0.0,0.0,0.0,-2.0464,-2.1195,-2.1741,-2.1741,-2.1741,-2.1741,-2.1741,-2.1741,-2.1741,-2.1741,0.0,0.0,0.0,0.0,0.0,0.0,0.0,0.0,0.0,0.0,0.0,0.0,0.0,0.0,0.0,0.0,0.0,0.0,0.0,0.0,0.0,0.0,0.0,0.0,0.0,0.0,0.0,0.0,0.0,0.0,0.0,0.0,0.0,0.0,0.0,0.0,0.0,0.0,0.0,0.0,0.0,0.0,0.0,0.0,0.0,0.0,0.0,0.0,0.0,0.0,0.0,0.0,0.0,0.0,0.0,0.0,0.0,0.0,0.0,0.0,0.0,0.0,0.0,0.0,0.0,0.0,0.0,0.0,0.0,0.0,0.0,0.0,0.0,0.0,0.0,0.0,0.0,0.0,0.0,0.0,0.0,0.0,0.0,0.0,0.0,0.0,0.0,0.0,0.0,0.0,0.0,0.0,0.0,0.0,0.0,0.0,0.0,0.0,0.0,0.0,0.0,0.0,-2.0907,-2.1374,-2.1741,-2.1741,-2.1741,-2.1741,-2.1741,-2.1741,-2.1741,0.0,0.0,0.0,0.0,0.0,0.0,0.0,0.0,0.0,0.0,0.0,0.0,0.0,0.0,0.0,0.0,0.0,0.0,0.0,0.0,0.0,0.0,0.0,0.0,0.0,0.0,0.0,0.0,0.0,0.0,0.0,0.0,0.0,0.0,0.0,0.0,0.0,0.0,0.0,0.0,0.0,0.0,0.0,0.0,0.0,0.0,0.0,0.0,0.0,0.0,0.0,0.0,0.0,0.0,0.0,0.0,0.0,0.0,0.0,0.0,0.0,0.0,0.0,0.0,0.0,0.0,0.0,0.0,0.0,0.0,0.0,0.0,0.0,0.0,0.0,0.0,0.0,0.0,0.0,0.0,0.0,0.0,0.0,0.0,0.0,0.0,0.0,0.0,0.0,0.0,0.0,0.0,0.0,0.0,0.0,0.0,0.0,0.0,0.0,0.0,0.0,0.0,0.0,-2.0555,-2.1195,-2.1741,-2.1741,-2.1741,-2.1741,-2.1741,-2.1741,-2.1741,-2.1741,0.0,0.0,0.0,0.0,0.0,0.0,0.0,0.0,0.0,0.0,0.0,0.0,0.0,0.0,0.0,0.0,0.0,0.0,0.0,0.0,0.0,0.0,0.0,0.0,0.0,0.0,0.0,0.0,0.0,0.0,0.0,0.0,0.0,0.0,0.0,0.0,0.0,0.0,0.0,0.0,0.0,0.0,0.0,0.0,0.0,0.0,0.0,0.0,0.0,0.0,0.0,0.0,0.0,0.0,0.0,0.0,0.0,0.0,0.0,0.0,0.0,0.0,0.0,0.0,0.0,0.0,0.0,0.0,0.0,0.0,0.0,0.0,0.0,0.0,0.0,0.0,0.0,0.0,0.0,0.0,0.0,0.0,0.0,0.0,0.0,0.0,0.0,0.0,0.0,0.0,0.0,0.0,0.0,0.0,0.0,0.0,0.0,0.0,0.0,0.0,0.0,0.0,-2.0835,-2.1374,-2.1741,-2.1741,-2.1741,-2.1741,-2.1741,-2.1741,-2.1741,-2.1741,0.0,0.0,0.0,0.0,0.0,0.0,0.0,0.0,0.0,0.0,0.0,0.0,0.0,0.0,0.0,0.0,0.0,0.0,0.0,0.0,0.0,0.0,0.0,0.0,0.0,0.0,0.0,0.0,0.0,0.0,0.0,0.0,0.0,0.0,0.0,0.0,0.0,0.0,0.0,0.0,0.0,0.0,0.0,0.0,0.0,0.0,0.0,0.0,0.0,0.0,0.0,0.0,0.0,0.0,0.0,0.0,0.0,0.0,0.0,0.0,0.0,0.0,0.0,0.0,0.0,0.0,0.0,0.0,0.0,0.0,0.0,0.0,0.0,0.0,0.0,0.0,0.0,0.0,0.0,0.0,0.0,0.0,0.0,0.0,0.0,0.0,0.0,0.0,0.0,0.0,0.0,0.0,0.0,0.0,0.0,0.0,0.0,0.0,0.0,0.0,0.0,0.0,-2.1616,-2.167,-2.1741,-2.1741,-2.1741,-2.1741,-2.1741,-2.1741,-2.1741,-2.1741,0.0,0.0,0.0,0.0,0.0,0.0,0.0,0.0,0.0,0.0,0.0,0.0,0.0,0.0,0.0,0.0,0.0,0.0,0.0,0.0,0.0,0.0,0.0,0.0,0.0,0.0,0.0,0.0,0.0,0.0,0.0,0.0,0.0,0.0,0.0,0.0,0.0,0.0,0.0,0.0,0.0,0.0,0.0,0.0,0.0,0.0,0.0,0.0,0.0,0.0,0.0,0.0,0.0,0.0,0.0,0.0,0.0,0.0,0.0,0.0,-2.0569,0.0,0.0,0.0,0.0,0.0,0.0,0.0,0.0,0.0,0.0,0.0,0.0,0.0,0.0,0.0,0.0,0.0,0.0,0.0,0.0,0.0,0.0,0.0,0.0,0.0,0.0,0.0,0.0,0.0,0.0,0.0,0.0,0.0,0.0,0.0,0.0,0.0,0.0,0.0,0.0,0.0,-2.166,-2.1663,-2.1741,-2.1741,-2.1741,-2.1741,-2.1741,-2.1741,-2.1741,-2.1741,-2.1741,0.0,0.0,0.0,0.0,0.0,0.0,0.0,0.0,0.0,0.0,0.0,0.0,0.0,0.0,0.0,0.0,0.0,0.0,0.0,0.0,0.0,0.0,0.0,0.0,0.0,0.0,0.0,0.0,0.0,0.0,0.0,0.0,0.0,0.0,0.0,0.0,0.0,0.0,0.0,0.0,0.0,0.0,0.0,0.0,0.0,0.0,0.0,0.0,0.0,0.0,0.0,0.0,0.0,0.0,0.0,0.0,0.0,0.0,0.0,0.0,-2.0364,0.0,0.0,0.0,0.0,0.0,0.0,0.0,0.0,0.0,0.0,0.0,0.0,0.0,0.0,0.0,0.0,0.0,0.0,0.0,0.0,0.0,0.0,0.0,0.0,0.0,0.0,0.0,0.0,0.0,0.0,0.0,0.0,0.0,0.0,0.0,0.0,0.0,0.0,0.0,0.0,-2.2258,-2.2089,-2.2016,-2.2016,-2.1851,-2.1741,-2.1741,-2.1741,-2.1741,-2.1741,-2.1741,0.0,0.0,0.0,0.0,0.0,0.0,0.0,0.0,0.0,0.0,0.0,0.0,0.0,0.0,0.0,0.0,0.0,0.0,0.0,0.0,0.0,0.0,0.0,0.0,0.0,0.0,0.0,0.0,0.0,0.0,0.0,0.0,0.0,0.0,0.0,0.0,0.0,0.0,0.0,0.0,0.0,0.0,0.0,0.0,0.0,0.0,0.0,0.0,0.0,0.0,0.0,0.0,0.0,-2.0465,-2.0392,-2.0446,-2.0446,-1.9926,-1.9089,-1.9089,-1.9031,-1.8819,-1.7694,0.0,0.0,0.0,0.0,0.0,0.0,0.0,0.0,0.0,0.0,0.0,0.0,0.0,0.0,0.0,0.0,0.0,0.0,0.0,0.0,0.0,0.0,0.0,0.0,-2.3129,-2.3329,0.0,0.0,0.0,0.0,0.0,0.0,0.0,0.0,0.0,0.0,0.0,0.0,-2.2957,-2.2694,-2.2437,-2.2437,-2.208,-2.1841,-2.1841,-2.1777,-2.1741,-2.1741,-2.1741,-2.1741,0.0,0.0,0.0,0.0,0.0,0.0,0.0,0.0,0.0,0.0,0.0,0.0,0.0,0.0,0.0,0.0,0.0,0.0,0.0,0.0,0.0,0.0,0.0,0.0,0.0,0.0,0.0,0.0,0.0,0.0,0.0,0.0,-1.9636,-2.1009,0.0,0.0,0.0,0.0,0.0,0.0,0.0,0.0,0.0,0.0,0.0,0.0,0.0,-2.038,-2.0885,-1.9952,-1.9576,-1.9864,-1.8821,-1.8543,-1.8803,-1.8803,-1.8693,-1.8583,-1.8583,0.0,-1.902,-1.7694,0.0,0.0,0.0,0.0,0.0,0.0,0.0,0.0,0.0,0.0,0.0,0.0,0.0,0.0,0.0,0.0,0.0,0.0,0.0,0.0,0.0,0.0,-2.4044,-2.3954,-2.4053,-2.4044,0.0,-2.3238,-2.2526,-2.2526,-2.2526,0.0,0.0,0.0,0.0,0.0,0.0,0.0,-2.3368,-2.3116,-2.2774,-2.2774,-2.2492,-2.2245,-2.2245,-2.1933,-2.1741,-2.1741,-2.1741,-2.1741,-2.1741,-2.1741,0.0,0.0,0.0,0.0,0.0,0.0,0.0,0.0,0.0,0.0,0.0,0.0,0.0,0.0,0.0,0.0,0.0,0.0,0.0,0.0,0.0,0.0,0.0,0.0,0.0,0.0,0.0,0.0,0.0,-1.8237,-1.8791,-1.9318,-1.9925,-2.079,0.0,0.0,0.0,0.0,0.0,0.0,0.0,0.0,0.0,-1.965,-1.9117,-1.8999,-1.9309,-1.8956,-1.8902,-1.9041,-1.8509,-1.8364,-1.849,-1.849,-1.849,-1.849,-1.849,-1.8666,-1.8711,-1.8023,-1.7849,-1.8101,0.0,0.0,0.0,0.0,-1.7265,-1.7378,-1.7265,-1.7265,0.0,-1.7265,0.0,0.0,0.0,0.0,0.0,0.0,0.0,0.0,0.0,0.0,-2.4152,-2.4152,-2.4152,-2.4152,-2.4152,-2.3845,-2.3438,0.0,-2.3438,-2.3538,-2.3746,0.0,0.0,0.0,0.0,-2.3886,-2.3886,-2.3529,-2.329,-2.329,-2.2923,-2.2676,-2.2676,-2.23,-2.2071,-2.2071,-2.186,-2.1741,-2.1741,-2.1741,-2.1741,0.0,0.0,0.0,0.0,0.0,0.0,0.0,0.0,0.0,0.0,0.0,0.0,0.0,0.0,0.0,0.0,0.0,0.0,0.0,0.0,0.0,0.0,0.0,0.0,0.0,0.0,0.0,0.0,-1.7456,-1.7939,-1.8103,-1.9009,-2.0004,0.0,0.0,0.0,0.0,0.0,0.0,-2.0269,-1.9621,-1.9143,-1.8941,-1.842,-1.8163,-1.8163,-1.8384,-1.8524,-1.8604,-1.8604,-1.8637,-1.8711,-1.8711,-1.8711,-1.8711,-1.8711,-1.8671,-1.8577,-1.8283,-1.8023,-1.7816,-1.7816,-1.7816,-1.7802,-1.7729,-1.7702,-1.7689,-1.7609,-1.7582,-1.7582,-1.7582,0.0,-1.7786,-1.8506,0.0,0.0,0.0,0.0,-2.3029,-2.2929,-2.3538,-2.4152,-2.4152,-2.4152,-2.4152,-2.4152,-2.4152,-2.4152,0.0,-2.4152,-2.4152,-2.4152,0.0,0.0,0.0,0.0,-2.4152,-2.4152,-2.3886,-2.3703,-2.3703,-2.3345,-2.3012,-2.3012,-2.2722,-2.2483,-2.2483,-2.2107,-2.1887,-2.1887,-2.1786,-2.1553,-2.1365,0.0,0.0,0.0,0.0,0.0,0.0,0.0,0.0,0.0,0.0,0.0,0.0,0.0,0.0,0.0,0.0,0.0,0.0,0.0,0.0,0.0,0.0,0.0,0.0,0.0,0.0,0.0,0.0,0.0,-1.894,-1.9184,0.0,0.0,0.0,0.0,-2.0181,-2.0585,-2.0166,-1.8632,-1.9211,-1.917,-1.8124,-1.8317,-1.847,-1.847,-1.8484,-1.8631,-1.8905,-1.8905,-1.9052,-1.9325,-1.9325,-1.9325,-1.9325,-1.9325,-1.9165,-1.8878,-1.8591,-1.8457,-1.8444,-1.8444,-1.8444,-1.841,-1.813,-1.8023,-1.7983,-1.7689,-1.7582,-1.7582,-1.7582,-1.7582,-1.7582,-1.7687,-1.8408,0.0,0.0,-2.17,-2.2728,-2.3845,-2.4152,-2.4152,-2.4152,-2.4152,-2.4152,-2.4152,-2.4152,-2.4152,0.0,-2.4152,-2.4152,-2.4152,0.0,-2.4152,-2.4152,-2.4152,-2.4152,-2.4152,-2.4134,-2.4115,-2.4115,-2.3758,-2.351,-2.351,-2.3058,-2.2829,-2.2829,-2.2529,-2.2291,-2.2291,-2.1933,-2.1275,-2.0439,-2.0348,0.0,0.0,0.0,0.0,0.0,0.0,0.0,0.0,0.0,0.0,0.0,0.0,0.0,0.0,0.0,0.0,0.0,0.0,0.0,0.0,0.0,0.0,0.0,0.0,0.0,0.0,0.0,0.0,-1.7884,-1.8101,0.0,-1.9746,-1.9228,-1.9027,-1.9443,-1.9012,-1.861,-1.8204,-1.8469,-1.8529,-1.833,-1.8617,-1.8771,-1.8771,-1.8958,-1.9105,-1.9205,-1.9205,-1.9265,-1.9366,-1.9366,-1.9366,-1.9366,-1.9366,-1.9305,-1.9199,-1.9098,-1.8831,-1.849,-1.849,-1.849,-1.8477,-1.837,-1.833,-1.8317,-1.8203,-1.817,-1.817,-1.817,-1.817,-1.813,-1.7936,-1.861,-1.9437,-1.9141,-2.0279,-2.189,-2.2536,-2.3228,-2.398,-2.4829,-2.4941,-2.4941,-2.4941,-2.4941,-2.4941,-2.4941,-2.451,-2.4152,-2.4152,-2.4152,-2.4152,-2.4152,-2.4152,-2.4152,-2.4152,-2.4152,-2.4152,-2.4152,-2.4024,-2.3932,-2.3932,-2.3565,-2.3336,-2.3336,-2.2951,-2.2731,-2.2731,-2.1683,-2.1011,-2.0726,-1.9829,-1.888,0.0,0.0,0.0,0.0,0.0,0.0,0.0,0.0,0.0,0.0,0.0,0.0,0.0,0.0,0.0,0.0,0.0,0.0,0.0,0.0,0.0,0.0,0.0,0.0,0.0,0.0,-1.7483,-1.7384,-1.7483,-1.7932,-1.8766,-1.8153,-1.8095,-1.8929,-1.8279,-1.7972,-1.8196,-1.8242,-1.8401,-1.8637,-1.8925,-1.9072,-1.9072,-1.9265,-1.9366,-1.9366,-1.9366,-1.9366,-1.9366,-1.9366,-1.9366,-1.9366,-1.9366,-1.9366,-1.9366,-1.9366,-1.9138,-1.8784,-1.8784,-1.8784,-1.8778,-1.8671,-1.8637,-1.8624,-1.8524,-1.849,-1.849,-1.849,-1.849,-1.8457,-1.8257,-1.8727,-1.9247,-1.8822,-1.9772,-2.1093,-2.2175,-2.2995,-2.3859,-2.5154,-2.5372,-2.5372,-2.5372,-2.5372,-2.5372,-2.5372,-2.4931,-2.4565,-2.4565,-2.4565,-2.4565,-2.4565,-2.4565,-2.4565,-2.4565,-2.4445,-2.4363,-2.4363,-2.4235,-2.4152,-2.4152,-2.3904,-2.3749,-2.3749,-2.2979,-2.2763,-2.3058,-2.1415,-2.0481,-2.0364,-1.8691,-1.7498,-1.6763,0.0,0.0,0.0,0.0,0.0,0.0,0.0,0.0,0.0,0.0,0.0,0.0,0.0,0.0,0.0,0.0,0.0,0.0,0.0,0.0,0.0,0.0,0.0,-1.7582,-1.7391,-1.7292,-1.7602,-1.7602,-1.7729,-1.8029,-1.8063,-1.8183,-1.847,-1.8504,-1.8504,-1.8504,-1.8791,-1.8951,-1.8951,-1.9239,-1.9392,-1.9392,-1.9392,-1.9392,-1.9392,-1.9392,-1.9392,-1.9392,-1.9392,-1.9392,-1.9392,-1.9386,-1.9379,-1.9379,-1.9372,-1.9366,-1.9366,-1.9366,-1.9366,-1.9332,-1.9045,-1.8938,-1.8898,-1.8617,-1.8517,-1.8517,-1.8517,-1.8517,-1.8517,-1.851,-1.8504,-1.8719,-1.9778,-2.0092,-2.0636,-2.2921,-2.3576,-2.3911,-2.5209,-2.5436,-2.5445,-2.5445,-2.5436,-2.5427,-2.5427,-2.5417,-2.5399,-2.5372,-2.5372,-2.5372,-2.5372,-2.5372,0.0,-2.5372,-2.5041,-2.4803,-2.4803,-2.4427,-2.417,-2.417,-2.426,-2.4152,-2.4152,-2.2769,-2.2362,-2.3363,-2.1012,-1.9581,-1.932,-1.7028,-1.5852,-1.5852,0.0,0.0,0.0,0.0,0.0,0.0,0.0,0.0,0.0,0.0,0.0,0.0,0.0,0.0,0.0,0.0,0.0,0.0,0.0,0.0,0.0,0.0,-1.7582,-1.7582,-1.7676,-1.7815,-1.7923,-1.811,-1.8277,-1.8364,-1.837,-1.8404,-1.8484,-1.8453,-1.8566,-1.8804,-1.9041,-1.9311,-1.9559,-1.984,-1.9993,-1.9993,-1.9993,-1.9993,-1.9993,-1.9993,-1.9993,-1.9993,-1.9993,-1.9993,-1.9987,-1.9773,-1.9679,-1.9659,-1.9452,-1.9366,-1.9366,-1.9366,-1.9366,-1.9359,-1.9279,-1.9245,-1.9232,-1.9158,-1.9125,-1.9125,-1.9125,-1.9125,-1.9085,-1.8871,-1.8804,-1.8804,-1.9129,-1.9234,-1.9836,-2.2514,-2.343,-2.4074,-2.6226,-2.6894,-2.7105,-2.7105,-2.6885,-2.6683,-2.6683,-2.6444,-2.6059,-2.5472,-2.5372,-2.5372,-2.5372,-2.5372,0.0,-2.5372,-2.5271,-2.5216,-2.5216,-2.4849,-2.4611,-2.4611,-2.4335,-2.3845,-2.3038,-2.2524,-2.2163,-2.1653,-1.9992,-1.8567,-1.7457,-1.6796,-1.6466,0.0,0.0,0.0,0.0,0.0,0.0,0.0,0.0,0.0,0.0,0.0,0.0,0.0,0.0,0.0,0.0,0.0,0.0,0.0,0.0,0.0,0.0,-1.7889,-1.7822,-1.7943,-1.8009,-1.8096,-1.8217,-1.8384,-1.8537,-1.8657,-1.8671,-1.8771,-1.9025,-1.8955,-1.91,-1.9466,-1.9549,-1.9734,-1.998,-2.0147,-2.0234,-2.0234,-2.0234,-2.0234,-2.0234,-2.0234,-2.0234,-2.0234,-2.0234,-2.0234,0.0,-2.0054,-1.998,-1.9967,-1.98,-1.9733,0.0,0.0,0.0,0.0,0.0,-1.9366,-1.9366,-1.9366,-1.9366,-1.9366,-1.9366,-1.9452,-1.9519,-1.9345,-1.9379,-1.9472,-1.9472,-1.9472,-1.9966,-2.2098,-2.3207,-2.4284,-2.6145,-2.7241,-2.7765,-2.7765,-2.7581,-2.7426,-2.7426,-2.7233,0.0,-2.6454,-2.6096,-2.5876,-2.5876,-2.5876,-2.5876,-2.5876,-2.5729,-2.5619,-2.5619,-2.5262,-2.5032,-2.5032,-2.4224,0.0,0.0,0.0,-2.0672,-1.9546,-1.903,0.0,0.0,0.0,-1.6707,-1.6707,0.0,0.0,0.0,-1.6199,-1.6483,0.0,0.0,0.0,0.0,0.0,0.0,0.0,0.0,0.0,0.0,0.0,0.0,0.0,0.0,0.0,0.0,-1.8116,-1.8203,-1.8497,-1.831,-1.8243,-1.851,-1.8571,-1.8691,-1.8951,-1.9005,-1.9239,-1.976,-1.9826,-1.996,-2.0221,0.0,0.0,0.0,0.0,-2.0334,-2.0334,-2.0334,-2.0334,-2.0334,-2.0334,-2.0334,-2.0334,-2.0334,-2.0334,-2.0334,-2.0294,-2.0287,-2.0281,-2.0247,-2.0234,-2.018,-1.9666,-1.9446,-1.9419,-1.9452,-1.9466,-1.9466,-1.9466,0.0,0.0,-1.9466,-1.9639,-1.9853,-1.9853,-2.0027,-2.0234,-2.0234,-2.0234,-2.047,-2.1886,-2.3085,-2.4416,-2.571,-2.7044,-2.7902,-2.7779,-2.7751,-2.7829,-2.7706,-2.7564,-2.7642,-2.7765,-2.7187,-2.671,-2.6664,-2.6655,-2.6637,-2.6591,-2.6153,-2.5809,-2.5809,0.0,0.0,-2.5104,-2.3783,-2.2927,-2.2823,-2.0396,-1.8653,-1.7687,-1.8245,-1.8207,-1.7304,-1.6934,-1.6807,-1.6807,-1.6807,-1.6807,-1.6807,-1.6734,-1.6707,0.0,0.0,0.0,0.0,0.0,0.0,0.0,0.0,0.0,0.0,0.0,0.0,0.0,0.0,0.0,-1.8758,-1.8557,-1.8504,-1.8798,-1.8791,-1.8771,-1.8831,-1.9052,-1.9219,-1.9279,-1.9492,-1.9673,-1.9793,-2.0013,-2.0174,-2.0227,-2.0461,-2.0588,-2.0588,-2.0815,-2.0942,-2.0942,-2.0942,-2.0942,-2.0942,0.0,0.0,-2.0942,-2.0942,-2.0942,-2.0929,-2.0695,-2.0588,-2.0575,-2.0334,-2.0234,-2.0221,-2.0107,-1.992,-1.9746,-1.998,-2.0067,-2.0067,-2.0067,-2.0067,-2.0067,-2.0067,-2.01,-2.0147,-2.0147,-2.0187,0.0,-2.0234,-2.0234,-2.0705,-2.3062,-2.4103,-2.5033,-2.731,-2.839,-2.8501,-2.7405,-2.7767,-2.7911,-2.6924,-2.6438,-2.6584,-2.7642,-2.7636,-2.7426,-2.7114,-2.7068,-2.6949,-2.6628,-2.5726,-2.5006,-2.5006,-2.3762,-2.2994,-2.2994,-2.2452,-2.1707,-2.074,-1.917,-1.8056,-1.7595,-1.7732,-1.7705,-1.7502,-1.7442,-1.7415,-1.7415,-1.7415,-1.7415,-1.7402,-1.6927,-1.6707,0.0,0.0,0.0,0.0,0.0,0.0,0.0,0.0,0.0,0.0,0.0,-1.9098,0.0,0.0,-1.8925,-1.8925,-1.8804,-1.8811,-1.9105,-1.9145,-1.9145,-1.9145,-1.9406,-1.9586,-1.9586,-1.9846,-2.008,-2.0227,-2.0374,-2.0521,-2.0661,-2.0808,-2.0895,-2.0895,-2.1036,-2.1109,-2.1109,-2.1109,-2.1109,-2.1109,-2.1109,-2.1109,-2.1109,-2.1109,-2.1109,-2.1102,-2.0955,-2.0895,-2.0882,-2.0735,-2.0581,-2.0468,-2.0615,-2.0401,-2.0034,-2.018,-2.0234,-2.0234,-2.0234,-2.0234,-2.0234,-2.0234,-2.0334,-2.0454,-2.0454,-2.0555,-2.0668,-2.0668,-2.0668,-2.0909,-2.2234,-2.3208,-2.4307,-2.6251,-2.6884,-2.7142,-2.7873,-2.7356,-2.6858,-2.7573,-2.6457,-2.5846,-2.7173,-2.6811,-2.6377,-2.6513,-2.6539,-2.6171,-2.5104,-2.449,-2.4078,-2.3896,-2.315,-2.2704,-2.2704,-2.1837,-2.0699,-1.9346,-1.8666,-1.8203,-1.8043,-1.8036,-1.8036,-1.8036,-1.7889,-1.7816,-1.7816,-1.7655,-1.7662,-1.7809,-1.7515,-1.7295,0.0,0.0,0.0,0.0,0.0,0.0,0.0,0.0,-1.9199,-1.8898,-1.9078,-1.9205,-1.8965,-1.8971,-1.9011,-1.9011,-1.9011,-1.9112,-1.9412,-1.9452,-1.9472,-1.9533,-1.9693,-1.982,-1.988,-2.0147,-2.0421,-2.0661,-2.0728,-2.0862,-2.1096,-2.1109,-2.1109,-2.1109,-2.1109,-2.1109,-2.1109,-2.1109,-2.1109,-2.1109,-2.1109,-2.1109,-2.1109,-2.1109,-2.1109,-2.1109,-2.1109,-2.1109,-2.1109,-2.1109,-2.0969,-2.0782,-2.1022,-2.0822,-2.0401,-2.0401,-2.0401,-2.0401,-2.0401,-2.0401,-2.0401,-2.0401,-2.0561,-2.0762,-2.0762,-2.0922,-2.1109,-2.1109,-2.1109,-2.1109,-2.1481,-2.2341,-2.3442,-2.4687,-2.5056,-2.5546,-2.7383,-2.6529,-2.5912,-2.7873,-2.652,-2.5423,-2.6771,-2.5668,-2.4833,-2.5386,-2.5519,-2.5036,-2.3634,-2.3184,-2.2928,-2.2769,-2.2456,-2.2305,-2.2305,-2.1158,-1.9878,-1.8702,-1.8577,-1.8551,-1.8497,-1.849,-1.849,-1.849,-1.8257,-1.813,-1.813,-1.7883,-1.7889,-1.813,-1.813,-1.7996,-1.7582,-1.7782,-1.7943,-1.7736,-1.831,-1.8791,0.0,0.0,-1.8891,-1.8597,-1.8771,-1.8965,-1.8931,-1.9138,-1.9319,-1.9319,-1.9319,-1.9419,-1.9713,-1.9753,-1.9846,-2.0107,-1.994,-1.99,-2.016,-2.0454,-2.0641,-2.0675,-2.0915,-2.1076,-2.1109,-2.1109,-2.1109,-2.1109,-2.1109,-2.1109,-2.1109,-2.1109,-2.1109,-2.1109,-2.1109,-2.1109,-2.1109,-2.1109,-2.1109,-2.1109,-2.1109,-2.1109,-2.1109,-2.1109,-2.1089,-2.1062,-2.1096,-2.1069,-2.1009,-2.1009,-2.1009,-2.1009,-2.1009,-2.1009,-2.1009,-2.1009,-2.1029,-2.1062,-2.1062,-2.1082,-2.1109,-2.1109,-2.1109,-2.1355,-2.2584,-2.2952,-2.3442,-2.4687,-2.5056,-2.4802,-2.3938,-2.5293,-2.6529,-2.5668,-2.5178,-2.5423,-2.6771,-2.4925,-2.3563,-2.4395,-2.4572,-2.4333,-2.3866,-2.2632,-2.1752,-2.1715,-2.0547,-1.9822,-1.9822,-1.9673,-1.93,-1.8891,-1.8878,-1.8764,-1.8504,-1.849,-1.849,-1.849,-1.8457,-1.8444,-1.8444,-1.8404,-1.8404,-1.8444,-1.8444,-1.8424,-1.7582,-1.7809,-1.8056,-1.8103,-1.8524,-1.8858,-1.8611,-1.8885,-1.9098,-1.8804,-1.8978,-1.9185,-1.9185,-1.9426,-1.9619,0.0,-1.976,-1.9913,-2.0034,-2.0054,-2.016,-2.0454,-2.0381,-2.0361,-2.0481,-2.0755,-2.0929,-2.0929,-2.1042,-2.1109,-2.1109,-2.1109,-2.1109,-2.1109,-2.1109,-2.1109,-2.1109,-2.1109,-2.1109,-2.1109,-2.1109,-2.1109,-2.1109,-2.1109,-2.1109,-2.1109,-2.1109,-2.1109,-2.1109,-2.1109,-2.1109,-2.1109,-2.1109,-2.1109,-2.1109,-2.1109,-2.1109,-2.1109,-2.1109,-2.1109,-2.1109,-2.1109,-2.1109,-2.1109,-2.1109,-2.1109,-2.1109,-2.1109,-2.1109,-2.1229,-2.1846,-2.1971,-2.2215,-2.3574,-2.3325,-2.2959,-2.3946,-2.3822,-2.3822,-2.481,-2.3822,-2.3208,-2.4556,-2.3201,-2.2048,-2.2405,-2.3118,-2.3245,-2.2083,-2.1455,-2.0884,-2.0531,-1.9883,-1.9366,-1.9366,-1.9366,-1.9319,-1.9192,-1.9185,-1.9125,-1.9005,-1.9005,-1.9005,-1.9005,-1.8831,-1.8744,-1.8744,-1.8577,-1.8577,-1.8744,-1.8744,-1.8838,-1.7689,-1.7876,-1.8116,-1.8417,-1.8704,-1.8925,-1.8925,-1.9152,-1.9305,-1.9092,-1.9279,-1.9486,-1.9486,-1.9726,-1.992,-1.992,-2.0094,-2.0261,-2.0341,-2.0354,-2.0468,-2.0762,-2.0795,-2.0795,-2.0795,-2.0989,-2.1109,-2.1109,-2.1109,-2.1109,-2.1109,-2.1109,-2.1109,-2.1109,-2.1109,-2.1109,-2.1109,-2.1109,-2.1109,-2.1109,-2.1109,-2.1109,-2.1109,-2.1109,-2.1109,-2.1109,-2.1109,-2.1109,-2.1109,-2.1109,-2.1109,-2.1109,-2.1109,-2.1109,-2.1109,-2.1109,-2.1109,-2.1109,-2.1109,-2.1109,-2.1109,-2.1109,-2.1109,-2.1109,-2.1109,-2.1109,-2.1109,-2.1109,-2.1109,-2.1109,-2.1109,-2.1109,-2.1355,-2.2341,-2.1846,-2.1601,-2.3581,-2.2716,-2.2215,-2.407,-2.2959,-2.1971,-2.2952,-2.1971,-2.1109,-2.1109,-2.1971,-2.2138,-2.0947,-2.0728,-2.0481,-1.9973,-1.9659,-1.9486,-1.9486,-1.9412,-1.9366,-1.9366,-1.9366,-1.9366,-1.9366,-1.9366,-1.9366,-1.9366,-1.9158,-1.9045,-1.9045,-1.8838,-1.8838,-1.9045,-1.9045,-1.9158,-1.7949,-1.8036,-1.8116,-1.8417,-1.8704,-1.8925,-1.8925,-1.9152,-1.9366,-1.9359,-1.9586,-1.9786,-1.9786,-2.0027,-2.0221,-2.0221,-2.0227,-2.0334,-2.0621,-2.0661,-2.0768,-2.1062,-2.1096,-2.1096,0.0,-2.1109,-2.1109,-2.1109,-2.1109,-2.1109,-2.1109,-2.1109,-2.1109,-2.1109,-2.1109,-2.1109,-2.1109,-2.1109,-2.1109,-2.1109,-2.1109,-2.1109,-2.1109,-2.1109,-2.1109,-2.1109,-2.1109,-2.1109,-2.1109,-2.1109,-2.1109,-2.1109,-2.1109,-2.1109,-2.1109,-2.1109,-2.1109,-2.1109,-2.1109,-2.1109,-2.1109,-2.1109,-2.1109,-2.1109,-2.1109,-2.1109,-2.1109,-2.1109,-2.1109,-2.1109,-2.1109,-2.1109,-2.1109,-2.1109,-2.1109,-2.1109,-2.1235,-2.2215,-2.3076,-2.3201,-2.3076,-2.3076,-2.3076,-2.1971,-2.1109,-2.1109,-2.1109,-2.1102,-2.1096,-2.0848,-2.0561,-2.0254,-1.996,-1.9786,-1.9786,-1.9533,-1.9366,-1.9366,-1.9366,-1.9366,-1.9366,-1.9366,-1.9366,-1.9366,-1.9359,-1.9352,-1.9352,-1.9345,-1.9345,-1.9352,-1.9352,-1.9359,-1.7963,-1.819,-1.841,-1.8704,-1.8998,-1.9219,-1.9219,-1.9299,-1.9366,-1.9366,-1.9446,-1.9512,-1.9512,-1.9907,-2.0234,-2.0234,-2.0561,-2.0848,-2.0949,-2.0962,-2.1002,-2.1096,-2.1109,0.0,0.0,0.0,0.0,-2.1109,-2.1109,-2.1109,-2.1109,-2.1109,-2.1109,-2.1109,-2.1109,-2.1109,-2.1109,-2.1109,-2.1109,-2.1109,-2.1109,-2.1109,-2.1109,-2.1109,-2.1109,-2.1109,-2.1109,-2.1109,-2.1109,-2.1109,-2.1109,-2.1109,-2.1109,-2.1109,-2.1109,-2.1109,-2.1109,-2.1109,-2.1109,-2.1109,-2.1109,-2.1109,-2.1109,-2.1109,-2.1109,-2.1109,-2.1109,-2.1109,-2.1109,-2.1109,-2.1109,-2.1109,-2.1109,-2.1109,-2.1109,-2.1109,-2.1109,-2.1475,-2.1727,-2.1727,-2.1727,-2.1727,-2.1727,-2.1355,-2.1109,-2.1109,-2.1109,-2.1109,-2.1109,-2.0855,-2.0641,-2.0541,-2.0261,-2.0007,-1.982,-1.9713,-1.9573,-1.9379,-1.9366,-1.9366,-1.9366,-1.9366,-1.9366,-1.9366,-1.9366,-1.9366,-1.9366,-1.9366,-1.9366,-1.9366,-1.9366,-1.9366,-1.809,-1.8343,-1.8584,-1.8985,-1.9225,-1.9366,-1.9366,-1.9366,-1.9366,-1.9366,-1.9452,-1.9519,-1.9519,-1.9913,-2.0267,-2.0374,-2.0708,-2.0989,-2.1096,-2.1109,-2.1109,-2.1109,-2.1109,-2.1109,0.0,0.0,0.0,-2.1109,-2.1109,-2.1109,-2.1109,-2.1109,-2.1109,-2.1109,-2.1109,-2.1109,-2.1109,-2.1109,-2.1109,-2.1109,-2.1109,-2.1109,-2.1109,-2.1109,-2.1109,-2.1109,-2.1109,-2.1109,-2.1109,-2.1109,-2.1109,-2.1109,-2.1109,-2.1109,-2.1109,-2.1109,-2.1109,-2.1109,-2.1109,-2.1109,-2.1109,-2.1109,-2.1109,-2.1109,-2.1109,-2.1109,-2.1109,-2.1109,-2.1109,-2.1109,-2.1109,-2.1109,-2.1109,-2.1109,-2.1109,-2.1109,-2.1109,-2.1109,-2.1109,-2.1109,-2.1109,-2.1109,-2.1109,-2.1109,-2.1109,-2.1109,-2.1109,-2.1109,-2.1109,-2.0949,-2.0828,-2.0828,-2.0568,-2.0314,-2.0127,-1.992,-1.972,-1.9533,-1.9426,-1.9366,-1.9366,-1.9366,-1.9366,-1.9366,-1.9366,-1.9366,-1.9366,-1.9366,-1.9366,-1.9366,-1.9366,-1.9366,-1.8323,-1.849,-1.8631,-1.9219,-1.9366,-1.9366,-1.9366,-1.9366,-1.9366,-1.9366,-1.9586,-1.978,0.0,0.0,-2.0301,-2.0581,-2.0661,-2.0775,-2.1049,-2.1096,-2.1109,0.0,0.0,0.0,0.0,0.0,0.0,-2.1109,0.0,-2.1109,-2.1109,-2.1109,-2.1109,-2.1109,-2.1109,-2.1109,-2.1109,-2.1109,-2.1109,-2.1109,-2.1109,-2.1109,-2.1109,-2.1109,-2.1109,-2.1109,-2.1109,-2.1109,-2.1109,-2.1109,-2.1109,-2.1109,-2.1109,-2.1109,-2.1109,-2.1109,-2.1109,-2.1109,-2.1109,-2.1109,-2.1109,-2.1109,-2.1109,-2.1109,-2.1109,-2.1109,-2.1109,-2.1109,-2.1109,-2.1109,-2.1109,-2.1109,-2.1109,-2.1109,-2.1109,-2.1109,-2.1109,-2.1109,-2.1109,-2.1109,-2.1109,-2.1109,-2.1109,-2.1109,-2.1109,-2.1109,-2.1109,-2.1109,-2.1109,-2.1109,-2.1109,-2.1109,-2.0862,-2.0688,-2.0675,-2.0167,-1.9833,-1.9806,-1.9539,-1.9379,-1.9366,-1.9366,-1.9366,-1.9366,-1.9366,-1.9366,-1.9366,-1.9366,-1.9366,-1.9366,-1.9366,-1.9366,-1.8323,-1.849,-1.8631,-1.9219,-1.9366,-1.9366,-1.9366,-1.9366,-1.9366,-1.9366,-1.9426,-1.9479,0.0,0.0,0.0,-2.0013,-2.0394,0.0,-2.0775,-2.0969,0.0,-2.1109,0.0,-2.1109,-2.1109,-2.1109,0.0,0.0,-2.1109,-2.1109,-2.1109,-2.1109,-2.1109,-2.1109,-2.1109,-2.1109,-2.1109,-2.1109,-2.1109,-2.1109,-2.1109,-2.1109,-2.1109,-2.1109,-2.1109,-2.1109,-2.1109,-2.1109,-2.1109,-2.1109,-2.1109,-2.1109,-2.1109,-2.1109,-2.1109,-2.1109,-2.1109,-2.1109,-2.1109,-2.1109,-2.1109,-2.1109,-2.1109,-2.1109,-2.1109,-2.1109,-2.1109,-2.1109,-2.1109,-2.1109,-2.1109,-2.1109,-2.1109,-2.1109,-2.1109,-2.1109,-2.1109,-2.1109,-2.1109,-2.1109,-2.1109,-2.1109,-2.1109,-2.1109,-2.1109,-2.1109,-2.1109,-2.1109,-2.1109,-2.1109,-2.1109,-2.1109,-2.1042,-2.0909,-2.0695,-2.0541,-2.0267,-1.9826,-1.9733,-1.9593,-1.9372,-1.9366,-1.9366,-1.9366,-1.9366,-1.9366,-1.9366,-1.9366,-1.9366,-1.9366,-1.9366,-1.9366,-1.8323,-1.849,-1.8631,-1.9219,-1.9366,-1.9366,-1.9366,-1.9366,-1.9366,-1.9366,-1.9366,-1.9366,-1.9366,-1.9499,0.0,0.0,0.0,0.0,-2.0641,-2.0815,-2.0962,0.0,-2.1109,0.0,-2.1109,-2.1109,-2.1109,0.0,-2.1109,-2.1109,-2.1109,-2.1109,-2.1109,-2.1109,-2.1109,-2.1109,-2.1109,-2.1109,-2.1109,-2.1109,-2.1109,-2.1109,-2.1109,-2.1109,-2.1109,-2.1109,0.0,-2.1109,-2.1109,-2.1109,-2.1109,-2.1109,-2.1109,-2.1109,-2.1109,-2.1109,-2.1109,-2.1109,-2.1109,-2.1109,-2.1109,-2.1109,-2.1109,-2.1109,-2.1109,-2.1109,-2.1109,-2.1109,-2.1109,-2.1109,-2.1109,-2.1109,-2.1109,-2.1109,-2.1109,-2.1109,-2.1109,-2.1109,-2.1109,-2.1109,-2.1109,-2.1109,-2.1109,-2.1109,-2.1109,-2.1109,-2.1109,-2.1109,-2.1109,-2.1109,-2.1109,-2.1109,-2.1109,-2.1042,-2.0882,-2.0748,-2.0535,-2.0207,-1.994,-1.9726,-1.9566,-1.9432,-1.9366,-1.9366,-1.9366,-1.9366,-1.9366,-1.9366,-1.9366,-1.9366,-1.9366,-1.9366,-1.8323,-1.849,-1.8631,-1.9219,-1.9366,-1.9366,-1.9366,-1.9366,-1.9366,-1.9366,-1.9366,-1.9366,-1.9366,-1.9366,-1.9452,-1.97,0.0,-1.9993,-2.0541,-2.0648,-2.0782,-2.1076,-2.1109,-2.1109,-2.1109,-2.1109,-2.1109,-2.1109,-2.1109,-2.1109,-2.1109,-2.1109,-2.1109,-2.1109,-2.1109,-2.1109,-2.1109,-2.1109,-2.1109,-2.1109,-2.1109,-2.1109,-2.1109,-2.1109,-2.1109,-2.1109,-2.1109,0.0,-2.1109,-2.1109,-2.1109,-2.1109,-2.1109,-2.1109,-2.1109,-2.1109,-2.1109,-2.1109,-2.1109,-2.1109,-2.1109,-2.1109,-2.1109,-2.1109,-2.1109,-2.1109,-2.1109,-2.1109,-2.1109,-2.1109,-2.1109,-2.1109,-2.1109,-2.1109,-2.1109,-2.1109,-2.1109,-2.1109,-2.1109,-2.1109,-2.1109,-2.1109,-2.1109,-2.1109,-2.1109,-2.1109,-2.1109,-2.1109,-2.1109,-2.1109,-2.1109,-2.1109,-2.1109,-2.1109,-2.1109,-2.0882,-2.0715,-2.0681,-2.0201,-1.988,-1.9806,-1.9559,-1.9406,-1.9366,-1.9366,-1.9366,-1.9366,-1.9366,-1.9366,-1.9366,-1.9366,-1.9366,-1.8323,-1.849,-1.8631,-1.9219,-1.9366,-1.9366,-1.9366,-1.9366,0.0,0.0,-1.9366,-1.9366,-1.9366,-1.9366,-1.9386,-1.9432,-1.9646,-1.992,-2.0261,-2.0521,-2.0782,0.0,-2.1109,-2.1109,-2.1109,-2.1109,0.0,0.0,0.0,-2.1109,-2.1109,-2.1109,-2.1109,-2.1109,-2.1109,-2.1109,-2.1109,-2.1109,-2.1109,-2.1109,-2.1109,-2.1109,-2.1109,-2.1109,-2.1109,-2.1109,-2.1109,0.0,-2.1109,-2.1109,-2.1109,-2.1109,-2.1109,-2.1109,-2.1109,-2.1109,-2.1109,-2.1109,-2.1109,-2.1109,-2.1109,-2.1109,-2.1109,-2.1109,-2.1109,-2.1109,-2.1109,-2.1109,-2.1109,-2.1109,-2.1109,-2.1109,-2.1109,-2.1109,-2.1109,-2.1109,-2.1109,-2.1109,-2.1109,-2.1109,-2.1109,-2.1109,-2.1109,-2.1109,-2.1109,-2.1109,-2.1109,-2.1109,-2.1109,-2.1109,-2.1109,-2.1109,-2.1109,-2.1109,-2.1109,-2.1062,-2.0935,-2.0688,-2.0581,-2.0307,-1.982,-1.9753,-1.9613,-1.9372,-1.9366,-1.9366,-1.9366,-1.9366,-1.9366,-1.9366,-1.9366,-1.9366,-1.8136,-1.837,-1.8597,-1.9032,-1.9252,-1.9366,-1.9366,0.0,0.0,0.0,-1.9366,-1.9366,-1.9366,-1.9366,0.0,-1.9366,-1.9486,-1.9679,-1.9967,-2.0261,0.0,-2.0848,-2.1022,-2.1109,0.0,-2.1109,0.0,0.0,0.0,-2.1109,-2.1109,-2.1109,-2.1109,-2.1109,-2.1109,-2.1109,-2.1109,-2.1109,-2.1109,-2.1109,-2.1109,-2.1109,-2.1109,-2.1109,-2.1109,-2.1109,-2.1109,0.0,-2.1109,-2.1109,-2.1109,-2.1109,-2.1109,-2.1109,-2.1109,-2.1109,-2.1109,-2.1109,-2.1109,-2.1109,-2.1109,-2.1109,-2.1109,-2.1109,-2.1109,-2.1109,-2.1109,-2.1109,-2.1109,-2.1109,-2.1109,-2.1109,-2.1109,-2.1109,-2.1109,-2.1109,-2.1109,-2.1109,-2.1109,-2.1109,-2.1109,-2.1109,-2.1109,-2.1109,-2.1109,-2.1109,-2.1109,-2.1109,-2.1109,-2.1109,-2.1109,-2.1109,-2.1109,-2.1109,-2.1109,-2.1109,-2.1049,-2.0909,-2.0762,-2.0548,-2.0267,-2.0107,-1.9887,-1.9599,-1.9593,-1.9519,-1.9366,-1.9366,-1.9366,-1.9366,-1.9366,-1.9366,-1.7963,-1.8217,-1.8464,-1.8758,-1.9005,-1.9178,-1.9178,-1.9178,0.0,-1.9178,-1.9225,-1.9272,-1.9272,-1.9325,-1.9366,0.0,-1.9366,-1.9466,-1.976,-1.9993,-2.0247,0.0,-2.0782,0.0,-2.0922,-2.0922,0.0,0.0,0.0,0.0,-2.1109,-2.1109,-2.1109,-2.1109,-2.1109,-2.1109,-2.1109,-2.1109,-2.1109,-2.1109,-2.1109,-2.1109,-2.1109,-2.1109,-2.1109,-2.1109,-2.1109,0.0,0.0,-2.1109,-2.1109,-2.1109,-2.1109,-2.1109,-2.1109,-2.1109,-2.1109,-2.1109,-2.1109,-2.1109,-2.1109,-2.1109,-2.1109,-2.1109,-2.1109,-2.1109,-2.1109,-2.1109,-2.1109,-2.1109,-2.1109,-2.1109,-2.1109,-2.1109,-2.1109,-2.1109,-2.1109,-2.1109,-2.1109,-2.1109,-2.1109,-2.1109,-2.1109,-2.1109,-2.1109,-2.1109,-2.1109,-2.1109,-2.1109,-2.1109,-2.1109,-2.1109,-2.1109,-2.1109,-2.1109,-2.1109,-2.1109,-2.1109,-2.0895,-2.0742,-2.0681,-2.0454,-2.0187,-1.99,-1.9893,-1.9746,-1.9459,-1.9459,-1.9432,-1.9366,-1.9366,-1.9399,-1.7963,-1.8063,-1.8156,-1.8457,-1.8551,-1.8571,-1.8571,0.0,-1.8571,-1.8571,-1.8778,-1.8965,-1.8965,-1.9185,-1.9366,-1.9366,0.0,-1.9466,-1.976,-1.982,-1.9947,-2.0234,0.0,0.0,-2.0314,0.0,0.0,0.0,0.0,0.0,-2.1096,-2.1109,-2.1109,-2.1109,-2.1109,-2.1109,-2.1109,-2.1109,-2.1109,-2.1109,-2.1109,-2.1109,-2.1109,-2.1109,-2.1109,-2.1109,-2.1109,0.0,0.0,-2.1109,-2.1109,-2.1109,-2.1109,-2.1109,-2.1109,-2.1109,-2.1109,-2.1109,-2.1109,-2.1109,-2.1109,-2.1109,-2.1109,-2.1109,-2.1109,-2.1109,-2.1109,-2.1109,-2.1109,-2.1109,-2.1109,-2.1109,-2.1109,-2.1109,-2.1109,-2.1109,-2.1109,-2.1109,-2.1109,-2.1109,-2.1109,-2.1109,-2.1109,-2.1109,-2.1109,-2.1109,-2.1109,-2.1109,-2.1109,-2.1109,-2.1109,-2.1109,-2.1109,-2.1109,-2.1109,-2.1109,-2.1109,-2.1109,-2.1082,-2.0949,-2.0688,-2.0648,-2.0494,-2.0201,-2.0194,-2.0047,-1.976,-1.976,-1.9626,-1.9366,-1.9366,-1.9506,-1.7736,-1.7795,-1.7853,-1.8087,-1.824,-1.8262,-1.849,0.0,-1.849,-1.849,-1.8577,-1.8718,-1.8891,-1.9018,-1.9158,0.0,0.0,0.0,-1.9519,-1.9686,-1.9846,-1.996,-2.0127,0.0,0.0,0.0,0.0,0.0,0.0,0.0,-2.0842,-2.1015,-2.1109,-2.1109,-2.1109,-2.1109,-2.1109,-2.1109,-2.1109,-2.1109,-2.1109,-2.1109,-2.1109,-2.1109,-2.1109,-2.1109,-2.1109,0.0,0.0,-2.1109,-2.1109,-2.1109,-2.1109,-2.1109,-2.1109,-2.1109,-2.1109,-2.1109,-2.1109,-2.1109,-2.1109,-2.1109,-2.1109,-2.1109,-2.1109,-2.1109,-2.1109,-2.1109,-2.1109,-2.1109,-2.1109,-2.1109,-2.1109,-2.1109,-2.1109,-2.1109,-2.1109,-2.1109,-2.1109,-2.1109,-2.1109,-2.1109,-2.1109,-2.1109,-2.1109,-2.1109,-2.1109,-2.1109,-2.1109,-2.1109,-2.1109,-2.1109,-2.1109,-2.1109,-2.1109,-2.1109,-2.1109,-2.1109,-2.1109,-2.1056,-2.0942,-2.0935,-2.0795,-2.0508,-2.0501,-2.0354,-2.006,-2.006,-2.0,-1.9887,-1.9887,-1.9953,-1.7483,-1.7529,-1.758,-1.7701,-1.7846,-1.7998,0.0,0.0,-1.8223,-1.8223,-1.8297,-1.8424,-1.8631,-1.8804,-1.8991,0.0,0.0,-1.9366,-1.9366,-1.9546,-1.9673,0.0,0.0,0.0,0.0,0.0,0.0,0.0,0.0,0.0,-2.0668,-2.0869,-2.1022,-2.1109,-2.1109,-2.1109,-2.1109,-2.1109,-2.1109,-2.1109,-2.1109,-2.1109,-2.1109,-2.1109,-2.1109,-2.1109,-2.1109,0.0,0.0,-2.1109,-2.1109,-2.1109,-2.1109,-2.1109,-2.1109,-2.1109,-2.1109,-2.1109,-2.1109,-2.1109,-2.1109,-2.1109,-2.1109,-2.1109,-2.1109,-2.1109,-2.1109,-2.1109,-2.1109,-2.1109,-2.1109,-2.1109,-2.1109,-2.1109,-2.1109,-2.1109,-2.1109,-2.1109,-2.1109,-2.1109,-2.1109,-2.1109,-2.1109,-2.1109,-2.1109,-2.1109,-2.1109,-2.1109,-2.1109,-2.1109,-2.1109,-2.1109,-2.1109,-2.1109,-2.1109,-2.1109,-2.1109,-2.1109,-2.1109,-2.1109,-2.1109,-2.1109,-2.1009,-2.0808,-2.0802,-2.0661,-2.0361,-2.0361,-2.0321,-2.0234,-2.0234,-2.0281,-1.7279,-1.7384,-1.7589,-1.7285,-1.7384,-1.749,0.0,0.0,-1.7595,-1.7595,-1.7836,-1.8056,-1.8056,-1.8531,-1.8925,-1.8925,0.0,0.0,-1.9366,-1.9372,0.0,0.0,0.0,0.0,0.0,0.0,0.0,0.0,0.0,0.0,-2.0641,-2.0681,-2.0815,-2.1096,-2.1109,-2.1109,-2.1109,-2.1109,-2.1109,-2.1109,-2.1109,-2.1109,-2.1109,-2.1109,-2.1109,0.0,0.0,0.0,0.0,-2.1109,-2.1109,-2.1109,-2.1109,-2.1109,-2.1109,-2.1109,-2.1109,-2.1109,-2.1109,-2.1109,-2.1109,-2.1109,-2.1109,-2.1109,-2.1109,-2.1109,-2.1109,-2.1109,-2.1109,-2.1109,-2.1109,-2.1109,-2.1109,-2.1109,-2.1109,-2.1109,-2.1109,-2.1109,-2.1109,-2.1109,-2.1109,-2.1109,-2.1109,-2.1109,-2.1109,-2.1109,-2.1109,-2.1109,-2.1109,-2.1109,-2.1109,-2.1109,-2.1109,-2.1109,-2.1109,-2.1109,-2.1109,-2.1109,-2.1109,-2.1109,-2.1109,-2.1109,-2.1109,-2.1109,-2.1109,-2.0962,-2.0675,-2.0675,-2.0521,-2.0234,-2.0234,-2.0394,-1.7483,-1.7265,-1.7047,-1.7378,-1.7378,-1.7378,-1.7483,0.0,-1.7582,-1.7582,-1.7662,-1.7796,-1.8009,-1.8364,-1.8691,-1.8891,-1.9172,0.0,0.0,0.0,0.0,0.0,0.0,0.0,0.0,0.0,0.0,0.0,0.0,0.0,-2.0067,-2.0267,-2.0601,-2.1096,-2.1109,-2.1109,-2.1109,-2.1109,-2.1109,-2.1109,-2.1109,-2.1109,-2.1109,-2.1109,-2.1109,0.0,0.0,0.0,0.0,-2.1109,-2.1109,-2.1109,-2.1109,-2.1601,-2.2459,-2.2459,-2.2459,-2.2459,-2.2459,-2.1846,-2.1109,-2.1109,-2.1109,-2.1109,-2.1109,-2.1109,-2.1109,-2.1109,-2.1109,-2.1109,-2.1109,-2.1109,-2.1109,-2.1109,-2.1109,-2.1109,-2.1109,-2.1109,-2.1109,-2.1109,-2.1109,-2.1109,-2.1109,-2.1109,-2.1109,-2.1109,-2.1109,-2.1109,-2.1109,-2.1109,-2.1109,-2.1109,-2.1109,-2.1109,-2.1109,-2.1109,-2.1109,-2.1109,-2.1109,-2.1109,-2.1109,-2.1109,-2.1109,-2.1109,-2.1109,-2.1062,-2.0969,-2.0969,-2.0922,-2.0835,-2.0835,-2.0882,0.0,-1.7166,-1.6948,-1.7378,-1.7378,0.0,0.0,-1.7483,-1.7582,-1.7582,-1.7582,-1.7642,-1.7836,-1.821,-1.8551,-1.8731,-1.9105,0.0,0.0,0.0,0.0,0.0,0.0,0.0,0.0,0.0,0.0,0.0,0.0,0.0,-1.9793,-1.9973,-2.0287,-2.0762,-2.0889,-2.0995,-2.1109,-2.1109,-2.1109,-2.1109,-2.1109,-2.1109,-2.1109,-2.0995,-2.0949,0.0,0.0,0.0,0.0,-2.1797,-2.2097,-2.2591,-2.2591,-2.3084,-2.3822,-2.3822,-2.3822,-2.3698,-2.3325,-2.2584,-2.1727,-2.1229,-2.1109,-2.1109,-2.1109,-2.1109,-2.1109,-2.1109,-2.1109,-2.1109,-2.1109,-2.1109,-2.1109,-2.1109,-2.1109,-2.1109,-2.1109,-2.1109,-2.1109,-2.1109,-2.1109,-2.1109,-2.1109,-2.1109,-2.1109,-2.1109,-2.1109,-2.1109,-2.1109,-2.1109,-2.1109,-2.1109,-2.1109,-2.1109,-2.1109,-2.1109,-2.1109,-2.1109,-2.1109,-2.1109,-2.1109,-2.1109,-2.1109,-2.1109,-2.1109,-2.1109,-2.1109,-2.1109,-2.1109,-2.1109,-2.1109,-2.1109,0.0,-1.7179,-1.7179,-1.7179,-1.7378,-1.7477,-1.7279,-1.7378,0.0,-1.7582,-1.7582,-1.7589,-1.7609,-1.8096,-1.8497,-1.8517,0.0,0.0,0.0,0.0,0.0,0.0,0.0,0.0,0.0,0.0,0.0,0.0,0.0,0.0,-1.9983,-1.9996,-2.0132,-2.0429,-2.0713,-2.0997,-2.1042,-2.1049,-2.1049,-2.1049,-2.1049,-2.1049,-2.1162,-2.0893,-2.0889,0.0,0.0,0.0,0.0,-2.3039,-2.3923,-2.5056,-2.5056,-2.5056,-2.5178,-2.5178,-2.5178,-2.4933,-2.3814,-2.3318,-2.2827,-2.1601,-2.1109,-2.1109,-2.1109,-2.1109,-2.1109,-2.1109,-2.1109,-2.1109,-2.1109,-2.1109,-2.1109,-2.1109,-2.1109,-2.1109,-2.1109,-2.1109,-2.1109,-2.1109,-2.1109,-2.1109,-2.1109,-2.1109,-2.1109,-2.1109,-2.1109,-2.1109,-2.1109,-2.1109,-2.1109,-2.1109,-2.1109,-2.1109,-2.1109,-2.1109,-2.1109,-2.1109,-2.1109,-2.1109,-2.1109,-2.1109,-2.1109,-2.1109,-2.1109,-2.1109,-2.1109,-2.1109,-2.1109,-2.1109,-2.1109,-2.1109,-1.7179,0.0,-1.7285,-1.7483,-1.7582,-1.7582,0.0,0.0,-1.7582,-1.7582,-1.7582,-1.7655,-1.7896,-1.8243,-1.8564,-1.8784,0.0,0.0,0.0,0.0,0.0,0.0,0.0,0.0,0.0,0.0,0.0,0.0,0.0,-2.1211,-2.2192,-2.2192,-2.2345,-2.2673,-2.2765,-2.2023,-2.0434,-2.0434,-2.0434,-2.0434,-2.0434,-2.0917,-2.1747,-2.1676,-2.2235,0.0,0.0,0.0,-2.4034,-2.412,-2.4436,-2.5056,-2.5056,-2.5668,-2.6529,-2.6529,-2.6529,-2.6529,-2.6156,-2.4794,-2.2827,-2.1601,-2.1109,-2.1109,-2.1109,-2.1109,-2.1109,-2.1109,-2.1109,-2.1109,-2.1109,-2.1109,-2.1109,-2.1109,-2.1109,-2.1109,-2.1109,-2.1109,-2.1109,-2.1109,-2.1109,-2.1109,-2.1109,-2.1109,-2.1109,-2.1109,-2.1109,-2.1109,-2.1109,-2.1109,-2.1109,-2.1109,-2.1109,-2.1109,-2.1109,-2.1109,-2.1109,-2.1109,-2.1109,-2.1109,-2.1109,-2.1109,-2.1109,-2.1109,-2.1109,-2.1109,-2.1109,-2.1109,-2.1109,-2.1109,-2.1109,-2.1109,-1.8408,-1.7793,-1.7279,-1.7477,-1.7582,-1.7582,-1.7582,0.0,0.0,0.0,0.0,0.0,0.0,0.0,0.0,0.0,-1.9172,0.0,0.0,0.0,0.0,0.0,0.0,0.0,0.0,0.0,0.0,0.0,0.0,-2.2305,-2.2982,-2.2974,-2.3062,-2.3252,-2.3252,-2.2458,-2.1053,-2.106,-2.106,-2.106,-2.106,-2.1759,-2.3047,-2.2784,-2.306,0.0,0.0,0.0,-2.4893,-2.5214,-2.5836,-2.6542,-2.6703,-2.7263,-2.7882,-2.7882,-2.7882,-2.7873,-2.7263,-2.5293,-2.2952,-2.2215,-2.1601,-2.1109,-2.1109,-2.1109,-2.1109,-2.1109,-2.1109,-2.1109,-2.1109,-2.1109,-2.1109,-2.1109,-2.1109,-2.1109,-2.1109,-2.1109,-2.1109,-2.1109,-2.1109,-2.1109,-2.1109,-2.1109,-2.1109,-2.1109,-2.1109,-2.1109,-2.1109,-2.1109,-2.1109,-2.1109,-2.1109,-2.1109,-2.1109,-2.1109,-2.1109,-2.1109,-2.1109,-2.1109,-2.1109,-2.1109,-2.1109,-2.1109,-2.1109,-2.1109,-2.1109,-2.1109,-2.1109,-2.1109,-2.1109,-2.0722,-1.9937,-1.8715,-1.7799,-1.7786,-1.7891,-1.7786,-1.7687,0.0,0.0,0.0,0.0,0.0,0.0,-1.8426,0.0,0.0,0.0,0.0,0.0,0.0,0.0,0.0,0.0,0.0,0.0,0.0,0.0,0.0,0.0,-2.332,-2.3544,-2.3544,-2.3536,-2.3648,-2.3536,-2.3252,-2.2548,-2.2327,-2.2209,-2.2209,-2.2209,-2.2902,-2.4398,-2.3884,-2.3861,-2.4179,0.0,0.0,-2.5726,-2.6244,-2.7301,-2.8425,-2.8764,-2.8929,-2.8984,-2.8984,-2.8984,-2.8737,-2.7263,-2.5293,-2.3325,-2.2952,-2.1971,-2.1109,-2.1109,-2.1109,-2.1109,-2.1109,-2.1109,-2.1109,-2.1109,-2.1109,-2.1109,-2.1109,-2.1109,-2.1109,-2.1109,-2.1109,-2.1109,-2.1109,-2.1109,-2.1109,-2.1109,-2.1109,-2.1109,-2.1109,-2.1109,-2.1109,-2.1109,-2.1109,-2.1109,-2.1109,-2.1109,-2.1109,-2.1109,-2.1109,-2.1109,-2.1109,-2.1109,-2.1109,-2.1109,-2.1109,-2.1109,-2.1109,-2.1109,-2.0982,-2.0722,-2.0722,-2.0716,-2.0462,-2.0462,-1.9814,-2.0444,-2.0349,-2.0063,-1.9228,-1.8916,-1.8715,-1.7786,0.0,0.0,0.0,0.0,0.0,0.0,-1.9325,-2.0192,0.0,0.0,0.0,0.0,0.0,0.0,0.0,0.0,0.0,0.0,0.0,0.0,0.0,0.0,-2.5008,-2.6017,-2.6026,-2.6127,-2.6427,-2.6127,-2.5613,-2.4684,-2.3465,-2.2793,-2.2793,-2.2793,-2.3473,-2.4718,-2.4667,-2.5197,-2.6217,0.0,-2.6415,-2.6955,-2.7073,-2.7651,-2.8397,-2.8462,-2.8691,-2.8984,-2.8984,-2.8984,-2.8618,-2.6164,-2.5056,-2.4317,-2.2097,-2.1229,-2.1109,-2.1109,-2.1109,-2.1109,-2.1109,-2.1109,-2.1109,-2.1109,-2.1109,-2.1109,-2.1109,-2.1109,-2.1109,-2.1109,-2.1109,-2.1109,-2.1109,-2.1109,-2.1109,-2.1109,-2.1109,-2.1109,-2.1109,-2.1109,-2.1109,-2.1109,-2.1109,-2.1109,-2.1109,-2.1109,-2.1109,-2.1109,-2.1109,-2.1109,-2.1109,-2.1109,-2.1109,-2.1109,-2.1109,-2.1109,-2.1109,-2.1109,-2.0462,-1.9297,-1.9297,-1.878,-1.7625,-1.7625,-1.749,-2.1988,-2.2299,-2.2409,-2.1285,-2.057,-1.9952,-1.9539,-1.8923,0.0,0.0,0.0,0.0,0.0,0.0,-2.1616,-2.2114,0.0,0.0,0.0,0.0,0.0,0.0,0.0,0.0,0.0,0.0,0.0,0.0,0.0,0.0,-2.6791,-2.6791,-2.689,-2.7215,-2.7107,-2.6881,-2.6418,-2.5762,-2.4872,-2.3991,-2.3991,-2.4659,-2.5999,-2.5789,-2.6127,-2.6791,0.0,-2.6692,-2.6875,-2.7086,-2.7398,-2.7783,-2.8223,-2.8507,-2.8691,-2.8902,-2.8984,-2.8737,-2.6771,-2.5668,-2.4687,-2.2834,-2.1727,-2.1109,-2.1109,-2.1109,-2.1109,-2.1109,-2.1109,-2.1109,-2.1109,-2.1109,-2.1109,-2.1109,-2.1109,-2.1109,-2.1109,-2.1109,-2.1109,-2.1109,-2.1109,-2.1109,-2.1109,-2.1109,-2.1109,-2.1109,-2.1109,-2.1109,-2.1109,-2.1109,-2.1109,-2.1109,-2.1109,-2.1109,-2.1109,-2.1109,-2.1109,-2.1109,-2.1109,-2.1109,-2.1109,-2.1109,-2.0722,-1.9941,-1.9941,-1.9297,-1.7876,-1.7876,-1.7619,-1.698,-1.698,-1.6592,-2.3429,-2.3845,-2.3954,-2.3138,0.0,-2.1191,-2.0987,-2.0261,0.0,0.0,0.0,0.0,0.0,0.0,0.0,0.0,0.0,0.0,0.0,0.0,0.0,0.0,0.0,0.0,0.0,0.0,0.0,0.0,0.0,0.0,-2.7098,-2.7098,-2.7206,-2.753,-2.7431,-2.7431,-2.7539,-2.7431,-2.6654,-2.5331,-2.5331,-2.5889,-2.689,-2.6691,-2.6691,-2.689,-2.6691,-2.6591,-2.6609,-2.6912,-2.7095,-2.7242,-2.7866,-2.8223,-2.8443,-2.8838,-2.8856,-2.837,-2.7013,-2.5668,-2.4317,-2.3076,-2.1971,-2.1109,-2.1109,-2.1109,-2.1109,-2.1109,-2.1109,-2.1109,-2.1109,-2.1109,-2.1109,-2.1109,-2.1109,-2.1109,-2.1109,-2.1109,-2.1109,-2.1109,-2.1109,-2.1109,-2.1109,-2.1109,-2.1109,-2.1109,-2.1109,-2.1109,-2.1109,-2.1109,-2.1109,-2.1109,-2.1109,-2.1109,-2.1109,-2.1109,-2.1109,-2.1109,-2.1109,-2.1109,-2.1109,-2.0722,-2.0075,-1.9036,-1.8652,-1.7876,-1.6462,-1.6462,-1.6333,-1.6073,-1.6073,-1.5429,-2.3945,-2.4152,-2.4152,-2.4053,-2.3238,-2.2114,-2.1089,-2.0885,0.0,-2.0885,0.0,0.0,0.0,-2.3351,0.0,0.0,0.0,0.0,0.0,0.0,0.0,0.0,0.0,0.0,0.0,0.0,0.0,0.0,0.0,0.0,-2.7323,-2.7314,-2.753,-2.7853,-2.753,-2.753,-2.7853,-2.7539,-2.7206,-2.6881,-2.6881,-2.6781,-2.6591,-2.6591,-2.6591,-2.6591,-2.6591,-2.6591,-2.6591,-2.6619,-2.6848,-2.7187,-2.7242,-2.7728,-2.8443,-2.8838,-2.8241,-2.6892,-2.5668,-2.4309,-2.3076,-2.1727,-2.1229,-2.1109,-2.1109,-2.1109,-2.1109,-2.1109,-2.1109,-2.1109,-2.1109,-2.1109,-2.1109,-2.1109,-2.1109,-2.1109,-2.1109,-2.1109,-2.1109,-2.1109,-2.1109,-2.1109,-2.1109,-2.1109,-2.1109,-2.1109,-2.1109,-2.1109,-2.1109,-2.1109,-2.1109,-2.1109,-2.1109,-2.1109,-2.1109,-2.1109,-2.1109,-2.1109,-2.1109,-2.1109,-2.1109,-1.9814,-1.9036,-1.9036,-1.7753,-1.6457,-1.5038,-1.5038,-1.4394,-1.3095,-1.3095,-1.3095,-2.4044,-2.4152,-2.4152,-2.4152,-2.3845,0.0,0.0,-2.2417,-2.2181,-2.3141,-2.3056,0.0,0.0,0.0,0.0,0.0,0.0,0.0,0.0,0.0,0.0,0.0,0.0,0.0,0.0,0.0,0.0,0.0,0.0,0.0,-2.7638,-2.7745,-2.7853,-2.8184,-2.8077,-2.797,-2.8184,-2.797,-2.7862,-2.753,-2.7314,-2.7107,-2.689,-2.689,-2.6791,-2.6591,-2.6591,-2.6591,-2.6591,-2.6591,-2.6674,-2.6839,-2.7077,-2.7673,-2.8416,-2.8563,-2.841,-2.7873,-2.579,-2.4679,-2.3946,-2.1853,-2.1109,-2.1109,-2.1109,-2.1109,-2.1109,-2.1109,-2.1109,-2.1109,-2.1109,-2.1109,-2.1109,-2.1109,-2.1109,-2.1109,-2.1109,-2.1109,-2.1109,-2.1109,-2.1109,-2.1109,-2.1109,-2.1109,-2.1109,-2.1109,-2.1109,-2.1109,-2.1109,-2.1109,-2.1109,-2.1109,-2.1109,-2.1109,-2.1109,-2.1109,-2.1109,-2.1109,-2.1109,-2.0722,-1.9814,-1.9297,-1.8262,-1.6457,-1.5944,-1.5038,-1.3613,-1.3613,-1.3354,-1.2836,-1.2836,-1.2836,-2.4044,-2.4152,-2.4152,-2.4152,0.0,0.0,-2.4152,-2.3645,-2.3512,-2.4619,-2.4652,-2.4881,-2.6345,0.0,0.0,0.0,0.0,0.0,0.0,0.0,0.0,0.0,0.0,0.0,0.0,0.0,0.0,0.0,0.0,0.0,0.0,-2.8067,-2.8067,-2.8291,-2.8291,-2.8291,-2.8291,-2.8291,-2.8184,-2.8067,-2.7755,-2.7539,-2.7098,-2.7098,-2.6999,-2.6691,-2.6691,-2.6691,-2.6591,-2.6591,-2.6591,-2.6628,-2.7022,-2.7517,-2.804,-2.8297,-2.8075,-2.733,-2.5627,-2.444,-2.3457,-2.1727,-2.1109,-2.1109,-2.1109,-2.1109,-2.1109,-2.1109,-2.1109,-2.1109,-2.1109,-2.1109,-2.1109,-2.1109,-2.1109,-2.1109,-2.1109,-2.1109,-2.1109,-2.1109,-2.1109,-2.1109,-2.1109,-2.1109,-2.1109,-2.1109,-2.1109,-2.1109,-2.1109,-2.1109,-2.1109,-2.1109,-2.1109,-2.1109,-2.1109,-2.1109,-2.0849,-2.0462,-2.0849,-2.0462,-1.9036,-1.8133,-1.6974,-1.5554,-1.5168,-1.4394,-1.3486,-1.3486,-1.3227,-1.2836,-1.2836,-1.2836,-2.4044,-2.4152,-2.4152,0.0,0.0,0.0,-2.4152,-2.4482,-2.4785,-2.4794,-2.5417,-2.6087,-2.6509,0.0,0.0,0.0,0.0,0.0,0.0,0.0,0.0,0.0,0.0,0.0,0.0,0.0,0.0,0.0,0.0,0.0,0.0,-2.8291,-2.8291,-2.8291,-2.8291,-2.8291,-2.8291,-2.8291,-2.8291,-2.8291,-2.8291,-2.797,-2.7431,-2.7431,-2.7206,-2.6989,-2.6989,-2.689,-2.6591,-2.6591,-2.6591,-2.6628,-2.7013,-2.7169,-2.7279,-2.8086,-2.6684,-2.4443,-2.4806,-2.3325,-2.1109,-2.1109,-2.1109,-2.1109,-2.1109,-2.1109,-2.1109,-2.1109,-2.1109,-2.1109,-2.1109,-2.1109,-2.1109,-2.1109,-2.1109,-2.1109,-2.1109,-2.1109,-2.1109,-2.1109,-2.1109,-2.1109,-2.1109,-2.1109,-2.1109,-2.1109,-2.1109,-2.1109,-2.1109,-2.1109,-2.1109,-2.1109,-2.1109,-2.1109,-2.1109,-2.1109,-2.0462,-1.9164,-2.0329,-2.0462,-1.9036,-1.6328,-1.5554,-1.698,-1.5559,-1.4907,-1.4907,-1.4907,-1.4132,-1.2836,-1.2836,-1.2836,-2.4152,-2.4152,0.0,-2.4152,0.0,0.0,0.0,-2.4482,0.0,0.0,-2.6032,-2.6444,-2.6564,0.0,0.0,0.0,0.0,0.0,0.0,0.0,0.0,0.0,0.0,0.0,0.0,0.0,0.0,0.0,0.0,0.0,0.0,-2.8291,-2.8291,-2.8291,-2.8291,-2.8291,-2.8291,-2.8291,-2.8291,-2.8291,-2.8291,-2.8077,-2.7745,-2.7745,-2.753,-2.6989,-2.6989,-2.689,-2.6591,-2.6591,-2.6591,-2.66,-2.6719,-2.693,-2.7094,-2.6512,-2.611,-2.5608,-2.3908,-2.301,-2.2341,-2.1355,-2.1109,-2.1109,-2.1109,-2.1109,-2.1109,-2.1109,-2.1109,-2.1109,-2.1109,-2.1109,-2.1109,-2.1109,-2.1109,-2.1109,-2.1109,-2.1109,-2.1109,-2.1109,-2.1109,-2.1109,-2.1109,-2.1109,-2.1109,-2.1109,-2.1109,-2.1109,-2.1109,-2.1109,-2.1109,-2.1109,-2.1109,-2.1109,-2.1109,-2.1109,-2.0976,-2.0462,-1.9941,-1.9036,-1.7625,-1.7748,-1.749,-1.698,-1.5559,-1.4907,-1.4907,-1.387,-1.3227,-1.2836,-1.2836,-1.2836,-2.4152,-2.4152,0.0,-2.4152,-2.4152,-2.4235,-2.4565,0.0,0.0,0.0,0.0,-2.6591,-2.6591,-2.6691,0.0,0.0,0.0,0.0,0.0,0.0,0.0,0.0,0.0,0.0,0.0,0.0,0.0,0.0,0.0,0.0,0.0,-2.8291,-2.8291,-2.8291,-2.8291,-2.8291,-2.8291,-2.8291,-2.8291,-2.8291,-2.8291,-2.8184,-2.8067,-2.8067,-2.7745,-2.7098,-2.689,-2.6791,-2.6591,-2.6591,-2.6591,-2.6591,-2.6591,-2.6738,-2.6847,-2.5735,-2.5379,-2.4951,-2.3067,-2.2256,-2.2032,-2.1179,-2.1015,-2.1109,-2.1109,-2.1109,-2.1109,-2.1109,-2.1109,-2.1109,-2.1109,-2.1109,-2.1109,-2.1109,-2.1109,-2.1109,-2.1109,-2.1109,-2.1109,-2.1109,-2.1109,-2.1109,-2.1109,-2.1109,-2.1109,-2.1109,-2.1109,-2.1109,-2.1109,-2.1109,-2.1109,-2.1109,-2.1109,-2.1109,-2.1109,-2.1109,-2.0849,-2.0329,-1.9947,-1.917,-1.7882,-1.8005,-1.8139,-1.7748,-1.6462,-1.5684,-1.5684,-1.4263,-1.3354,-1.2836,-1.2836,-1.2836,-2.4152,0.0,0.0,-2.4152,-2.4189,0.0,-2.5197,-2.5399,-2.5647,-2.6426,0.0,-2.6591,-2.6591,-2.689,0.0,0.0,0.0,0.0,0.0,0.0,0.0,0.0,0.0,0.0,0.0,0.0,0.0,0.0,0.0,0.0,0.0,-2.8291,-2.8291,-2.8291,-2.8291,-2.8291,-2.8291,-2.8291,-2.8291,-2.8291,-2.8291,-2.8291,-2.8291,-2.8291,-2.797,-2.7323,-2.68,-2.6591,-2.6591,-2.6591,-2.6591,-2.6591,-2.6591,-2.6591,-2.6518,-2.5613,-2.4497,-2.3299,-2.2445,-2.1455,-2.0635,-2.0635,-2.0828,-2.1069,-2.1069,-2.1089,-2.1109,-2.1109,-2.1109,-2.1109,-2.1109,-2.1109,-2.1109,-2.1109,-2.1109,-2.1109,-2.1109,-2.1109,-2.1109,-2.1109,-2.1109,-2.1109,-2.1109,-2.1109,-2.1109,-2.1109,-2.1109,-2.1109,-2.1109,-2.1109,-2.1109,-2.1109,-2.1109,-2.1109,-2.1109,-2.1109,-2.0589,-1.9291,-2.0329,-2.0462,-1.9036,-1.7876,-1.7748,-1.9036,-1.7619,-1.6845,-1.685,-1.5429,-1.4002,-1.2836,-1.2836,-1.2836,-2.4152,-2.4152,0.0,0.0,-2.44,-2.4776,-2.5262,-2.561,-2.5977,-2.6481,-2.6591,-2.6691,-2.689,0.0,0.0,0.0,0.0,0.0,0.0,0.0,0.0,0.0,0.0,0.0,0.0,0.0,0.0,0.0,0.0,0.0,-2.8291,-2.8291,-2.8291,-2.8291,-2.8291,-2.8291,-2.8291,-2.8291,-2.8291,0.0,-2.8291,-2.8291,-2.8291,-2.8291,-2.797,-2.7323,-2.68,-2.6591,-2.6591,-2.6591,-2.6591,-2.6591,-2.6591,-2.6591,-2.6482,-2.5325,-2.4281,-2.3268,-2.2074,-2.1138,-2.0327,-2.0327,-2.0528,-2.0768,-2.0768,-2.0929,-2.1109,-2.1109,-2.1109,-2.1109,-2.1109,-2.1109,-2.1109,-2.1109,-2.1109,-2.1109,-2.1109,-2.1109,-2.1109,-2.1109,-2.1109,-2.1109,-2.1109,-2.1109,-2.1109,-2.1109,-2.1109,-2.1109,-2.1109,-2.1109,-2.1109,-2.1109,-2.1109,-2.1109,-2.1109,-2.1109,-2.0982,-2.0716,-2.0976,-2.0462,-1.9036,-1.878,-1.8652,-1.9036,-1.6586,-1.5298,-1.5298,-1.4002,-1.3095,-1.2836,-1.2836,-1.2836,-2.4152,0.0,0.0,-2.4152,0.0,-2.4886,-2.528,-2.5674,-2.6185,-2.6707,-2.6791,-2.6781,0.0,0.0,0.0,0.0,0.0,0.0,0.0,0.0,0.0,0.0,0.0,0.0,0.0,0.0,0.0,0.0,0.0,-2.8291,-2.8291,-2.8291,-2.8291,-2.8291,-2.8291,-2.8291,-2.8291,-2.8291,-2.8291,-2.8291,-2.8184,-2.797,-2.7862,-2.7862,-2.7647,-2.7215,-2.68,-2.6591,-2.6591,-2.6591,-2.6591,-2.6591,-2.6591,-2.6591,-2.6473,-2.5229,-2.4452,-2.3821,-2.1992,-2.1167,-2.0725,-2.014,-2.0227,-2.0468,-2.0468,-2.0668,-2.0902,-2.0902,-2.1002,-2.1109,-2.1109,-2.1109,-2.1109,-2.1109,-2.1109,-2.1109,-2.1109,-2.1109,-2.1109,-2.1109,-2.1109,-2.1109,-2.1109,-2.1109,-2.1109,-2.1109,-2.1109,-2.1109,-2.1109,-2.1109,-2.1109,-2.1109,-2.1109,-2.1109,-2.1109,-2.1109,-2.1109,-2.1109,-2.1109,-2.0462,-1.9036,-1.839,-1.8005,-1.8005,-1.5944,-1.4907,-1.4907,-1.3486,-1.2836,-1.2836,-1.2836,-1.2836,-2.4152,0.0,-2.4152,-2.4152,-2.4519,0.0,-2.5298,-2.5729,-2.6267,-2.6915,-2.6989,0.0,0.0,0.0,0.0,0.0,0.0,0.0,0.0,0.0,0.0,0.0,0.0,0.0,0.0,0.0,0.0,0.0,0.0,-2.8291,-2.8291,-2.8291,-2.8291,-2.8291,-2.8291,-2.8291,-2.8291,-2.8291,-2.8291,-2.8291,-2.8067,-2.7745,-2.7314,-2.7314,-2.7215,-2.6989,-2.6691,-2.6591,-2.6591,-2.6591,-2.6591,-2.6591,-2.6591,-2.6591,-2.6473,-2.5459,-2.4898,-2.4214,-2.2191,-2.135,-2.111,-2.0074,-1.992,-2.0154,-2.0154,-2.0361,-2.0601,-2.0601,-2.0808,-2.1036,-2.1036,-2.1076,-2.1109,-2.1109,-2.1109,-2.1109,-2.1109,-2.1109,-2.1109,-2.1109,-2.1109,-2.1109,-2.1109,-2.1109,-2.1109,-2.1109,-2.1109,-2.1109,-2.1109,-2.1109,-2.1109,-2.1109,-2.1109,-2.1109,-2.1109,-2.1109,-2.1109,-2.1109,-2.0849,-2.0075,-1.8652,-1.7361,-1.6462,-1.6333,-1.5168,-1.452,-1.452,-1.3354,-1.2836,-1.2836,-1.2836,-1.2836,0.0,0.0,-2.4152,0.0,-2.473,-2.5307,0.0,0.0,-2.6617,0.0,0.0,0.0,0.0,0.0,0.0,0.0,0.0,0.0,0.0,0.0,0.0,0.0,0.0,0.0,0.0,0.0,0.0,0.0,-2.8291,-2.8291,-2.8291,-2.8291,-2.8291,-2.8291,-2.8291,-2.8291,-2.8291,-2.8291,-2.8291,-2.8291,-2.8067,-2.7638,-2.7098,-2.7098,-2.6989,-2.6989,-2.6691,-2.6591,-2.6591,-2.6591,-2.6591,-2.6591,-2.6591,-2.6591,-2.6591,-2.6473,-2.5008,-2.3199,-2.2869,-2.1432,-1.9652,-1.9542,-1.9619,-1.986,-1.986,-2.006,-2.0294,-2.0294,-2.0508,-2.0735,-2.0735,-2.0922,-2.1109,-2.1109,-2.1109,-2.1109,-2.1109,-2.1109,-2.1109,-2.1109,-2.1109,-2.1109,-2.1109,-2.1109,-2.1109,-2.1109,-2.1109,-2.1109,-2.1109,-2.1109,-2.1109,-2.1109,-2.1109,-2.1109,-2.1109,-2.1109,-2.1109,-2.1109,-1.9947,-1.8652,-1.7361,-1.5944,-1.4651,-1.3354,-1.3227,-1.3095,-1.3095,-1.2836,-1.2836,-1.2836,-1.2836,-1.2836,-2.4152,-2.4152,-2.4152,0.0,-2.4684,-2.5274,-2.542,0.0,-2.6845,0.0,0.0,0.0,0.0,0.0,0.0,0.0,0.0,0.0,0.0,0.0,0.0,0.0,0.0,0.0,0.0,0.0,0.0,0.0,-2.8291,-2.8291,-2.8291,-2.8291,-2.8291,-2.8291,-2.8291,-2.8291,-2.8291,-2.8291,-2.8184,-2.7755,-2.7647,-2.7323,-2.6791,-2.6791,-2.6791,-2.6791,-2.6691,-2.6591,-2.6591,-2.6591,-2.6591,-2.6591,-2.6591,-2.6591,-2.6591,-2.6591,-2.5459,-2.388,-2.3207,-2.1851,-2.027,-1.9591,-1.9452,-1.9559,-1.9559,-1.976,-1.9993,-1.9993,-2.0201,-2.0428,-2.0428,-2.0521,-2.0661,-2.0828,-2.0869,-2.0909,-2.1076,-2.1109,-2.1109,-2.1109,-2.1109,-2.1109,-2.1109,-2.1109,-2.1109,-2.1109,-2.1109,-2.1109,-2.1109,-2.1109,-2.1109,-2.1109,-2.1109,-2.1109,-2.1109,-2.1109,-2.1109,-2.1109,-2.0462,-1.917,-1.7103,-1.6462,-1.5038,-1.2836,-1.2836,-1.2836,-1.2836,-1.2836,-1.2836,-1.2836,-1.2836,-1.2836,0.0,0.0,-2.435,-2.4538,-2.4836,-2.5145,0.0,0.0,0.0,0.0,0.0,0.0,0.0,0.0,0.0,0.0,0.0,0.0,0.0,0.0,0.0,0.0,0.0,0.0,0.0,0.0,0.0,0.0,-2.8291,-2.8291,-2.8291,-2.8291,-2.8291,-2.8291,-2.8291,-2.8291,-2.8291,-2.8291,-2.8077,-2.753,-2.7431,-2.7107,-2.6691,-2.6591,-2.6591,-2.6591,-2.6591,-2.6591,-2.6591,-2.6591,-2.6591,-2.6591,-2.6591,-2.6591,-2.6591,-2.6245,-2.5348,-2.4214,-2.2982,-2.1737,-2.0608,-1.9707,-1.9366,-1.9366,-1.9366,-1.9519,-1.9693,-1.9693,-1.99,-2.0127,-2.0127,-2.018,-2.0287,-2.0508,-2.0568,-2.0661,-2.1029,-2.1109,-2.1109,-2.1109,-2.1109,-2.1109,-2.1109,-2.1109,-2.1109,-2.1109,-2.1109,-2.1109,-2.1109,-2.1109,-2.1109,-2.1109,-2.1109,-2.1109,-2.1109,-2.1109,-2.1109,-2.1109,-2.0722,-1.9431,-1.7103,-1.6721,-1.5298,-1.2836,-1.2836,-1.2836,-1.2836,-1.2836,-1.2836,-1.2836,-1.2836,-1.2836,0.0,-2.4913,0.0,-2.5401,0.0,0.0,0.0,0.0,0.0,0.0,0.0,0.0,0.0,0.0,0.0,0.0,0.0,0.0,0.0,0.0,0.0,0.0,0.0,0.0,0.0,0.0,0.0,0.0,-2.8291,-2.8291,-2.8291,-2.8291,-2.8291,-2.8291,-2.8291,-2.8291,-2.8291,-2.8291,-2.8184,-2.7853,-2.753,-2.7215,-2.6989,-2.6691,-2.6591,-2.6591,-2.6591,-2.6591,-2.6591,-2.6591,-2.6591,-2.6591,-2.6591,-2.6591,-2.6473,-2.5348,-2.4103,-2.2869,-2.1737,-2.05,-1.9482,-1.9366,-1.9366,-1.9366,-1.9366,-1.9379,-1.9392,-1.9392,-1.9599,-1.982,-1.982,-2.0027,-2.0234,-2.0254,-2.0254,-2.0414,-2.0982,-2.1109,-2.1109,-2.1109,-2.1109,-2.1109,-2.1109,-2.1109,-2.1109,-2.1109,-2.1109,-2.1109,-2.1109,-2.1109,-2.1109,-2.1109,-2.1109,-2.1109,-2.1109,-2.1109,-2.1109,-2.1109,-1.9814,-1.8524,-1.7103,-1.5684,-1.4263,-1.2836,-1.2836,-1.2836,-1.2836,-1.2836,-1.2836,-1.2836,-1.2836,-1.2836,0.0,0.0,0.0,-2.6244,-2.618,-2.6114,0.0,0.0,0.0,0.0,0.0,0.0,0.0,0.0,0.0,0.0,0.0,0.0,0.0,0.0,0.0,0.0,0.0,0.0,0.0,0.0,0.0,0.0,0.0,-2.8291,-2.8291,-2.8291,-2.8291,-2.8291,-2.8291,-2.8291,-2.8291,-2.8291,-2.8184,-2.7853,-2.7745,-2.7422,-2.6989,-2.689,-2.6791,-2.6591,-2.6591,-2.6591,-2.6591,-2.6591,-2.6591,-2.6591,-2.6591,-2.6136,-2.5348,-2.5008,-2.3544,-2.1737,-2.1402,-2.0385,-1.9366,-1.9366,-1.9366,-1.9366,-1.9366,-1.9366,-1.9366,-1.9366,-1.9446,-1.9519,-1.9519,-1.9599,-1.9726,-1.9913,-2.0214,-2.053,-2.0501,-2.0695,-2.0882,-2.1076,-2.1109,-2.1109,-2.1109,-2.1109,-2.1109,-2.1109,-2.1109,-2.1109,-2.1109,-2.1109,-2.1109,-2.1109,-2.1109,-2.0716,-1.9814,-2.0589,-2.0335,-1.8524,-1.878,-1.8005,-1.5684,-1.5168,-1.4263,-1.2836,-1.2836,-1.2836,-1.2836,-1.2836,-1.2836,-1.2836,-1.2836,-1.2836,-2.7284,0.0,0.0,0.0,0.0,-2.6759,0.0,0.0,0.0,0.0,0.0,0.0,0.0,0.0,0.0,0.0,0.0,0.0,0.0,0.0,0.0,0.0,0.0,0.0,0.0,0.0,0.0,0.0,0.0,0.0,-2.7861,-2.7861,-2.7861,-2.7861,-2.7861,-2.7861,-2.7861,-2.7861,-2.7824,-2.7864,-2.7748,-2.7494,-2.7314,-2.7206,-2.6999,-2.6899,-2.6791,-2.6691,-2.6591,-2.6591,-2.6591,-2.6591,-2.6591,-2.6136,-2.5348,-2.4445,-2.3207,-2.1737,-2.0838,-2.0046,-1.9366,-1.9366,-1.9366,-1.9366,-1.9366,-1.9366,-1.9366,-1.9366,-1.9482,-1.9475,-1.9475,-1.9591,-1.9754,-1.9958,-2.0267,-2.0557,-2.0421,-2.0557,-2.0738,-2.0909,-2.0962,-2.0995,-2.1089,-2.1109,-2.1109,-2.1109,-2.1109,-2.1109,-2.1109,-2.1109,-2.1109,-2.1109,-2.0722,-2.0202,-1.9686,-1.9686,-1.917,-1.7748,-1.8133,-1.7361,-1.5038,-1.4907,-1.4263,-1.2836,-1.2836,-1.2836,-1.2836,-1.2836,-1.2836,-1.2836,-1.2836,-1.2836,0.0,0.0,0.0,0.0,0.0,0.0,-2.7703,0.0,0.0,0.0,0.0,0.0,0.0,0.0,0.0,0.0,0.0,0.0,0.0,0.0,0.0,0.0,0.0,0.0,0.0,0.0,0.0,0.0,-2.7256,-2.7012,-2.7012,-2.7012,-2.7012,-2.7012,-2.7012,-2.7012,-2.7012,-2.7012,-2.7226,-2.7646,-2.7313,-2.742,-2.7833,-2.7511,-2.7413,-2.7431,-2.7098,-2.689,-2.6591,-2.6591,-2.6591,-2.6591,-2.6591,-2.6473,-2.6254,-2.3768,-2.2974,-2.2531,-2.0162,-1.9366,-1.9366,-1.9366,-1.9366,-1.9366,-1.9366,-1.9366,-1.9366,-1.9366,-1.9591,-1.9809,-1.9809,-2.0046,-2.027,-2.027,-2.027,-2.0354,-2.0648,-2.0711,-2.0659,-2.0725,-2.0668,-2.0768,-2.1049,-2.1102,-2.1109,-2.1109,-2.1109,-2.1109,-2.1109,-2.1109,-2.1109,-2.1109,-1.9941,-1.9553,-2.0849,-1.8652,-1.7619,-1.878,-1.7619,-1.6333,-1.4907,-1.4782,-1.4263,-1.2836,-1.2836,-1.2836,-1.2836,-1.2836,-1.2836,-1.2836,-1.2836,-1.2836,-2.8969,0.0,0.0,0.0,0.0,0.0,0.0,0.0,0.0,0.0,0.0,0.0,0.0,0.0,0.0,0.0,0.0,0.0,0.0,0.0,0.0,0.0,0.0,0.0,0.0,0.0,0.0,0.0,-2.708,-2.7012,-2.7012,-2.7012,-2.7012,-2.7012,-2.7012,-2.7012,-2.7012,-2.7012,-2.708,-2.7197,-2.7085,-2.7195,-2.7391,-2.7285,-2.7351,-2.7431,-2.7323,-2.7215,-2.7116,-2.68,-2.6591,-2.6473,-2.5688,-2.4778,-2.3768,-2.2305,-2.1174,-2.027,-1.9597,-1.9366,-1.9366,-1.9366,-1.9366,-1.9366,-1.9366,-1.9591,-1.9707,-1.9707,-1.9931,-2.0162,-2.0162,-2.027,-2.027,-2.027,-2.05,-2.0515,-2.0491,-2.0575,-2.0676,-2.0732,-2.0651,-2.0826,-2.1155,-2.1094,-2.1235,-2.1488,-2.1235,-2.1109,-2.1109,-2.1109,-2.1109,-2.1109,-2.0722,-1.9814,-1.8267,-1.9297,-1.8396,-1.4782,-1.6073,-1.5944,-1.3486,-1.3354,-1.3227,-1.2836,-1.2836,-1.2836,-1.2836,-1.2836,-1.2836,-1.2836,-1.2836,-1.2836,-2.9326,-2.9418,-2.9326,0.0,0.0,0.0,-2.6466,-2.6201,0.0,0.0,0.0,0.0,0.0,0.0,0.0,0.0,0.0,0.0,0.0,0.0,0.0,0.0,0.0,0.0,0.0,-2.7002,-2.6758,-2.6758,-2.6592,-2.6484,-2.6484,-2.6484,-2.6484,-2.6484,-2.6484,-2.6484,-2.6484,-2.6484,-2.6572,-2.6758,-2.6758,-2.6968,-2.7437,-2.7437,-2.7564,-2.7755,-2.7647,-2.7638,-2.7539,-2.7116,-2.6682,-2.6136,-2.5331,-2.4317,-2.3199,-2.1737,-2.0838,-2.027,-1.9591,-1.9366,-1.9366,-1.9366,-1.9366,-1.9366,-1.9475,-1.9707,-1.9815,-1.9924,-2.027,-2.05,-2.0622,-2.0622,-2.0622,-2.0622,-2.0737,-2.0845,-2.0737,-2.073,-2.0751,-2.0662,-2.0664,-2.0869,-2.1238,-2.1307,-2.1339,-2.1587,-2.1488,-2.1235,-2.1109,-2.1109,-2.1109,-2.1109,-2.0589,-1.9814,-1.878,-1.917,-1.8267,-1.5554,-1.5814,-1.5429,-1.3744,-1.3095,-1.2836,-1.2836,-1.2836,-1.2836,-1.2836,-1.2836,-1.2836,-1.2836,-1.2836,-1.2836,-2.9601,-2.9235,-2.8495,-2.8402,-2.7652,0.0,-2.6999,-2.637,-2.5742,0.0,0.0,0.0,0.0,0.0,0.0,0.0,0.0,0.0,0.0,0.0,0.0,0.0,0.0,0.0,-2.6943,-2.6562,-2.6318,-2.6318,-2.5957,-2.5742,-2.5742,-2.5742,-2.5742,-2.5742,-2.5742,-2.5742,-2.5742,-2.5742,-2.5937,-2.6318,-2.6318,-2.6738,-2.7529,-2.7568,-2.7822,-2.8223,-2.8048,-2.796,-2.796,-2.7638,-2.6881,-2.5789,-2.5313,-2.4531,-2.3656,-2.1737,-2.1288,-2.1281,-1.9931,-1.9482,-1.9482,-1.9482,-1.9482,-1.9591,-1.9815,-1.9931,-1.9924,-2.027,-2.0615,-2.0838,-2.1089,-2.1211,-2.1211,-2.1211,-2.1211,-2.1211,-2.1211,-2.0967,-2.0809,-2.0737,-2.0704,-2.09,-2.1446,-2.16,-2.1616,-2.1644,-2.1713,-2.1607,-2.1235,-2.1235,-2.1109,-2.1109,-1.9941,-1.9686,-2.0722,-1.878,-1.7876,-1.878,-1.6586,-1.5168,-1.4907,-1.3744,-1.2964,-1.2836,-1.2836,-1.2836,-1.2836,-1.2836,-1.2836,-1.2836,-1.2836,-1.2836,-2.7934,-2.7652,-2.7284,0.0,-2.61,0.0,-2.6014,-2.583,-2.5742,0.0,0.0,0.0,0.0,0.0,0.0,0.0,0.0,0.0,0.0,0.0,0.0,0.0,0.0,0.0,-2.6514,-2.6123,-2.5859,-2.5859,-2.5781,-2.5742,-2.5742,-2.5742,-2.5742,-2.5742,-2.5742,-2.5742,-2.5742,-2.5742,-2.5781,-2.5859,-2.5859,-2.6133,-2.665,-2.6982,-2.7383,-2.7803,-2.8144,-2.8184,-2.8184,-2.8184,-2.7755,-2.6881,-2.4872,-2.4103,-2.3656,-2.1288,-2.05,-2.0493,-2.027,-2.0162,-2.0162,-2.0162,-2.0162,-2.0162,-2.0162,-2.0378,-2.0608,-2.0974,-2.1089,-2.1089,-2.1211,-2.1211,-2.1211,-2.1211,-2.1211,-2.1211,-2.1211,-2.1203,-2.1103,-2.1054,-2.0914,-2.0767,-2.1235,-2.1434,-2.1663,-2.1973,-2.195,-2.1985,-2.1859,-2.1607,-2.1481,-2.1481,-2.0976,-2.0335,-1.9425,-1.9947,-1.9431,-1.749,-1.7876,-1.7232,-1.5038,-1.4651,-1.4006,-1.2836,-1.2836,-1.2836,-1.2836,-1.2836,-1.2836,-1.2836,-1.2836,-1.2836,0.0,0.0,0.0,-2.583,0.0,0.0,0.0,-2.5742,-2.5742,-2.5742,0.0,0.0,0.0,0.0,0.0,0.0,0.0,0.0,0.0,0.0,0.0,0.0,0.0,0.0,-2.6064,-2.5869,-2.5742,-2.5742,-2.5742,-2.5742,-2.5742,-2.5742,-2.5742,-2.5742,-2.5742,-2.5742,-2.5742,-2.5742,-2.5742,-2.5742,-2.5742,-2.5967,-2.6406,-2.6826,-2.7256,-2.7685,-2.8115,-2.8291,-2.8291,-2.8291,-2.8077,-2.7638,-2.5084,-2.3863,-2.3199,-2.106,-2.0385,-2.0493,-2.0385,-2.027,-2.027,-2.027,-2.027,-2.027,-2.0493,-2.073,-2.0967,-2.1203,-2.1211,-2.1211,-2.1211,-2.1211,-2.1211,-2.1211,-2.1211,-2.1211,-2.1211,-2.1211,-2.1211,-2.1211,-2.1104,-2.1024,-2.1416,-2.1586,-2.1782,-2.2083,-2.2146,-2.2054,-2.209,-2.1859,-2.1607,-2.1859,-2.1607,-2.1096,-2.0576,-2.1096,-2.0709,-1.9419,-1.9291,-1.8518,-1.6974,-1.6581,-1.5804,-1.439,-1.349,-1.3231,-1.3358,-1.3358,-1.3095,-1.2836,-1.2972,-1.3104,0.0,0.0,0.0,0.0,0.0,-2.5742,0.0,0.0,0.0,0.0,0.0,0.0,0.0,0.0,0.0,0.0,0.0,0.0,0.0,0.0,0.0,0.0,0.0,0.0,0.0,-2.5742,-2.5742,-2.5742,-2.5742,-2.5742,-2.5742,-2.5742,-2.5742,-2.5742,-2.5742,-2.5742,-2.5742,-2.5742,-2.5742,-2.5742,-2.5742,-2.5918,-2.6279,-2.6787,-2.7207,-2.7568,-2.8076,-2.8291,-2.8291,-2.8291,-2.8184,-2.7736,-2.5287,-2.3958,-2.3079,-2.1181,-2.0615,-2.0723,-2.05,-2.0507,-2.0507,-2.0507,-2.0507,-2.05,-2.0723,-2.0967,-2.1211,-2.1211,-2.1211,-2.1211,-2.1211,-2.1211,-2.1211,-2.1211,-2.1211,-2.1211,-2.1211,-2.1211,-2.1211,-2.1211,-2.1211,-2.1298,-2.1562,-2.1657,-2.1751,-2.2004,-2.2177,-2.2226,-2.2235,-2.1943,-2.1859,-2.2111,-2.1859,-2.1859,-2.2111,-2.1859,-2.1734,-2.1734,-2.0569,-1.9795,-1.9291,-1.8372,-1.7468,-1.6322,-1.5043,-1.4394,-1.4646,-1.4605,-1.4097,-1.2968,-1.3367,-1.3498,0.0,0.0,0.0,0.0,-2.5742,0.0,0.0,0.0,-2.5742,-2.5742,0.0,0.0,0.0,0.0,0.0,0.0,0.0,0.0,0.0,0.0,0.0,0.0,0.0,0.0,0.0,-2.5742,-2.5742,-2.5742,-2.5742,-2.5742,-2.5742,-2.5742,-2.5742,-2.5742,-2.5742,-2.5742,-2.5742,-2.5742,-2.5742,-2.5742,-2.5742,-2.5762,-2.584,-2.665,-2.7041,-2.7139,-2.7939,-2.8291,-2.8291,-2.8291,-2.7628,-2.6527,-2.5168,-2.4616,-2.4283,-2.1979,-2.1089,-2.1089,-2.1096,-2.1089,-2.1089,-2.1089,-2.1089,-2.1089,-2.1089,-2.1211,-2.1211,-2.1211,-2.1211,-2.1211,-2.1211,-2.1211,-2.1211,-2.1211,-2.1211,-2.1211,-2.1211,-2.1211,-2.1211,-2.1211,-2.1211,-2.1218,-2.1262,-2.1503,-2.1715,-2.1796,-2.2151,-2.2515,-2.2551,-2.2558,-2.2487,-2.248,-2.223,-2.2111,-2.2111,-2.2111,-2.1985,-2.1985,-2.1853,-2.1209,-2.0049,-1.875,-1.7982,-1.7725,-1.7597,-1.7468,-1.7468,-1.7246,-1.5987,-1.3744,-1.3879,-1.3879,0.0,0.0,0.0,0.0,0.0,0.0,-2.5742,0.0,-2.5742,0.0,0.0,0.0,0.0,0.0,0.0,0.0,-2.5742,0.0,0.0,0.0,0.0,0.0,0.0,0.0,0.0,0.0,0.0,0.0,-2.5742,-2.5742,-2.5742,-2.5742,-2.5742,-2.5742,-2.5742,-2.5742,-2.5742,-2.5742,-2.5742,-2.5742,-2.5742,-2.5742,-2.5762,-2.6367,-2.6787,-2.7051,-2.7666,-2.8066,-2.8291,-2.752,-2.6971,-2.63,-2.4411,-2.3743,-2.3528,-2.1873,-2.1211,-2.1211,-2.1211,-2.1211,-2.1211,-2.1211,-2.1211,-2.1211,-2.1211,-2.1211,-2.1211,-2.1211,-2.1211,-2.1211,-2.1211,-2.1211,-2.1211,-2.1211,-2.1211,-2.1211,-2.1211,-2.1211,-2.1211,-2.1211,-2.1211,-2.1211,-2.1211,-2.132,-2.1481,-2.1672,-2.192,-2.2213,-2.2571,-2.2371,-2.2405,-2.2841,-2.2606,-2.248,-2.2606,-2.2487,-2.2355,-2.2355,-2.2237,-2.1978,-2.1832,-2.0163,-1.94,-1.9782,-1.8756,-1.8372,-1.8634,-1.8248,-1.7547,-1.6509,-1.5488,-1.4553,-2.5742,0.0,0.0,0.0,0.0,0.0,0.0,0.0,0.0,0.0,0.0,0.0,0.0,0.0,0.0,0.0,0.0,-2.5742,0.0,0.0,0.0,0.0,0.0,0.0,0.0,0.0,0.0,-2.5742,-2.5742,-2.5742,-2.5742,-2.5742,-2.5742,-2.5742,-2.5742,-2.5742,-2.5742,-2.5742,-2.5742,-2.5742,-2.5742,-2.5742,-2.5752,-2.6191,-2.6621,-2.7041,-2.748,-2.7795,-2.7736,-2.6853,-2.6082,-2.5415,-2.3648,-2.2757,-2.2425,-2.1539,-2.1211,-2.1211,-2.1211,-2.1211,-2.1211,-2.1211,-2.1211,-2.1211,-2.1211,-2.1211,-2.1211,-2.1211,-2.1211,-2.1211,-2.1211,-2.1211,-2.1211,-2.1211,-2.1211,-2.1211,-2.1211,-2.1211,-2.1211,-2.1211,-2.1211,-2.1211,-2.1211,-2.1211,-2.1291,-2.1525,-2.1642,-2.1854,-2.2315,-2.2204,-2.2378,-2.2945,-2.2726,-2.2762,-2.3098,-2.2863,-2.2738,-2.2738,-2.2487,-2.2606,-2.3113,-2.1706,-2.1195,-2.1587,-2.0423,-1.9916,-2.0176,-1.9699,-1.9274,-1.8902,-1.7213,-1.5897,0.0,0.0,0.0,-2.5742,0.0,0.0,0.0,0.0,-2.5742,0.0,0.0,0.0,0.0,0.0,0.0,0.0,0.0,0.0,0.0,0.0,0.0,0.0,0.0,0.0,0.0,0.0,0.0,-2.5742,-2.5742,-2.5742,-2.5742,-2.5742,-2.5742,-2.5742,-2.5742,-2.5742,-2.5742,-2.5742,-2.5742,-2.5742,-2.5742,-2.5742,-2.5752,-2.6191,-2.6621,-2.7041,-2.748,-2.7256,-2.6527,-2.6527,-2.5194,-2.3087,-2.2982,-2.232,-2.1203,-2.1211,-2.1211,-2.1211,-2.1211,-2.1211,-2.1211,-2.1211,-2.1211,-2.1211,-2.1211,-2.1211,-2.1211,-2.1211,-2.1211,-2.1211,-2.1211,-2.1211,-2.1211,-2.1211,-2.1211,-2.1211,-2.1211,-2.1211,-2.1211,-2.1211,-2.1211,-2.1211,-2.1211,-2.1211,-2.1211,-2.1218,-2.1496,-2.1708,-2.1723,-2.2001,-2.2308,-2.2608,-2.2637,-2.2769,-2.3084,-2.3106,-2.3113,-2.3113,-2.3106,-2.3113,-2.3106,-2.2981,-2.2981,-2.2981,-2.2981,-2.2981,-2.2981,-2.2369,-2.1456,-2.0227,-1.8741,-1.8,0.0,0.0,-2.5742,-2.5742,0.0,0.0,0.0,0.0,0.0,0.0,0.0,0.0,0.0,0.0,0.0,0.0,0.0,0.0,0.0,0.0,0.0,0.0,0.0,0.0,0.0,0.0,0.0,-2.5742,-2.5742,-2.5742,-2.5742,-2.5742,-2.5742,-2.5742,-2.5742,-2.5742,-2.5742,-2.5742,-2.5742,-2.5742,-2.5742,-2.5742,-2.5742,-2.5889,-2.6348,-2.7021,-2.7168,-2.7418,-2.7628,-2.6862,-2.5525,-2.4069,-2.3303,-2.2207,-2.1211,-2.1211,-2.1211,-2.1211,-2.1211,-2.1211,-2.1211,-2.1211,-2.1211,-2.1211,-2.1211,-2.1211,-2.1211,-2.1211,-2.1211,-2.1211,-2.1211,-2.1211,-2.1211,-2.1211,-2.1211,-2.1211,-2.1211,-2.1211,-2.1211,-2.1211,-2.1211,-2.1211,-2.1211,-2.1211,-2.1211,-2.1211,-2.1306,-2.1452,-2.1672,-2.1796,-2.1986,-2.2301,-2.233,-2.2454,-2.2762,-2.2981,-2.3106,-2.3106,-2.3106,-2.3106,-2.3106,-2.3106,-2.3106,-2.3106,-2.3106,-2.3106,-2.3106,-2.2484,-2.1937,-2.1555,-2.0531,-1.9266,-2.6045,-2.5859,0.0,-2.5742,-2.5742,0.0,-2.5742,0.0,0.0,0.0,0.0,0.0,0.0,0.0,0.0,0.0,0.0,0.0,0.0,-2.5742,0.0,0.0,0.0,0.0,0.0,0.0,-2.5742,-2.5742,-2.5742,-2.5742,0.0,0.0,-2.5742,-2.5742,-2.5742,-2.5742,-2.5742,-2.5742,-2.5742,-2.5742,-2.5742,-2.5742,-2.5742,-2.5742,-2.6201,-2.7012,-2.7012,-2.7282,-2.7628,-2.6853,-2.5735,-2.4616,-2.3416,-2.2539,-2.1767,-2.1318,-2.1211,-2.1211,-2.1211,-2.1211,-2.1211,-2.1211,-2.1211,-2.1211,-2.1211,-2.1211,-2.1211,-2.1211,-2.1211,-2.1211,-2.1211,-2.1211,-2.1211,-2.1211,-2.1211,-2.1211,-2.1211,-2.1211,-2.1211,-2.1211,-2.1211,-2.1211,-2.1211,-2.1211,-2.1211,-2.1211,-2.1211,-2.1284,-2.1496,-2.1525,-2.165,-2.1979,-2.2008,-2.2176,-2.2586,-2.282,-2.2988,-2.3098,-2.3106,-2.3106,-2.3106,-2.3106,-2.3106,-2.3106,-2.3106,-2.3106,-2.3106,-2.2484,-2.2184,-2.2169,-2.1511,-2.027]},{"header":{"parameterUnit":"m.s-1","parameterCategory":1,"la1":30.6,"la2":29.2853,"lo1":-89.7004,"lo2":-87.6739,"dy":0.0162,"dx":0.0183,"nx":112,"ny":82,"refTime":"2023-08-03T00:00:00:Z","depth":0,"parameterNumber":3,"parameterNumberName":"V-component_of_WINDS"},"data":[0.0,0.0,0.0,0.0,0.0,0.0,0.0,0.0,0.0,0.0,0.0,0.0,0.0,0.0,0.0,0.0,0.0,0.0,0.0,0.0,0.0,0.0,0.0,0.0,0.0,0.0,0.0,0.0,0.0,0.0,0.0,0.0,0.0,0.0,0.0,0.0,0.0,0.0,0.0,0.0,0.0,0.0,0.0,0.0,0.0,0.0,0.0,0.0,0.0,0.0,0.0,0.0,0.0,0.0,0.0,0.0,0.0,0.0,0.0,0.0,0.0,0.0,0.0,0.0,0.0,0.0,0.0,0.0,0.0,0.0,0.0,0.0,0.0,0.0,0.0,0.0,0.0,0.0,0.0,0.0,0.0,0.0,0.0,0.0,0.0,0.0,0.0,0.0,0.0,0.0,-4.1117,-4.0918,-4.0888,-4.0888,-4.0888,-4.0888,-4.0888,-4.0888,0.0,0.0,0.0,0.0,0.0,0.0,0.0,0.0,0.0,0.0,0.0,0.0,0.0,0.0,0.0,0.0,0.0,0.0,0.0,0.0,0.0,0.0,0.0,0.0,0.0,0.0,0.0,0.0,0.0,0.0,0.0,0.0,0.0,0.0,0.0,0.0,0.0,0.0,0.0,0.0,0.0,0.0,0.0,0.0,0.0,0.0,0.0,0.0,0.0,0.0,0.0,0.0,0.0,0.0,0.0,0.0,0.0,0.0,0.0,0.0,0.0,0.0,0.0,0.0,0.0,0.0,0.0,0.0,0.0,0.0,0.0,0.0,0.0,0.0,0.0,0.0,0.0,0.0,0.0,0.0,0.0,0.0,0.0,0.0,0.0,0.0,0.0,0.0,0.0,0.0,0.0,0.0,0.0,0.0,0.0,0.0,0.0,0.0,0.0,0.0,0.0,0.0,0.0,0.0,-4.1117,-4.0918,-4.0888,-4.0888,-4.0888,-4.0888,-4.0888,-4.0888,0.0,0.0,0.0,0.0,0.0,0.0,0.0,0.0,0.0,0.0,0.0,0.0,0.0,0.0,0.0,0.0,0.0,0.0,0.0,0.0,0.0,0.0,0.0,0.0,0.0,0.0,0.0,0.0,0.0,0.0,0.0,0.0,0.0,0.0,0.0,0.0,0.0,0.0,0.0,0.0,0.0,0.0,0.0,0.0,0.0,0.0,0.0,0.0,0.0,0.0,0.0,0.0,0.0,0.0,0.0,0.0,0.0,0.0,0.0,0.0,0.0,0.0,0.0,0.0,0.0,0.0,0.0,0.0,0.0,0.0,0.0,0.0,0.0,0.0,0.0,0.0,0.0,0.0,0.0,0.0,0.0,0.0,0.0,0.0,0.0,0.0,0.0,0.0,0.0,0.0,0.0,0.0,0.0,0.0,0.0,0.0,0.0,0.0,0.0,0.0,0.0,0.0,0.0,-4.118,-4.0995,-4.0935,-4.0888,-4.0888,-4.0888,-4.0888,-4.0888,-4.0888,-4.0888,0.0,0.0,0.0,0.0,0.0,0.0,0.0,0.0,0.0,0.0,0.0,0.0,0.0,0.0,0.0,0.0,0.0,0.0,0.0,0.0,0.0,0.0,0.0,0.0,0.0,0.0,0.0,0.0,0.0,0.0,0.0,0.0,0.0,0.0,0.0,0.0,0.0,0.0,0.0,0.0,0.0,0.0,0.0,0.0,0.0,0.0,0.0,0.0,0.0,0.0,0.0,0.0,0.0,0.0,0.0,0.0,0.0,0.0,0.0,0.0,0.0,0.0,0.0,0.0,0.0,0.0,0.0,0.0,0.0,0.0,0.0,0.0,0.0,0.0,0.0,0.0,0.0,0.0,0.0,0.0,0.0,0.0,0.0,0.0,0.0,0.0,0.0,0.0,0.0,0.0,0.0,0.0,0.0,0.0,0.0,0.0,0.0,0.0,0.0,0.0,0.0,0.0,-4.1041,-4.0888,-4.0888,-4.0888,-4.0888,-4.0888,-4.0888,-4.0888,-4.0888,-4.0888,0.0,0.0,0.0,0.0,0.0,0.0,0.0,0.0,0.0,0.0,0.0,0.0,0.0,0.0,0.0,0.0,0.0,0.0,0.0,0.0,0.0,0.0,0.0,0.0,0.0,0.0,0.0,0.0,0.0,0.0,0.0,0.0,0.0,0.0,0.0,0.0,0.0,0.0,0.0,0.0,0.0,0.0,0.0,0.0,0.0,0.0,0.0,0.0,0.0,0.0,0.0,0.0,0.0,0.0,0.0,0.0,0.0,0.0,0.0,0.0,0.0,0.0,0.0,0.0,0.0,0.0,0.0,0.0,0.0,0.0,0.0,0.0,0.0,0.0,0.0,0.0,0.0,0.0,0.0,0.0,0.0,0.0,0.0,0.0,0.0,0.0,0.0,0.0,0.0,0.0,0.0,0.0,0.0,0.0,0.0,0.0,0.0,0.0,0.0,0.0,0.0,0.0,-4.1198,-4.0888,-4.0888,-4.0888,-4.0888,-4.0888,-4.0888,-4.0888,-4.0888,-4.0888,0.0,0.0,0.0,0.0,0.0,0.0,0.0,0.0,0.0,0.0,0.0,0.0,0.0,0.0,0.0,0.0,0.0,0.0,0.0,0.0,0.0,0.0,0.0,0.0,0.0,0.0,0.0,0.0,0.0,0.0,0.0,0.0,0.0,0.0,0.0,0.0,0.0,0.0,0.0,0.0,0.0,0.0,0.0,0.0,0.0,0.0,0.0,0.0,0.0,0.0,0.0,0.0,0.0,0.0,0.0,0.0,0.0,0.0,0.0,0.0,0.0,0.0,0.0,0.0,0.0,0.0,0.0,0.0,0.0,0.0,0.0,0.0,0.0,0.0,0.0,0.0,0.0,0.0,0.0,0.0,0.0,0.0,0.0,0.0,0.0,0.0,0.0,0.0,0.0,0.0,0.0,0.0,0.0,0.0,0.0,0.0,0.0,0.0,0.0,0.0,0.0,0.0,-4.1198,-4.0888,-4.0888,-4.0888,-4.0888,-4.0888,-4.0888,-4.0888,-4.0888,0.0,0.0,0.0,0.0,0.0,0.0,0.0,0.0,0.0,0.0,0.0,0.0,0.0,0.0,0.0,0.0,0.0,0.0,0.0,0.0,0.0,0.0,0.0,0.0,0.0,0.0,0.0,0.0,0.0,0.0,0.0,0.0,0.0,0.0,0.0,0.0,0.0,0.0,0.0,0.0,0.0,0.0,0.0,0.0,0.0,0.0,0.0,0.0,0.0,0.0,0.0,0.0,0.0,0.0,0.0,0.0,0.0,0.0,0.0,0.0,0.0,0.0,0.0,0.0,0.0,0.0,0.0,0.0,0.0,0.0,0.0,0.0,0.0,0.0,0.0,0.0,0.0,0.0,0.0,0.0,0.0,0.0,0.0,0.0,0.0,0.0,0.0,0.0,0.0,0.0,0.0,0.0,0.0,0.0,0.0,0.0,0.0,0.0,0.0,0.0,0.0,0.0,-4.1498,-4.1152,-4.0888,-4.0888,-4.0888,-4.0888,-4.0888,-4.0888,-4.0888,-4.0888,0.0,0.0,0.0,0.0,0.0,0.0,0.0,0.0,0.0,0.0,0.0,0.0,0.0,0.0,0.0,0.0,0.0,0.0,0.0,0.0,0.0,0.0,0.0,0.0,0.0,0.0,0.0,0.0,0.0,0.0,0.0,0.0,0.0,0.0,0.0,0.0,0.0,0.0,0.0,0.0,0.0,0.0,0.0,0.0,0.0,0.0,0.0,0.0,0.0,0.0,0.0,0.0,0.0,0.0,0.0,0.0,0.0,0.0,0.0,0.0,0.0,0.0,0.0,0.0,0.0,0.0,0.0,0.0,0.0,0.0,0.0,0.0,0.0,0.0,0.0,0.0,0.0,0.0,0.0,0.0,0.0,0.0,0.0,0.0,0.0,0.0,0.0,0.0,0.0,0.0,0.0,0.0,0.0,0.0,0.0,0.0,0.0,0.0,0.0,0.0,0.0,0.0,-4.1255,-4.1059,-4.0888,-4.0888,-4.0888,-4.0888,-4.0888,-4.0888,-4.0888,0.0,0.0,0.0,0.0,0.0,0.0,0.0,0.0,0.0,0.0,0.0,0.0,0.0,0.0,0.0,0.0,0.0,0.0,0.0,0.0,0.0,0.0,0.0,0.0,0.0,0.0,0.0,0.0,0.0,0.0,0.0,0.0,0.0,0.0,0.0,0.0,0.0,0.0,0.0,0.0,0.0,0.0,0.0,0.0,0.0,0.0,0.0,0.0,0.0,0.0,0.0,0.0,0.0,0.0,0.0,0.0,0.0,0.0,0.0,0.0,0.0,0.0,0.0,0.0,0.0,0.0,0.0,0.0,0.0,0.0,0.0,0.0,0.0,0.0,0.0,0.0,0.0,0.0,0.0,0.0,0.0,0.0,0.0,0.0,0.0,0.0,0.0,0.0,0.0,0.0,0.0,0.0,0.0,0.0,0.0,0.0,0.0,0.0,0.0,0.0,0.0,0.0,0.0,-4.1453,-4.1152,-4.0888,-4.0888,-4.0888,-4.0888,-4.0888,-4.0888,-4.0888,-4.0888,0.0,0.0,0.0,0.0,0.0,0.0,0.0,0.0,0.0,0.0,0.0,0.0,0.0,0.0,0.0,0.0,0.0,0.0,0.0,0.0,0.0,0.0,0.0,0.0,0.0,0.0,0.0,0.0,0.0,0.0,0.0,0.0,0.0,0.0,0.0,0.0,0.0,0.0,0.0,0.0,0.0,0.0,0.0,0.0,0.0,0.0,0.0,0.0,0.0,0.0,0.0,0.0,0.0,0.0,0.0,0.0,0.0,0.0,0.0,0.0,0.0,0.0,0.0,0.0,0.0,0.0,0.0,0.0,0.0,0.0,0.0,0.0,0.0,0.0,0.0,0.0,0.0,0.0,0.0,0.0,0.0,0.0,0.0,0.0,0.0,0.0,0.0,0.0,0.0,0.0,0.0,0.0,0.0,0.0,0.0,0.0,0.0,0.0,0.0,0.0,0.0,0.0,-4.1335,-4.1059,-4.0888,-4.0888,-4.0888,-4.0888,-4.0888,-4.0888,-4.0888,-4.0888,0.0,0.0,0.0,0.0,0.0,0.0,0.0,0.0,0.0,0.0,0.0,0.0,0.0,0.0,0.0,0.0,0.0,0.0,0.0,0.0,0.0,0.0,0.0,0.0,0.0,0.0,0.0,0.0,0.0,0.0,0.0,0.0,0.0,0.0,0.0,0.0,0.0,0.0,0.0,0.0,0.0,0.0,0.0,0.0,0.0,0.0,0.0,0.0,0.0,0.0,0.0,0.0,0.0,0.0,0.0,0.0,0.0,0.0,0.0,0.0,0.0,0.0,0.0,0.0,0.0,0.0,0.0,0.0,0.0,0.0,0.0,0.0,0.0,0.0,0.0,0.0,0.0,0.0,0.0,0.0,0.0,0.0,0.0,0.0,0.0,0.0,0.0,0.0,0.0,0.0,0.0,0.0,0.0,0.0,0.0,0.0,0.0,0.0,0.0,0.0,0.0,0.0,-4.1086,-4.097,-4.0888,-4.0888,-4.0888,-4.0888,-4.0888,-4.0888,-4.0888,-4.0888,0.0,0.0,0.0,0.0,0.0,0.0,0.0,0.0,0.0,0.0,0.0,0.0,0.0,0.0,0.0,0.0,0.0,0.0,0.0,0.0,0.0,0.0,0.0,0.0,0.0,0.0,0.0,0.0,0.0,0.0,0.0,0.0,0.0,0.0,0.0,0.0,0.0,0.0,0.0,0.0,0.0,0.0,0.0,0.0,0.0,0.0,0.0,0.0,0.0,0.0,0.0,0.0,0.0,0.0,0.0,0.0,0.0,0.0,0.0,0.0,-4.6472,0.0,0.0,0.0,0.0,0.0,0.0,0.0,0.0,0.0,0.0,0.0,0.0,0.0,0.0,0.0,0.0,0.0,0.0,0.0,0.0,0.0,0.0,0.0,0.0,0.0,0.0,0.0,0.0,0.0,0.0,0.0,0.0,0.0,0.0,0.0,0.0,0.0,0.0,0.0,0.0,0.0,-4.2055,-4.1393,-4.0888,-4.0888,-4.0888,-4.0888,-4.0888,-4.0888,-4.0888,-4.0888,-4.0888,0.0,0.0,0.0,0.0,0.0,0.0,0.0,0.0,0.0,0.0,0.0,0.0,0.0,0.0,0.0,0.0,0.0,0.0,0.0,0.0,0.0,0.0,0.0,0.0,0.0,0.0,0.0,0.0,0.0,0.0,0.0,0.0,0.0,0.0,0.0,0.0,0.0,0.0,0.0,0.0,0.0,0.0,0.0,0.0,0.0,0.0,0.0,0.0,0.0,0.0,0.0,0.0,0.0,0.0,0.0,0.0,0.0,0.0,0.0,0.0,-4.7115,0.0,0.0,0.0,0.0,0.0,0.0,0.0,0.0,0.0,0.0,0.0,0.0,0.0,0.0,0.0,0.0,0.0,0.0,0.0,0.0,0.0,0.0,0.0,0.0,0.0,0.0,0.0,0.0,0.0,0.0,0.0,0.0,0.0,0.0,0.0,0.0,0.0,0.0,0.0,0.0,-4.2757,-4.1985,-4.1405,-4.1405,-4.1095,-4.0888,-4.0888,-4.0888,-4.0888,-4.0888,-4.0888,0.0,0.0,0.0,0.0,0.0,0.0,0.0,0.0,0.0,0.0,0.0,0.0,0.0,0.0,0.0,0.0,0.0,0.0,0.0,0.0,0.0,0.0,0.0,0.0,0.0,0.0,0.0,0.0,0.0,0.0,0.0,0.0,0.0,0.0,0.0,0.0,0.0,0.0,0.0,0.0,0.0,0.0,0.0,0.0,0.0,0.0,0.0,0.0,0.0,0.0,0.0,0.0,0.0,-4.7348,-4.7465,-4.759,-4.759,-4.7811,-4.8151,-4.8151,-4.8006,-4.7775,-4.8286,0.0,0.0,0.0,0.0,0.0,0.0,0.0,0.0,0.0,0.0,0.0,0.0,0.0,0.0,0.0,0.0,0.0,0.0,0.0,0.0,0.0,0.0,0.0,0.0,-4.5887,-4.5786,0.0,0.0,0.0,0.0,0.0,0.0,0.0,0.0,0.0,0.0,0.0,0.0,-4.3404,-4.2681,-4.2199,-4.2199,-4.1526,-4.1078,-4.1078,-4.0957,-4.0888,-4.0888,-4.0888,-4.0888,0.0,0.0,0.0,0.0,0.0,0.0,0.0,0.0,0.0,0.0,0.0,0.0,0.0,0.0,0.0,0.0,0.0,0.0,0.0,0.0,0.0,0.0,0.0,0.0,0.0,0.0,0.0,0.0,0.0,0.0,0.0,0.0,-4.3337,-4.3557,0.0,0.0,0.0,0.0,0.0,0.0,0.0,0.0,0.0,0.0,0.0,0.0,0.0,-4.7151,-4.6908,-4.7291,-4.785,-4.8555,-4.9031,-4.9596,-5.0291,-5.0291,-5.0332,-5.0373,-5.0373,0.0,-4.7674,-4.8286,0.0,0.0,0.0,0.0,0.0,0.0,0.0,0.0,0.0,0.0,0.0,0.0,0.0,0.0,0.0,0.0,0.0,0.0,0.0,0.0,0.0,0.0,-4.5459,-4.5528,-4.5476,-4.5459,0.0,-4.5854,-4.6186,-4.6186,-4.6186,0.0,0.0,0.0,0.0,0.0,0.0,0.0,-4.4181,-4.3475,-4.3059,-4.3059,-4.2302,-4.1836,-4.1836,-4.125,-4.0888,-4.0888,-4.0888,-4.0888,-4.0888,-4.0888,0.0,0.0,0.0,0.0,0.0,0.0,0.0,0.0,0.0,0.0,0.0,0.0,0.0,0.0,0.0,0.0,0.0,0.0,0.0,0.0,0.0,0.0,0.0,0.0,0.0,0.0,0.0,0.0,0.0,-4.4029,-4.4538,-4.4695,-4.4492,-4.4332,0.0,0.0,0.0,0.0,0.0,0.0,0.0,0.0,0.0,-4.7439,-4.8224,-4.8543,-4.84,-4.9063,-4.9565,-4.993,-5.0171,-5.0453,-5.0802,-5.0802,-5.0802,-5.0802,-5.0802,-5.0259,-4.9387,-4.9184,-4.8708,-4.8093,0.0,0.0,0.0,0.0,-4.842,-4.8401,-4.842,-4.842,0.0,-4.842,0.0,0.0,0.0,0.0,0.0,0.0,0.0,0.0,0.0,0.0,-4.5423,-4.5423,-4.5423,-4.5423,-4.5423,-4.5563,-4.5752,0.0,-4.5752,-4.5701,-4.5615,0.0,0.0,0.0,0.0,-4.4923,-4.4923,-4.4251,-4.3802,-4.3802,-4.3113,-4.2647,-4.2647,-4.194,-4.1509,-4.1509,-4.1112,-4.0888,-4.0888,-4.0888,-4.0888,0.0,0.0,0.0,0.0,0.0,0.0,0.0,0.0,0.0,0.0,0.0,0.0,0.0,0.0,0.0,0.0,0.0,0.0,0.0,0.0,0.0,0.0,0.0,0.0,0.0,0.0,0.0,0.0,-4.5475,-4.5833,-4.5957,-4.5611,-4.5462,0.0,0.0,0.0,0.0,0.0,0.0,-4.7178,-4.7662,-4.7982,-4.8084,-4.9267,-4.9903,-4.9903,-5.0508,-5.0894,-5.1114,-5.1114,-5.1206,-5.1408,-5.1408,-5.1408,-5.1408,-5.1408,-5.1298,-5.1041,-5.0233,-4.9517,-4.8948,-4.8948,-4.8948,-4.8912,-4.871,-4.8636,-4.86,-4.8379,-4.8306,-4.8306,-4.8306,0.0,-4.821,-4.7897,0.0,0.0,0.0,0.0,-4.5938,-4.5988,-4.5701,-4.5423,-4.5423,-4.5423,-4.5423,-4.5423,-4.5423,-4.5423,0.0,-4.5423,-4.5423,-4.5423,0.0,0.0,0.0,0.0,-4.5423,-4.5423,-4.4923,-4.4578,-4.4578,-4.3906,-4.3508,-4.3508,-4.2733,-4.2285,-4.2285,-4.1578,-4.1164,-4.1164,-4.0974,-4.0965,-4.1041,0.0,0.0,0.0,0.0,0.0,0.0,0.0,0.0,0.0,0.0,0.0,0.0,0.0,0.0,0.0,0.0,0.0,0.0,0.0,0.0,0.0,0.0,0.0,0.0,0.0,0.0,0.0,0.0,0.0,-4.7474,-4.7482,0.0,0.0,0.0,0.0,-4.7258,-4.7062,-4.7222,-4.7911,-4.846,-4.898,-4.946,-5.0325,-5.0747,-5.0747,-5.0784,-5.1187,-5.194,-5.194,-5.2344,-5.3096,-5.3096,-5.3096,-5.3096,-5.3096,-5.2656,-5.1867,-5.1077,-5.071,-5.0674,-5.0674,-5.0674,-5.0582,-4.9811,-4.9517,-4.9407,-4.86,-4.8306,-4.8306,-4.8306,-4.8306,-4.8306,-4.8267,-4.7955,0.0,0.0,-4.6537,-4.6087,-4.5563,-4.5423,-4.5423,-4.5423,-4.5423,-4.5423,-4.5423,-4.5423,-4.5423,0.0,-4.5423,-4.5423,-4.5423,0.0,-4.5423,-4.5423,-4.5423,-4.5423,-4.5423,-4.5389,-4.5354,-4.5354,-4.4682,-4.4216,-4.4216,-4.3594,-4.3162,-4.3162,-4.2371,-4.1923,-4.1923,-4.125,-4.1088,-4.1445,-4.149,0.0,0.0,0.0,0.0,0.0,0.0,0.0,0.0,0.0,0.0,0.0,0.0,0.0,0.0,0.0,0.0,0.0,0.0,0.0,0.0,0.0,0.0,0.0,0.0,0.0,0.0,0.0,0.0,-4.8153,-4.8093,0.0,-4.7378,-4.7591,-4.7692,-4.7524,-4.8265,-4.8798,-4.9014,-4.9728,-5.0226,-5.0362,-5.1151,-5.1573,-5.1573,-5.2087,-5.2491,-5.2766,-5.2766,-5.2931,-5.3206,-5.3206,-5.3206,-5.3206,-5.3206,-5.3041,-5.2747,-5.2472,-5.1738,-5.0802,-5.0802,-5.0802,-5.0765,-5.0472,-5.0362,-5.0325,-5.0013,-4.9921,-4.9921,-4.9921,-4.9921,-4.9811,-4.9279,-4.8798,-4.8412,-4.8592,-4.8065,-4.7482,-4.7784,-4.7625,-4.7317,-4.6944,-4.6906,-4.6906,-4.6906,-4.6906,-4.6906,-4.6906,-4.6096,-4.5423,-4.5423,-4.5423,-4.5423,-4.5423,-4.5423,-4.5423,-4.5423,-4.5423,-4.5423,-4.5423,-4.5182,-4.501,-4.501,-4.432,-4.3889,-4.3889,-4.3164,-4.275,-4.275,-4.2328,-4.2142,-4.2261,-4.2043,-4.2157,0.0,0.0,0.0,0.0,0.0,0.0,0.0,0.0,0.0,0.0,0.0,0.0,0.0,0.0,0.0,0.0,0.0,0.0,0.0,0.0,0.0,0.0,0.0,0.0,0.0,0.0,-4.8363,-4.8419,-4.8363,-4.8281,-4.8257,-4.8553,-4.8721,-4.8675,-4.9548,-5.0055,-4.9994,-5.0809,-5.125,-5.1206,-5.1995,-5.2399,-5.2399,-5.2931,-5.3206,-5.3206,-5.3206,-5.3206,-5.3206,-5.3206,-5.3206,-5.3206,-5.3206,-5.3206,-5.3206,-5.3206,-5.2582,-5.161,-5.161,-5.161,-5.1591,-5.1298,-5.1206,-5.1169,-5.0894,-5.0802,-5.0802,-5.0802,-5.0802,-5.071,-5.016,-4.9756,-4.9495,-4.9679,-4.9245,-4.8801,-4.8941,-4.8756,-4.8382,-4.781,-4.7717,-4.7717,-4.7717,-4.7717,-4.7717,-4.7717,-4.6889,-4.6199,-4.6199,-4.6199,-4.6199,-4.6199,-4.6199,-4.6199,-4.6199,-4.5975,-4.582,-4.582,-4.5579,-4.5423,-4.5423,-4.4958,-4.4665,-4.4665,-4.4143,-4.3727,-4.3594,-4.3425,-4.3182,-4.2935,-4.2731,-4.277,-4.3105,0.0,0.0,0.0,0.0,0.0,0.0,0.0,0.0,0.0,0.0,0.0,0.0,0.0,0.0,0.0,0.0,0.0,0.0,0.0,0.0,0.0,0.0,0.0,-4.8306,-4.8437,-4.8494,-4.8361,-4.8361,-4.871,-4.9536,-4.9627,-4.9958,-5.0747,-5.0839,-5.0839,-5.0839,-5.1628,-5.2068,-5.2068,-5.2858,-5.328,-5.328,-5.328,-5.328,-5.328,-5.328,-5.328,-5.328,-5.328,-5.328,-5.328,-5.3261,-5.3243,-5.3243,-5.3225,-5.3206,-5.3206,-5.3206,-5.3206,-5.3115,-5.2325,-5.2032,-5.1922,-5.1151,-5.0875,-5.0875,-5.0875,-5.0875,-5.0875,-5.0857,-5.0839,-5.0739,-5.021,-5.0043,-4.9821,-4.8876,-4.8607,-4.8487,-4.7914,-4.7838,-4.7855,-4.7855,-4.7838,-4.782,-4.782,-4.7803,-4.7769,-4.7717,-4.7717,-4.7717,-4.7717,-4.7717,0.0,-4.7717,-4.7096,-4.6648,-4.6648,-4.5941,-4.5458,-4.5458,-4.5388,-4.5423,-4.5423,-4.5172,-4.4851,-4.4405,-4.4551,-4.4239,-4.3393,-4.3505,-4.3552,-4.3552,0.0,0.0,0.0,0.0,0.0,0.0,0.0,0.0,0.0,0.0,0.0,0.0,0.0,0.0,0.0,0.0,0.0,0.0,0.0,0.0,0.0,0.0,-4.8306,-4.8306,-4.8895,-4.9281,-4.9242,-4.9756,-5.0215,-5.0453,-5.0472,-5.0563,-5.0784,-5.1397,-5.1709,-5.1665,-5.3033,-5.3787,-5.3739,-5.4509,-5.4932,-5.4932,-5.4932,-5.4932,-5.4932,-5.4932,-5.4932,-5.4932,-5.4932,-5.4932,-5.4913,-5.4326,-5.4069,-5.4014,-5.3445,-5.3206,-5.3206,-5.3206,-5.3206,-5.3188,-5.2968,-5.2876,-5.2839,-5.2637,-5.2546,-5.2546,-5.2546,-5.2546,-5.2435,-5.1848,-5.1665,-5.1665,-5.1504,-5.1444,-5.134,-5.0865,-5.1116,-5.1334,-5.0379,-5.058,-5.0976,-5.0976,-5.0562,-5.0183,-5.0183,-4.9735,-4.901,-4.7907,-4.7717,-4.7717,-4.7717,-4.7717,0.0,-4.7717,-4.7527,-4.7424,-4.7424,-4.6734,-4.6286,-4.6286,-4.5768,-4.5563,-4.5955,-4.5926,-4.595,-4.6171,-4.5978,-4.5667,-4.5182,-4.5224,-4.5241,0.0,0.0,0.0,0.0,0.0,0.0,0.0,0.0,0.0,0.0,0.0,0.0,0.0,0.0,0.0,0.0,0.0,0.0,0.0,0.0,0.0,0.0,-4.915,-4.8967,-4.9297,-4.9481,-4.9719,-5.005,-5.0508,-5.093,-5.1261,-5.1298,-5.1573,-5.227,-5.2794,-5.3198,-5.3482,-5.4448,-5.4963,-5.4895,-5.5354,-5.5592,-5.5592,-5.5592,-5.5592,-5.5592,-5.5592,-5.5592,-5.5592,-5.5592,-5.5592,0.0,-5.5097,-5.4895,-5.4858,-5.4399,-5.4216,0.0,0.0,0.0,0.0,0.0,-5.3206,-5.3206,-5.3206,-5.3206,-5.3206,-5.3206,-5.3445,-5.3628,-5.3151,-5.3243,-5.35,-5.35,-5.35,-5.3401,-5.3021,-5.3056,-5.2981,-5.2153,-5.2052,-5.2218,-5.2218,-5.1873,-5.158,-5.158,-5.1218,0.0,-4.9752,-4.9079,-4.8665,-4.8665,-4.8665,-4.8665,-4.8665,-4.839,-4.8183,-4.8183,-4.751,-4.7079,-4.7079,-4.6533,0.0,0.0,0.0,-4.6981,-4.7482,-4.6807,0.0,0.0,0.0,-4.5902,-4.5902,0.0,0.0,0.0,-4.4507,-4.4382,0.0,0.0,0.0,0.0,0.0,0.0,0.0,0.0,0.0,0.0,0.0,0.0,0.0,0.0,0.0,0.0,-4.9774,-5.0013,-5.082,-5.0306,-5.0123,-5.0857,-5.1022,-5.1353,-5.2068,-5.2215,-5.2858,-5.4289,-5.4473,-5.484,-5.5556,0.0,0.0,0.0,0.0,-5.5868,-5.5868,-5.5868,-5.5868,-5.5868,-5.5868,-5.5868,-5.5868,-5.5868,-5.5868,-5.5868,-5.5757,-5.5739,-5.5721,-5.5629,-5.5592,-5.5445,-5.4032,-5.3427,-5.3353,-5.3445,-5.3482,-5.3482,-5.3482,0.0,0.0,-5.3482,-5.3959,-5.4546,-5.4546,-5.5023,-5.5592,-5.5592,-5.5592,-5.5485,-5.4858,-5.4385,-5.3887,-5.3303,-5.2792,-5.2477,-5.252,-5.2468,-5.2339,-5.2382,-5.239,-5.2261,-5.2218,-5.1132,-5.0235,-5.0149,-5.0131,-5.0097,-5.0011,-4.9447,-4.9054,-4.9054,0.0,0.0,-4.7969,-4.7701,-4.7533,-4.7583,-4.7761,-4.7966,-4.8267,-4.7223,-4.6819,-4.7222,-4.6526,-4.6177,-4.6177,-4.6177,-4.6177,-4.6177,-4.5975,-4.5902,0.0,0.0,0.0,0.0,0.0,0.0,0.0,0.0,0.0,0.0,0.0,0.0,0.0,0.0,0.0,-5.1536,-5.0986,-5.0839,-5.1646,-5.1628,-5.1573,-5.1738,-5.2344,-5.2803,-5.2968,-5.3555,-5.4051,-5.4381,-5.4987,-5.5427,-5.5574,-5.6216,-5.6565,-5.6565,-5.7189,-5.7538,-5.7538,-5.7538,-5.7538,-5.7538,0.0,0.0,-5.7538,-5.7538,-5.7538,-5.7501,-5.6859,-5.6565,-5.6528,-5.5868,-5.5592,-5.5556,-5.5244,-5.473,-5.4252,-5.4895,-5.5133,-5.5133,-5.5133,-5.5133,-5.5133,-5.5133,-5.5225,-5.5354,-5.5354,-5.5464,0.0,-5.5592,-5.5592,-5.5377,-5.4331,-5.4455,-5.4614,-5.3599,-5.3677,-5.4171,-5.4668,-5.3914,-5.3333,-5.3707,-5.3317,-5.2741,-5.2261,-5.1977,-5.158,-5.0994,-5.0907,-5.0683,-5.008,-5.022,-5.043,-5.043,-5.0099,-4.9877,-4.9877,-4.9266,-4.9043,-4.946,-4.9294,-4.8943,-4.8343,-4.8064,-4.7991,-4.8086,-4.7921,-4.7847,-4.7847,-4.7847,-4.7847,-4.781,-4.6507,-4.5902,0.0,0.0,0.0,0.0,0.0,0.0,0.0,0.0,0.0,0.0,0.0,-5.2472,0.0,0.0,-5.1995,-5.1995,-5.1665,-5.1683,-5.2491,-5.2601,-5.2601,-5.2601,-5.3316,-5.3812,-5.3812,-5.4528,-5.517,-5.5574,-5.5978,-5.6381,-5.6767,-5.7171,-5.7409,-5.7409,-5.7795,-5.7997,-5.7997,-5.7997,-5.7997,-5.7997,-5.7997,-5.7997,-5.7997,-5.7997,-5.7997,-5.7978,-5.7574,-5.7409,-5.7373,-5.6969,-5.6547,-5.6235,-5.6638,-5.6051,-5.5042,-5.5445,-5.5592,-5.5592,-5.5592,-5.5592,-5.5592,-5.5592,-5.5868,-5.6198,-5.6198,-5.6473,-5.6785,-5.6785,-5.6785,-5.6676,-5.6085,-5.6028,-5.5901,-5.5036,-5.5121,-5.5343,-5.5,-5.4867,-5.4764,-5.4408,-5.4547,-5.4494,-5.391,-5.4069,-5.3782,-5.2317,-5.2085,-5.1922,-5.147,-5.1635,-5.1635,-5.1245,-5.1094,-5.0994,-5.0994,-5.0522,-5.0281,-5.0399,-5.0259,-5.0013,-4.9572,-4.9554,-4.9554,-4.9554,-4.915,-4.8948,-4.8948,-4.8508,-4.8526,-4.893,-4.8122,-4.7517,0.0,0.0,0.0,0.0,0.0,0.0,0.0,0.0,-5.2747,-5.1922,-5.2417,-5.2766,-5.2105,-5.2123,-5.2234,-5.2234,-5.2234,-5.2509,-5.3335,-5.3445,-5.35,-5.3665,-5.4106,-5.4454,-5.462,-5.5354,-5.6106,-5.6767,-5.695,-5.7317,-5.796,-5.7997,-5.7997,-5.7997,-5.7997,-5.7997,-5.7997,-5.7997,-5.7997,-5.7997,-5.7997,-5.7997,-5.7997,-5.7997,-5.7997,-5.7997,-5.7997,-5.7997,-5.7997,-5.7997,-5.7611,-5.7097,-5.7758,-5.7207,-5.6051,-5.6051,-5.6051,-5.6051,-5.6051,-5.6051,-5.6051,-5.6051,-5.6492,-5.7042,-5.7042,-5.7483,-5.7997,-5.7997,-5.7997,-5.7997,-5.7839,-5.7449,-5.6946,-5.6438,-5.6276,-5.6055,-5.5224,-5.5618,-5.5887,-5.5,-5.5601,-5.6111,-5.5502,-5.5999,-5.5776,-5.3826,-5.3503,-5.3386,-5.3082,-5.3003,-5.2731,-5.2054,-5.1956,-5.1915,-5.1915,-5.1718,-5.1449,-5.1037,-5.1041,-5.0967,-5.082,-5.0802,-5.0802,-5.0802,-5.016,-4.9811,-4.9811,-4.9132,-4.915,-4.9811,-4.9811,-4.9444,-4.8306,-4.8857,-4.9297,-4.8728,-5.0306,-5.1628,0.0,0.0,-5.1903,-5.1096,-5.1573,-5.2105,-5.2013,-5.2582,-5.3078,-5.3078,-5.3078,-5.3353,-5.4161,-5.4271,-5.4528,-5.5244,-5.4785,-5.4675,-5.539,-5.6198,-5.6712,-5.6804,-5.7464,-5.7905,-5.7997,-5.7997,-5.7997,-5.7997,-5.7997,-5.7997,-5.7997,-5.7997,-5.7997,-5.7997,-5.7997,-5.7997,-5.7997,-5.7997,-5.7997,-5.7997,-5.7997,-5.7997,-5.7997,-5.7997,-5.7941,-5.7868,-5.796,-5.7886,-5.7721,-5.7721,-5.7721,-5.7721,-5.7721,-5.7721,-5.7721,-5.7721,-5.7776,-5.7868,-5.7868,-5.7923,-5.7997,-5.7997,-5.7997,-5.7886,-5.7333,-5.7166,-5.6946,-5.6438,-5.6276,-5.6367,-5.6739,-5.6148,-5.5618,-5.5999,-5.6221,-5.6111,-5.5502,-5.6312,-5.6536,-5.5116,-5.4866,-5.4652,-5.3919,-5.3644,-5.3501,-5.3411,-5.318,-5.3017,-5.3017,-5.2969,-5.2669,-5.1903,-5.1867,-5.1555,-5.0839,-5.0802,-5.0802,-5.0802,-5.071,-5.0674,-5.0674,-5.0563,-5.0563,-5.0674,-5.0674,-5.0618,-4.8306,-4.893,-4.9609,-4.9738,-5.0894,-5.1811,-5.1132,-5.1885,-5.2472,-5.1665,-5.2142,-5.2711,-5.2711,-5.3371,-5.3904,0.0,-5.4289,-5.4711,-5.5042,-5.5097,-5.539,-5.6198,-5.5996,-5.5941,-5.6271,-5.7024,-5.7501,-5.7501,-5.7813,-5.7997,-5.7997,-5.7997,-5.7997,-5.7997,-5.7997,-5.7997,-5.7997,-5.7997,-5.7997,-5.7997,-5.7997,-5.7997,-5.7997,-5.7997,-5.7997,-5.7997,-5.7997,-5.7997,-5.7997,-5.7997,-5.7997,-5.7997,-5.7997,-5.7997,-5.7997,-5.7997,-5.7997,-5.7997,-5.7997,-5.7997,-5.7997,-5.7997,-5.7997,-5.7997,-5.7997,-5.7997,-5.7997,-5.7997,-5.7997,-5.7932,-5.766,-5.7613,-5.7498,-5.6912,-5.7015,-5.7184,-5.6757,-5.6809,-5.6809,-5.6384,-5.6809,-5.7083,-5.6474,-5.7065,-5.7437,-5.6879,-5.6508,-5.6118,-5.5704,-5.553,-5.5122,-5.419,-5.3536,-5.3206,-5.3206,-5.3206,-5.3078,-5.2729,-5.2711,-5.2546,-5.2215,-5.2215,-5.2215,-5.2215,-5.1738,-5.1499,-5.1499,-5.1041,-5.1041,-5.1499,-5.1499,-5.1756,-4.86,-4.9114,-4.9774,-5.06,-5.1389,-5.1995,-5.1995,-5.2619,-5.3041,-5.2454,-5.2968,-5.3537,-5.3537,-5.4197,-5.473,-5.473,-5.5207,-5.5666,-5.5886,-5.5923,-5.6235,-5.7042,-5.7134,-5.7134,-5.7134,-5.7666,-5.7997,-5.7997,-5.7997,-5.7997,-5.7997,-5.7997,-5.7997,-5.7997,-5.7997,-5.7997,-5.7997,-5.7997,-5.7997,-5.7997,-5.7997,-5.7997,-5.7997,-5.7997,-5.7997,-5.7997,-5.7997,-5.7997,-5.7997,-5.7997,-5.7997,-5.7997,-5.7997,-5.7997,-5.7997,-5.7997,-5.7997,-5.7997,-5.7997,-5.7997,-5.7997,-5.7997,-5.7997,-5.7997,-5.7997,-5.7997,-5.7997,-5.7997,-5.7997,-5.7997,-5.7997,-5.7997,-5.7886,-5.7449,-5.766,-5.7774,-5.693,-5.7302,-5.7498,-5.6704,-5.7184,-5.7613,-5.7166,-5.7613,-5.7997,-5.7997,-5.7613,-5.7298,-5.7162,-5.695,-5.6271,-5.4876,-5.4014,-5.3537,-5.3537,-5.3335,-5.3206,-5.3206,-5.3206,-5.3206,-5.3206,-5.3206,-5.3206,-5.3206,-5.2637,-5.2325,-5.2325,-5.1756,-5.1756,-5.2325,-5.2325,-5.2637,-4.9315,-4.9554,-4.9774,-5.06,-5.1389,-5.1995,-5.1995,-5.2619,-5.3206,-5.3188,-5.3812,-5.4363,-5.4363,-5.5023,-5.5556,-5.5556,-5.5574,-5.5868,-5.6657,-5.6767,-5.706,-5.7868,-5.796,-5.796,0.0,-5.7997,-5.7997,-5.7997,-5.7997,-5.7997,-5.7997,-5.7997,-5.7997,-5.7997,-5.7997,-5.7997,-5.7997,-5.7997,-5.7997,-5.7997,-5.7997,-5.7997,-5.7997,-5.7997,-5.7997,-5.7997,-5.7997,-5.7997,-5.7997,-5.7997,-5.7997,-5.7997,-5.7997,-5.7997,-5.7997,-5.7997,-5.7997,-5.7997,-5.7997,-5.7997,-5.7997,-5.7997,-5.7997,-5.7997,-5.7997,-5.7997,-5.7997,-5.7997,-5.7997,-5.7997,-5.7997,-5.7997,-5.7997,-5.7997,-5.7997,-5.7997,-5.795,-5.7498,-5.7116,-5.7065,-5.7116,-5.7116,-5.7116,-5.7613,-5.7997,-5.7997,-5.7997,-5.7978,-5.796,-5.7281,-5.6492,-5.5647,-5.484,-5.4363,-5.4363,-5.3665,-5.3206,-5.3206,-5.3206,-5.3206,-5.3206,-5.3206,-5.3206,-5.3206,-5.3188,-5.317,-5.317,-5.3151,-5.3151,-5.317,-5.317,-5.3188,-4.9352,-4.9976,-5.0582,-5.1389,-5.2197,-5.2803,-5.2803,-5.3023,-5.3206,-5.3206,-5.3427,-5.361,-5.361,-5.4693,-5.5592,-5.5592,-5.6492,-5.7281,-5.7556,-5.7593,-5.7703,-5.796,-5.7997,0.0,0.0,0.0,0.0,-5.7997,-5.7997,-5.7997,-5.7997,-5.7997,-5.7997,-5.7997,-5.7997,-5.7997,-5.7997,-5.7997,-5.7997,-5.7997,-5.7997,-5.7997,-5.7997,-5.7997,-5.7997,-5.7997,-5.7997,-5.7997,-5.7997,-5.7997,-5.7997,-5.7997,-5.7997,-5.7997,-5.7997,-5.7997,-5.7997,-5.7997,-5.7997,-5.7997,-5.7997,-5.7997,-5.7997,-5.7997,-5.7997,-5.7997,-5.7997,-5.7997,-5.7997,-5.7997,-5.7997,-5.7997,-5.7997,-5.7997,-5.7997,-5.7997,-5.7997,-5.7821,-5.7726,-5.7726,-5.7726,-5.7726,-5.7726,-5.7886,-5.7997,-5.7997,-5.7997,-5.7997,-5.7997,-5.7299,-5.6712,-5.6436,-5.5666,-5.4968,-5.4454,-5.4161,-5.3775,-5.3243,-5.3206,-5.3206,-5.3206,-5.3206,-5.3206,-5.3206,-5.3206,-5.3206,-5.3206,-5.3206,-5.3206,-5.3206,-5.3206,-5.3206,-4.9701,-5.0398,-5.1059,-5.216,-5.2821,-5.3206,-5.3206,-5.3206,-5.3206,-5.3206,-5.3445,-5.3628,-5.3628,-5.4711,-5.5684,-5.5978,-5.6895,-5.7666,-5.796,-5.7997,-5.7997,-5.7997,-5.7997,-5.7997,0.0,0.0,0.0,-5.7997,-5.7997,-5.7997,-5.7997,-5.7997,-5.7997,-5.7997,-5.7997,-5.7997,-5.7997,-5.7997,-5.7997,-5.7997,-5.7997,-5.7997,-5.7997,-5.7997,-5.7997,-5.7997,-5.7997,-5.7997,-5.7997,-5.7997,-5.7997,-5.7997,-5.7997,-5.7997,-5.7997,-5.7997,-5.7997,-5.7997,-5.7997,-5.7997,-5.7997,-5.7997,-5.7997,-5.7997,-5.7997,-5.7997,-5.7997,-5.7997,-5.7997,-5.7997,-5.7997,-5.7997,-5.7997,-5.7997,-5.7997,-5.7997,-5.7997,-5.7997,-5.7997,-5.7997,-5.7997,-5.7997,-5.7997,-5.7997,-5.7997,-5.7997,-5.7997,-5.7997,-5.7997,-5.7556,-5.7226,-5.7226,-5.651,-5.5812,-5.5299,-5.473,-5.4179,-5.3665,-5.3371,-5.3206,-5.3206,-5.3206,-5.3206,-5.3206,-5.3206,-5.3206,-5.3206,-5.3206,-5.3206,-5.3206,-5.3206,-5.3206,-5.0343,-5.0802,-5.1187,-5.2803,-5.3206,-5.3206,-5.3206,-5.3206,-5.3206,-5.3206,-5.3812,-5.4344,0.0,0.0,-5.5776,-5.6547,-5.6767,-5.7079,-5.7831,-5.796,-5.7997,0.0,0.0,0.0,0.0,0.0,0.0,-5.7997,0.0,-5.7997,-5.7997,-5.7997,-5.7997,-5.7997,-5.7997,-5.7997,-5.7997,-5.7997,-5.7997,-5.7997,-5.7997,-5.7997,-5.7997,-5.7997,-5.7997,-5.7997,-5.7997,-5.7997,-5.7997,-5.7997,-5.7997,-5.7997,-5.7997,-5.7997,-5.7997,-5.7997,-5.7997,-5.7997,-5.7997,-5.7997,-5.7997,-5.7997,-5.7997,-5.7997,-5.7997,-5.7997,-5.7997,-5.7997,-5.7997,-5.7997,-5.7997,-5.7997,-5.7997,-5.7997,-5.7997,-5.7997,-5.7997,-5.7997,-5.7997,-5.7997,-5.7997,-5.7997,-5.7997,-5.7997,-5.7997,-5.7997,-5.7997,-5.7997,-5.7997,-5.7997,-5.7997,-5.7997,-5.7317,-5.684,-5.6804,-5.5409,-5.4491,-5.4418,-5.3683,-5.3243,-5.3206,-5.3206,-5.3206,-5.3206,-5.3206,-5.3206,-5.3206,-5.3206,-5.3206,-5.3206,-5.3206,-5.3206,-5.0343,-5.0802,-5.1187,-5.2803,-5.3206,-5.3206,-5.3206,-5.3206,-5.3206,-5.3206,-5.3371,-5.3518,0.0,0.0,0.0,-5.4987,-5.6033,0.0,-5.7079,-5.7611,0.0,-5.7997,0.0,-5.7997,-5.7997,-5.7997,0.0,0.0,-5.7997,-5.7997,-5.7997,-5.7997,-5.7997,-5.7997,-5.7997,-5.7997,-5.7997,-5.7997,-5.7997,-5.7997,-5.7997,-5.7997,-5.7997,-5.7997,-5.7997,-5.7997,-5.7997,-5.7997,-5.7997,-5.7997,-5.7997,-5.7997,-5.7997,-5.7997,-5.7997,-5.7997,-5.7997,-5.7997,-5.7997,-5.7997,-5.7997,-5.7997,-5.7997,-5.7997,-5.7997,-5.7997,-5.7997,-5.7997,-5.7997,-5.7997,-5.7997,-5.7997,-5.7997,-5.7997,-5.7997,-5.7997,-5.7997,-5.7997,-5.7997,-5.7997,-5.7997,-5.7997,-5.7997,-5.7997,-5.7997,-5.7997,-5.7997,-5.7997,-5.7997,-5.7997,-5.7997,-5.7997,-5.7813,-5.7446,-5.6859,-5.6436,-5.5684,-5.4473,-5.4216,-5.383,-5.3225,-5.3206,-5.3206,-5.3206,-5.3206,-5.3206,-5.3206,-5.3206,-5.3206,-5.3206,-5.3206,-5.3206,-5.0343,-5.0802,-5.1187,-5.2803,-5.3206,-5.3206,-5.3206,-5.3206,-5.3206,-5.3206,-5.3206,-5.3206,-5.3206,-5.3573,0.0,0.0,0.0,0.0,-5.6712,-5.7189,-5.7593,0.0,-5.7997,0.0,-5.7997,-5.7997,-5.7997,0.0,-5.7997,-5.7997,-5.7997,-5.7997,-5.7997,-5.7997,-5.7997,-5.7997,-5.7997,-5.7997,-5.7997,-5.7997,-5.7997,-5.7997,-5.7997,-5.7997,-5.7997,-5.7997,0.0,-5.7997,-5.7997,-5.7997,-5.7997,-5.7997,-5.7997,-5.7997,-5.7997,-5.7997,-5.7997,-5.7997,-5.7997,-5.7997,-5.7997,-5.7997,-5.7997,-5.7997,-5.7997,-5.7997,-5.7997,-5.7997,-5.7997,-5.7997,-5.7997,-5.7997,-5.7997,-5.7997,-5.7997,-5.7997,-5.7997,-5.7997,-5.7997,-5.7997,-5.7997,-5.7997,-5.7997,-5.7997,-5.7997,-5.7997,-5.7997,-5.7997,-5.7997,-5.7997,-5.7997,-5.7997,-5.7997,-5.7813,-5.7373,-5.7005,-5.6418,-5.5519,-5.4785,-5.4197,-5.3757,-5.339,-5.3206,-5.3206,-5.3206,-5.3206,-5.3206,-5.3206,-5.3206,-5.3206,-5.3206,-5.3206,-5.0343,-5.0802,-5.1187,-5.2803,-5.3206,-5.3206,-5.3206,-5.3206,-5.3206,-5.3206,-5.3206,-5.3206,-5.3206,-5.3206,-5.3445,-5.4124,0.0,-5.4932,-5.6436,-5.673,-5.7097,-5.7905,-5.7997,-5.7997,-5.7997,-5.7997,-5.7997,-5.7997,-5.7997,-5.7997,-5.7997,-5.7997,-5.7997,-5.7997,-5.7997,-5.7997,-5.7997,-5.7997,-5.7997,-5.7997,-5.7997,-5.7997,-5.7997,-5.7997,-5.7997,-5.7997,-5.7997,0.0,-5.7997,-5.7997,-5.7997,-5.7997,-5.7997,-5.7997,-5.7997,-5.7997,-5.7997,-5.7997,-5.7997,-5.7997,-5.7997,-5.7997,-5.7997,-5.7997,-5.7997,-5.7997,-5.7997,-5.7997,-5.7997,-5.7997,-5.7997,-5.7997,-5.7997,-5.7997,-5.7997,-5.7997,-5.7997,-5.7997,-5.7997,-5.7997,-5.7997,-5.7997,-5.7997,-5.7997,-5.7997,-5.7997,-5.7997,-5.7997,-5.7997,-5.7997,-5.7997,-5.7997,-5.7997,-5.7997,-5.7997,-5.7373,-5.6914,-5.6822,-5.55,-5.462,-5.4418,-5.3739,-5.3316,-5.3206,-5.3206,-5.3206,-5.3206,-5.3206,-5.3206,-5.3206,-5.3206,-5.3206,-5.0343,-5.0802,-5.1187,-5.2803,-5.3206,-5.3206,-5.3206,-5.3206,0.0,0.0,-5.3206,-5.3206,-5.3206,-5.3206,-5.3261,-5.339,-5.3977,-5.473,-5.5666,-5.6381,-5.7097,0.0,-5.7997,-5.7997,-5.7997,-5.7997,0.0,0.0,0.0,-5.7997,-5.7997,-5.7997,-5.7997,-5.7997,-5.7997,-5.7997,-5.7997,-5.7997,-5.7997,-5.7997,-5.7997,-5.7997,-5.7997,-5.7997,-5.7997,-5.7997,-5.7997,0.0,-5.7997,-5.7997,-5.7997,-5.7997,-5.7997,-5.7997,-5.7997,-5.7997,-5.7997,-5.7997,-5.7997,-5.7997,-5.7997,-5.7997,-5.7997,-5.7997,-5.7997,-5.7997,-5.7997,-5.7997,-5.7997,-5.7997,-5.7997,-5.7997,-5.7997,-5.7997,-5.7997,-5.7997,-5.7997,-5.7997,-5.7997,-5.7997,-5.7997,-5.7997,-5.7997,-5.7997,-5.7997,-5.7997,-5.7997,-5.7997,-5.7997,-5.7997,-5.7997,-5.7997,-5.7997,-5.7997,-5.7997,-5.7868,-5.7519,-5.684,-5.6547,-5.5794,-5.4454,-5.4271,-5.3885,-5.3225,-5.3206,-5.3206,-5.3206,-5.3206,-5.3206,-5.3206,-5.3206,-5.3206,-4.9829,-5.0472,-5.1096,-5.2289,-5.2894,-5.3206,-5.3206,0.0,0.0,0.0,-5.3206,-5.3206,-5.3206,-5.3206,0.0,-5.3206,-5.3537,-5.4069,-5.4858,-5.5666,0.0,-5.7281,-5.7758,-5.7997,0.0,-5.7997,0.0,0.0,0.0,-5.7997,-5.7997,-5.7997,-5.7997,-5.7997,-5.7997,-5.7997,-5.7997,-5.7997,-5.7997,-5.7997,-5.7997,-5.7997,-5.7997,-5.7997,-5.7997,-5.7997,-5.7997,0.0,-5.7997,-5.7997,-5.7997,-5.7997,-5.7997,-5.7997,-5.7997,-5.7997,-5.7997,-5.7997,-5.7997,-5.7997,-5.7997,-5.7997,-5.7997,-5.7997,-5.7997,-5.7997,-5.7997,-5.7997,-5.7997,-5.7997,-5.7997,-5.7997,-5.7997,-5.7997,-5.7997,-5.7997,-5.7997,-5.7997,-5.7997,-5.7997,-5.7997,-5.7997,-5.7997,-5.7997,-5.7997,-5.7997,-5.7997,-5.7997,-5.7997,-5.7997,-5.7997,-5.7997,-5.7997,-5.7997,-5.7997,-5.7997,-5.7831,-5.7446,-5.7042,-5.6455,-5.5684,-5.5244,-5.4638,-5.3849,-5.383,-5.3628,-5.3206,-5.3206,-5.3206,-5.3206,-5.3206,-5.3206,-4.9352,-5.005,-5.0729,-5.1536,-5.2215,-5.2692,-5.2692,-5.2692,0.0,-5.2692,-5.2821,-5.2949,-5.2949,-5.3096,-5.3206,0.0,-5.3206,-5.3482,-5.4289,-5.4932,-5.5629,0.0,-5.7097,0.0,-5.7483,-5.7483,0.0,0.0,0.0,0.0,-5.7997,-5.7997,-5.7997,-5.7997,-5.7997,-5.7997,-5.7997,-5.7997,-5.7997,-5.7997,-5.7997,-5.7997,-5.7997,-5.7997,-5.7997,-5.7997,-5.7997,0.0,0.0,-5.7997,-5.7997,-5.7997,-5.7997,-5.7997,-5.7997,-5.7997,-5.7997,-5.7997,-5.7997,-5.7997,-5.7997,-5.7997,-5.7997,-5.7997,-5.7997,-5.7997,-5.7997,-5.7997,-5.7997,-5.7997,-5.7997,-5.7997,-5.7997,-5.7997,-5.7997,-5.7997,-5.7997,-5.7997,-5.7997,-5.7997,-5.7997,-5.7997,-5.7997,-5.7997,-5.7997,-5.7997,-5.7997,-5.7997,-5.7997,-5.7997,-5.7997,-5.7997,-5.7997,-5.7997,-5.7997,-5.7997,-5.7997,-5.7997,-5.7409,-5.6987,-5.6822,-5.6198,-5.5464,-5.4675,-5.4656,-5.4252,-5.3463,-5.3463,-5.339,-5.3206,-5.3206,-5.3298,-4.9352,-4.9627,-4.9884,-5.071,-5.0967,-5.1022,-5.1022,0.0,-5.1022,-5.1022,-5.1591,-5.2105,-5.2105,-5.2711,-5.3206,-5.3206,0.0,-5.3482,-5.4289,-5.4454,-5.4803,-5.5592,0.0,0.0,-5.5812,0.0,0.0,0.0,0.0,0.0,-5.796,-5.7997,-5.7997,-5.7997,-5.7997,-5.7997,-5.7997,-5.7997,-5.7997,-5.7997,-5.7997,-5.7997,-5.7997,-5.7997,-5.7997,-5.7997,-5.7997,0.0,0.0,-5.7997,-5.7997,-5.7997,-5.7997,-5.7997,-5.7997,-5.7997,-5.7997,-5.7997,-5.7997,-5.7997,-5.7997,-5.7997,-5.7997,-5.7997,-5.7997,-5.7997,-5.7997,-5.7997,-5.7997,-5.7997,-5.7997,-5.7997,-5.7997,-5.7997,-5.7997,-5.7997,-5.7997,-5.7997,-5.7997,-5.7997,-5.7997,-5.7997,-5.7997,-5.7997,-5.7997,-5.7997,-5.7997,-5.7997,-5.7997,-5.7997,-5.7997,-5.7997,-5.7997,-5.7997,-5.7997,-5.7997,-5.7997,-5.7997,-5.7923,-5.7556,-5.684,-5.673,-5.6308,-5.55,-5.5482,-5.5078,-5.4289,-5.4289,-5.3922,-5.3206,-5.3206,-5.3592,-4.8728,-4.9226,-4.9724,-5.0034,-5.0457,-5.0864,-5.0802,0.0,-5.0802,-5.0802,-5.1041,-5.1426,-5.1903,-5.2252,-5.2637,0.0,0.0,0.0,-5.3628,-5.4087,-5.4528,-5.484,-5.5299,0.0,0.0,0.0,0.0,0.0,0.0,0.0,-5.7262,-5.774,-5.7997,-5.7997,-5.7997,-5.7997,-5.7997,-5.7997,-5.7997,-5.7997,-5.7997,-5.7997,-5.7997,-5.7997,-5.7997,-5.7997,-5.7997,0.0,0.0,-5.7997,-5.7997,-5.7997,-5.7997,-5.7997,-5.7997,-5.7997,-5.7997,-5.7997,-5.7997,-5.7997,-5.7997,-5.7997,-5.7997,-5.7997,-5.7997,-5.7997,-5.7997,-5.7997,-5.7997,-5.7997,-5.7997,-5.7997,-5.7997,-5.7997,-5.7997,-5.7997,-5.7997,-5.7997,-5.7997,-5.7997,-5.7997,-5.7997,-5.7997,-5.7997,-5.7997,-5.7997,-5.7997,-5.7997,-5.7997,-5.7997,-5.7997,-5.7997,-5.7997,-5.7997,-5.7997,-5.7997,-5.7997,-5.7997,-5.7997,-5.785,-5.7538,-5.7519,-5.7134,-5.6345,-5.6326,-5.5923,-5.5115,-5.5115,-5.495,-5.4638,-5.4638,-5.4821,-4.8363,-4.8823,-4.9303,-4.9301,-4.9706,-5.0129,0.0,0.0,-5.0068,-5.0068,-5.027,-5.0618,-5.1187,-5.1665,-5.2179,0.0,0.0,-5.3206,-5.3206,-5.3702,-5.4051,0.0,0.0,0.0,0.0,0.0,0.0,0.0,0.0,0.0,-5.6785,-5.7336,-5.7758,-5.7997,-5.7997,-5.7997,-5.7997,-5.7997,-5.7997,-5.7997,-5.7997,-5.7997,-5.7997,-5.7997,-5.7997,-5.7997,-5.7997,0.0,0.0,-5.7997,-5.7997,-5.7997,-5.7997,-5.7997,-5.7997,-5.7997,-5.7997,-5.7997,-5.7997,-5.7997,-5.7997,-5.7997,-5.7997,-5.7997,-5.7997,-5.7997,-5.7997,-5.7997,-5.7997,-5.7997,-5.7997,-5.7997,-5.7997,-5.7997,-5.7997,-5.7997,-5.7997,-5.7997,-5.7997,-5.7997,-5.7997,-5.7997,-5.7997,-5.7997,-5.7997,-5.7997,-5.7997,-5.7997,-5.7997,-5.7997,-5.7997,-5.7997,-5.7997,-5.7997,-5.7997,-5.7997,-5.7997,-5.7997,-5.7997,-5.7997,-5.7997,-5.7997,-5.7721,-5.7171,-5.7152,-5.6767,-5.5941,-5.5941,-5.5831,-5.5592,-5.5592,-5.5721,-4.8457,-4.8419,-4.8324,-4.8475,-4.8419,-4.8381,0.0,0.0,-4.8343,-4.8343,-4.9003,-4.9609,-4.9609,-5.0912,-5.1995,-5.1995,0.0,0.0,-5.3206,-5.3225,0.0,0.0,0.0,0.0,0.0,0.0,0.0,0.0,0.0,0.0,-5.6712,-5.6822,-5.7189,-5.796,-5.7997,-5.7997,-5.7997,-5.7997,-5.7997,-5.7997,-5.7997,-5.7997,-5.7997,-5.7997,-5.7997,0.0,0.0,0.0,0.0,-5.7997,-5.7997,-5.7997,-5.7997,-5.7997,-5.7997,-5.7997,-5.7997,-5.7997,-5.7997,-5.7997,-5.7997,-5.7997,-5.7997,-5.7997,-5.7997,-5.7997,-5.7997,-5.7997,-5.7997,-5.7997,-5.7997,-5.7997,-5.7997,-5.7997,-5.7997,-5.7997,-5.7997,-5.7997,-5.7997,-5.7997,-5.7997,-5.7997,-5.7997,-5.7997,-5.7997,-5.7997,-5.7997,-5.7997,-5.7997,-5.7997,-5.7997,-5.7997,-5.7997,-5.7997,-5.7997,-5.7997,-5.7997,-5.7997,-5.7997,-5.7997,-5.7997,-5.7997,-5.7997,-5.7997,-5.7997,-5.7593,-5.6804,-5.6804,-5.6381,-5.5592,-5.5592,-5.6033,-4.8363,-4.842,-4.8476,-4.8401,-4.8401,-4.8401,-4.8363,0.0,-4.8306,-4.8306,-4.8526,-4.8893,-4.9481,-5.0453,-5.1353,-5.1903,-5.2674,0.0,0.0,0.0,0.0,0.0,0.0,0.0,0.0,0.0,0.0,0.0,0.0,0.0,-5.5133,-5.5684,-5.6602,-5.796,-5.7997,-5.7997,-5.7997,-5.7997,-5.7997,-5.7997,-5.7997,-5.7997,-5.7997,-5.7997,-5.7997,0.0,0.0,0.0,0.0,-5.7997,-5.7997,-5.7997,-5.7997,-5.7774,-5.7382,-5.7382,-5.7382,-5.7382,-5.7382,-5.766,-5.7997,-5.7997,-5.7997,-5.7997,-5.7997,-5.7997,-5.7997,-5.7997,-5.7997,-5.7997,-5.7997,-5.7997,-5.7997,-5.7997,-5.7997,-5.7997,-5.7997,-5.7997,-5.7997,-5.7997,-5.7997,-5.7997,-5.7997,-5.7997,-5.7997,-5.7997,-5.7997,-5.7997,-5.7997,-5.7997,-5.7997,-5.7997,-5.7997,-5.7997,-5.7997,-5.7997,-5.7997,-5.7997,-5.7997,-5.7997,-5.7997,-5.7997,-5.7997,-5.7997,-5.7997,-5.7868,-5.7611,-5.7611,-5.7483,-5.7244,-5.7244,-5.7373,0.0,-4.8476,-4.8532,-4.8401,-4.8401,0.0,0.0,-4.8363,-4.8306,-4.8306,-4.8306,-4.8471,-4.9003,-5.0031,-5.0967,-5.1463,-5.2491,0.0,0.0,0.0,0.0,0.0,0.0,0.0,0.0,0.0,0.0,0.0,0.0,0.0,-5.4381,-5.4876,-5.5739,-5.7042,-5.7391,-5.7685,-5.7997,-5.7997,-5.7997,-5.7997,-5.7997,-5.7997,-5.7997,-5.7685,-5.7556,0.0,0.0,0.0,0.0,-5.7533,-5.7565,-5.7351,-5.7351,-5.7134,-5.6809,-5.6809,-5.6809,-5.6861,-5.7015,-5.7333,-5.7726,-5.7932,-5.7997,-5.7997,-5.7997,-5.7997,-5.7997,-5.7997,-5.7997,-5.7997,-5.7997,-5.7997,-5.7997,-5.7997,-5.7997,-5.7997,-5.7997,-5.7997,-5.7997,-5.7997,-5.7997,-5.7997,-5.7997,-5.7997,-5.7997,-5.7997,-5.7997,-5.7997,-5.7997,-5.7997,-5.7997,-5.7997,-5.7997,-5.7997,-5.7997,-5.7997,-5.7997,-5.7997,-5.7997,-5.7997,-5.7997,-5.7997,-5.7997,-5.7997,-5.7997,-5.7997,-5.7997,-5.7997,-5.7997,-5.7997,-5.7997,-5.7997,0.0,-4.8513,-4.8513,-4.8513,-4.8401,-4.8344,-4.8457,-4.8401,0.0,-4.8306,-4.8306,-4.8324,-4.8379,-4.9719,-5.082,-5.0875,0.0,0.0,0.0,0.0,0.0,0.0,0.0,0.0,0.0,0.0,0.0,0.0,0.0,0.0,-5.4166,-5.4202,-5.4569,-5.5375,-5.6145,-5.6914,-5.7813,-5.7831,-5.7831,-5.7831,-5.7831,-5.7831,-5.7749,-5.7015,-5.6621,0.0,0.0,0.0,0.0,-5.6667,-5.6703,-5.6276,-5.6276,-5.6276,-5.6221,-5.6221,-5.6221,-5.633,-5.6791,-5.6997,-5.7216,-5.7774,-5.7997,-5.7997,-5.7997,-5.7997,-5.7997,-5.7997,-5.7997,-5.7997,-5.7997,-5.7997,-5.7997,-5.7997,-5.7997,-5.7997,-5.7997,-5.7997,-5.7997,-5.7997,-5.7997,-5.7997,-5.7997,-5.7997,-5.7997,-5.7997,-5.7997,-5.7997,-5.7997,-5.7997,-5.7997,-5.7997,-5.7997,-5.7997,-5.7997,-5.7997,-5.7997,-5.7997,-5.7997,-5.7997,-5.7997,-5.7997,-5.7997,-5.7997,-5.7997,-5.7997,-5.7997,-5.7997,-5.7997,-5.7997,-5.7997,-5.7997,-4.8513,0.0,-4.8475,-4.8363,-4.8306,-4.8306,0.0,0.0,-4.8306,-4.8306,-4.8306,-4.8508,-4.9169,-5.0123,-5.1004,-5.161,0.0,0.0,0.0,0.0,0.0,0.0,0.0,0.0,0.0,0.0,0.0,0.0,0.0,-5.2498,-5.2282,-5.2282,-5.2641,-5.3414,-5.363,-5.4508,-5.6143,-5.6143,-5.6143,-5.6143,-5.6143,-5.5944,-5.5564,-5.5382,-5.5033,0.0,0.0,0.0,-5.5274,-5.5471,-5.5866,-5.6276,-5.6276,-5.5999,-5.5618,-5.5618,-5.5618,-5.5618,-5.5773,-5.6349,-5.7216,-5.7774,-5.7997,-5.7997,-5.7997,-5.7997,-5.7997,-5.7997,-5.7997,-5.7997,-5.7997,-5.7997,-5.7997,-5.7997,-5.7997,-5.7997,-5.7997,-5.7997,-5.7997,-5.7997,-5.7997,-5.7997,-5.7997,-5.7997,-5.7997,-5.7997,-5.7997,-5.7997,-5.7997,-5.7997,-5.7997,-5.7997,-5.7997,-5.7997,-5.7997,-5.7997,-5.7997,-5.7997,-5.7997,-5.7997,-5.7997,-5.7997,-5.7997,-5.7997,-5.7997,-5.7997,-5.7997,-5.7997,-5.7997,-5.7997,-5.7997,-5.7997,-4.7955,-4.8229,-4.8457,-4.8344,-4.8306,-4.8306,-4.8306,0.0,0.0,0.0,0.0,0.0,0.0,0.0,0.0,0.0,-5.2674,0.0,0.0,0.0,0.0,0.0,0.0,0.0,0.0,0.0,0.0,0.0,0.0,-5.1915,-5.1619,-5.1601,-5.1797,-5.2225,-5.2225,-5.323,-5.5204,-5.5222,-5.5222,-5.5222,-5.5222,-5.4887,-5.4295,-5.4004,-5.3674,0.0,0.0,0.0,-5.3689,-5.438,-5.4779,-5.5027,-5.5361,-5.5284,-5.5018,-5.5018,-5.5018,-5.5,-5.5284,-5.6148,-5.7166,-5.7498,-5.7774,-5.7997,-5.7997,-5.7997,-5.7997,-5.7997,-5.7997,-5.7997,-5.7997,-5.7997,-5.7997,-5.7997,-5.7997,-5.7997,-5.7997,-5.7997,-5.7997,-5.7997,-5.7997,-5.7997,-5.7997,-5.7997,-5.7997,-5.7997,-5.7997,-5.7997,-5.7997,-5.7997,-5.7997,-5.7997,-5.7997,-5.7997,-5.7997,-5.7997,-5.7997,-5.7997,-5.7997,-5.7997,-5.7997,-5.7997,-5.7997,-5.7997,-5.7997,-5.7997,-5.7997,-5.7997,-5.7997,-5.7997,-5.7997,-5.8115,-4.7255,-4.7816,-4.8247,-4.821,-4.8172,-4.821,-4.8267,0.0,0.0,0.0,0.0,0.0,0.0,-5.0285,0.0,0.0,0.0,0.0,0.0,0.0,0.0,0.0,0.0,0.0,0.0,0.0,0.0,0.0,0.0,-5.1467,-5.1365,-5.1365,-5.1347,-5.1296,-5.1347,-5.2225,-5.4102,-5.4236,-5.4285,-5.4285,-5.4285,-5.3954,-5.3229,-5.2713,-5.2358,-5.2148,0.0,0.0,-5.1882,-5.3217,-5.3582,-5.346,-5.4098,-5.4408,-5.4512,-5.4512,-5.4512,-5.462,-5.5284,-5.6148,-5.7015,-5.7166,-5.7613,-5.7997,-5.7997,-5.7997,-5.7997,-5.7997,-5.7997,-5.7997,-5.7997,-5.7997,-5.7997,-5.7997,-5.7997,-5.7997,-5.7997,-5.7997,-5.7997,-5.7997,-5.7997,-5.7997,-5.7997,-5.7997,-5.7997,-5.7997,-5.7997,-5.7997,-5.7997,-5.7997,-5.7997,-5.7997,-5.7997,-5.7997,-5.7997,-5.7997,-5.7997,-5.7997,-5.7997,-5.7997,-5.7997,-5.7997,-5.7997,-5.7997,-5.7997,-5.8042,-5.8115,-5.8115,-5.8097,-5.8186,-5.8186,-5.8369,-4.7017,-4.708,-4.7266,-4.7591,-4.7715,-4.7816,-4.821,0.0,0.0,0.0,0.0,0.0,0.0,-5.0344,-5.0613,0.0,0.0,0.0,0.0,0.0,0.0,0.0,0.0,0.0,0.0,0.0,0.0,0.0,0.0,-5.0712,-5.0246,-5.0263,-5.0189,-4.9965,-5.0189,-5.054,-5.1174,-5.1787,-5.2108,-5.2108,-5.2108,-5.1805,-5.1245,-5.1139,-5.0815,-5.0362,0.0,-5.0743,-5.1232,-5.1457,-5.2278,-5.3408,-5.3529,-5.396,-5.4512,-5.4512,-5.4512,-5.4683,-5.5791,-5.6276,-5.6599,-5.7565,-5.7932,-5.7997,-5.7997,-5.7997,-5.7997,-5.7997,-5.7997,-5.7997,-5.7997,-5.7997,-5.7997,-5.7997,-5.7997,-5.7997,-5.7997,-5.7997,-5.7997,-5.7997,-5.7997,-5.7997,-5.7997,-5.7997,-5.7997,-5.7997,-5.7997,-5.7997,-5.7997,-5.7997,-5.7997,-5.7997,-5.7997,-5.7997,-5.7997,-5.7997,-5.7997,-5.7997,-5.7997,-5.7997,-5.7997,-5.7997,-5.7997,-5.7997,-5.7997,-5.8186,-5.8521,-5.8521,-5.8669,-5.9026,-5.9026,-5.9046,-4.6358,-4.6231,-4.62,-4.6707,-4.7026,-4.7291,-4.7464,-4.7733,0.0,0.0,0.0,0.0,0.0,0.0,-5.0617,-5.1784,0.0,0.0,0.0,0.0,0.0,0.0,0.0,0.0,0.0,0.0,0.0,0.0,0.0,0.0,-4.986,-4.986,-4.9784,-4.9607,-4.9666,-4.9767,-4.9948,-5.0289,-5.0714,-5.1158,-5.1158,-5.0839,-5.0211,-5.0341,-5.0189,-4.986,0.0,-5.02,-5.0545,-5.0942,-5.1528,-5.2252,-5.308,-5.3615,-5.396,-5.4356,-5.4512,-5.462,-5.5502,-5.5999,-5.6438,-5.7234,-5.7726,-5.7997,-5.7997,-5.7997,-5.7997,-5.7997,-5.7997,-5.7997,-5.7997,-5.7997,-5.7997,-5.7997,-5.7997,-5.7997,-5.7997,-5.7997,-5.7997,-5.7997,-5.7997,-5.7997,-5.7997,-5.7997,-5.7997,-5.7997,-5.7997,-5.7997,-5.7997,-5.7997,-5.7997,-5.7997,-5.7997,-5.7997,-5.7997,-5.7997,-5.7997,-5.7997,-5.7997,-5.7997,-5.7997,-5.7997,-5.8115,-5.8326,-5.8326,-5.8521,-5.893,-5.893,-5.9008,-5.9215,-5.9215,-5.9325,-4.5735,-4.5563,-4.5528,-4.5905,0.0,-4.6771,-4.6863,-4.716,0.0,0.0,0.0,0.0,0.0,0.0,0.0,0.0,0.0,0.0,0.0,0.0,0.0,0.0,0.0,0.0,0.0,0.0,0.0,0.0,0.0,0.0,-4.9649,-4.9649,-4.959,-4.9411,-4.9488,-4.9488,-4.9428,-4.9488,-4.9866,-5.053,-5.053,-5.0268,-4.9784,-4.9935,-4.9935,-4.9784,-4.9935,-5.0011,-5.0045,-5.0614,-5.0959,-5.1235,-5.2408,-5.308,-5.3494,-5.4236,-5.4557,-5.479,-5.5385,-5.5999,-5.6599,-5.7116,-5.7613,-5.7997,-5.7997,-5.7997,-5.7997,-5.7997,-5.7997,-5.7997,-5.7997,-5.7997,-5.7997,-5.7997,-5.7997,-5.7997,-5.7997,-5.7997,-5.7997,-5.7997,-5.7997,-5.7997,-5.7997,-5.7997,-5.7997,-5.7997,-5.7997,-5.7997,-5.7997,-5.7997,-5.7997,-5.7997,-5.7997,-5.7997,-5.7997,-5.7997,-5.7997,-5.7997,-5.7997,-5.7997,-5.7997,-5.8115,-5.8301,-5.8586,-5.871,-5.893,-5.9361,-5.9361,-5.9397,-5.9467,-5.9467,-5.9658,-4.5511,-4.5423,-4.5423,-4.5476,-4.5854,-4.6363,-4.6817,-4.6908,0.0,-4.6908,0.0,0.0,0.0,-5.0077,0.0,0.0,0.0,0.0,0.0,0.0,0.0,0.0,0.0,0.0,0.0,0.0,0.0,0.0,0.0,0.0,-4.9547,-4.953,-4.9411,-4.9229,-4.9411,-4.9411,-4.9229,-4.9428,-4.959,-4.9767,-4.9767,-4.9842,-5.0011,-5.0011,-5.0011,-5.0011,-5.0011,-5.0011,-5.0011,-5.0062,-5.0493,-5.1132,-5.1235,-5.2149,-5.3494,-5.4236,-5.4834,-5.5443,-5.5999,-5.6581,-5.7116,-5.7726,-5.7932,-5.7997,-5.7997,-5.7997,-5.7997,-5.7997,-5.7997,-5.7997,-5.7997,-5.7997,-5.7997,-5.7997,-5.7997,-5.7997,-5.7997,-5.7997,-5.7997,-5.7997,-5.7997,-5.7997,-5.7997,-5.7997,-5.7997,-5.7997,-5.7997,-5.7997,-5.7997,-5.7997,-5.7997,-5.7997,-5.7997,-5.7997,-5.7997,-5.7997,-5.7997,-5.7997,-5.7997,-5.7997,-5.7997,-5.8369,-5.8586,-5.8586,-5.8988,-5.9342,-5.9758,-5.9758,-5.9956,-6.0313,-6.0313,-6.0313,-4.5459,-4.5423,-4.5423,-4.5423,-4.5563,0.0,0.0,-4.6217,-4.6504,-4.6667,-4.7535,0.0,0.0,0.0,0.0,0.0,0.0,0.0,0.0,0.0,0.0,0.0,0.0,0.0,0.0,0.0,0.0,0.0,0.0,0.0,-4.935,-4.929,-4.9229,-4.9063,-4.9124,-4.9185,-4.9063,-4.9185,-4.9246,-4.9411,-4.953,-4.9666,-4.9784,-4.9784,-4.986,-5.0011,-5.0011,-5.0011,-5.0011,-5.0011,-5.0166,-5.0476,-5.0925,-5.2046,-5.3442,-5.3718,-5.4285,-5.5,-5.5943,-5.6421,-5.6757,-5.7679,-5.7997,-5.7997,-5.7997,-5.7997,-5.7997,-5.7997,-5.7997,-5.7997,-5.7997,-5.7997,-5.7997,-5.7997,-5.7997,-5.7997,-5.7997,-5.7997,-5.7997,-5.7997,-5.7997,-5.7997,-5.7997,-5.7997,-5.7997,-5.7997,-5.7997,-5.7997,-5.7997,-5.7997,-5.7997,-5.7997,-5.7997,-5.7997,-5.7997,-5.7997,-5.7997,-5.7997,-5.7997,-5.8115,-5.8369,-5.8521,-5.8812,-5.9342,-5.9502,-5.9758,-6.0159,-6.0159,-6.0237,-6.0389,-6.0389,-6.0389,-4.5459,-4.5423,-4.5423,-4.5423,0.0,0.0,-4.5423,-4.5909,-4.6394,-4.6546,-4.7609,-4.8831,-4.981,0.0,0.0,0.0,0.0,0.0,0.0,0.0,0.0,0.0,0.0,0.0,0.0,0.0,0.0,0.0,0.0,0.0,0.0,-4.9107,-4.9107,-4.9001,-4.9001,-4.9001,-4.9001,-4.9001,-4.9063,-4.9107,-4.9307,-4.9428,-4.9649,-4.9649,-4.9725,-4.9935,-4.9935,-4.9935,-5.0011,-5.0011,-5.0011,-5.008,-5.0821,-5.1752,-5.2735,-5.3218,-5.3931,-5.4815,-5.591,-5.6546,-5.6982,-5.7726,-5.7997,-5.7997,-5.7997,-5.7997,-5.7997,-5.7997,-5.7997,-5.7997,-5.7997,-5.7997,-5.7997,-5.7997,-5.7997,-5.7997,-5.7997,-5.7997,-5.7997,-5.7997,-5.7997,-5.7997,-5.7997,-5.7997,-5.7997,-5.7997,-5.7997,-5.7997,-5.7997,-5.7997,-5.7997,-5.7997,-5.7997,-5.7997,-5.7997,-5.7997,-5.807,-5.8186,-5.807,-5.8186,-5.8586,-5.8852,-5.9196,-5.9605,-5.9725,-5.9956,-6.0207,-6.0207,-6.0285,-6.0389,-6.0389,-6.0389,-4.5459,-4.5423,-4.5423,0.0,0.0,0.0,-4.5423,-4.6044,-4.6613,-4.6631,-4.7803,-4.9062,-4.9855,0.0,0.0,0.0,0.0,0.0,0.0,0.0,0.0,0.0,0.0,0.0,0.0,0.0,0.0,0.0,0.0,0.0,0.0,-4.9001,-4.9001,-4.9001,-4.9001,-4.9001,-4.9001,-4.9001,-4.9001,-4.9001,-4.9001,-4.9185,-4.9488,-4.9488,-4.959,-4.9708,-4.9708,-4.9784,-5.0011,-5.0011,-5.0011,-5.008,-5.0804,-5.1097,-5.1304,-5.2822,-5.411,-5.5223,-5.6044,-5.7015,-5.7997,-5.7997,-5.7997,-5.7997,-5.7997,-5.7997,-5.7997,-5.7997,-5.7997,-5.7997,-5.7997,-5.7997,-5.7997,-5.7997,-5.7997,-5.7997,-5.7997,-5.7997,-5.7997,-5.7997,-5.7997,-5.7997,-5.7997,-5.7997,-5.7997,-5.7997,-5.7997,-5.7997,-5.7997,-5.7997,-5.7997,-5.7997,-5.7997,-5.7997,-5.7997,-5.7997,-5.8186,-5.8545,-5.8213,-5.8186,-5.8586,-5.9378,-5.9605,-5.9215,-5.9624,-5.9791,-5.9791,-5.9791,-6.0019,-6.0389,-6.0389,-6.0389,-4.5423,-4.5423,0.0,-4.5423,0.0,0.0,0.0,-4.6044,0.0,0.0,-4.8959,-4.9735,-4.9959,0.0,0.0,0.0,0.0,0.0,0.0,0.0,0.0,0.0,0.0,0.0,0.0,0.0,0.0,0.0,0.0,0.0,0.0,-4.9001,-4.9001,-4.9001,-4.9001,-4.9001,-4.9001,-4.9001,-4.9001,-4.9001,-4.9001,-4.9124,-4.929,-4.929,-4.9411,-4.9708,-4.9708,-4.9784,-5.0011,-5.0011,-5.0011,-5.0028,-5.0252,-5.0649,-5.1225,-5.2033,-5.3239,-5.4606,-5.5648,-5.6595,-5.7449,-5.7886,-5.7997,-5.7997,-5.7997,-5.7997,-5.7997,-5.7997,-5.7997,-5.7997,-5.7997,-5.7997,-5.7997,-5.7997,-5.7997,-5.7997,-5.7997,-5.7997,-5.7997,-5.7997,-5.7997,-5.7997,-5.7997,-5.7997,-5.7997,-5.7997,-5.7997,-5.7997,-5.7997,-5.7997,-5.7997,-5.7997,-5.7997,-5.7997,-5.7997,-5.7997,-5.8024,-5.8186,-5.8326,-5.8586,-5.9026,-5.8969,-5.9046,-5.9215,-5.9624,-5.9791,-5.9791,-6.008,-6.0285,-6.0389,-6.0389,-6.0389,-4.5423,-4.5423,0.0,-4.5423,-4.5423,-4.5579,-4.6199,0.0,0.0,0.0,0.0,-5.0011,-5.0011,-4.9935,0.0,0.0,0.0,0.0,0.0,0.0,0.0,0.0,0.0,0.0,0.0,0.0,0.0,0.0,0.0,0.0,0.0,-4.9001,-4.9001,-4.9001,-4.9001,-4.9001,-4.9001,-4.9001,-4.9001,-4.9001,-4.9001,-4.9063,-4.9107,-4.9107,-4.929,-4.9649,-4.9784,-4.986,-5.0011,-5.0011,-5.0011,-5.0011,-5.0011,-5.0287,-5.0759,-5.1616,-5.2617,-5.3813,-5.5008,-5.614,-5.7024,-5.7409,-5.774,-5.7997,-5.7997,-5.7997,-5.7997,-5.7997,-5.7997,-5.7997,-5.7997,-5.7997,-5.7997,-5.7997,-5.7997,-5.7997,-5.7997,-5.7997,-5.7997,-5.7997,-5.7997,-5.7997,-5.7997,-5.7997,-5.7997,-5.7997,-5.7997,-5.7997,-5.7997,-5.7997,-5.7997,-5.7997,-5.7997,-5.7997,-5.7997,-5.7997,-5.807,-5.8213,-5.8344,-5.8563,-5.8949,-5.8891,-5.887,-5.8969,-5.9361,-5.9571,-5.9571,-5.9988,-6.0237,-6.0389,-6.0389,-6.0389,-4.5423,0.0,0.0,-4.5423,-4.5492,0.0,-4.7389,-4.7769,-4.8234,-4.97,0.0,-5.0011,-5.0011,-4.9784,0.0,0.0,0.0,0.0,0.0,0.0,0.0,0.0,0.0,0.0,0.0,0.0,0.0,0.0,0.0,0.0,0.0,-4.9001,-4.9001,-4.9001,-4.9001,-4.9001,-4.9001,-4.9001,-4.9001,-4.9001,-4.9001,-4.9001,-4.9001,-4.9001,-4.9185,-4.9547,-4.9877,-5.0011,-5.0011,-5.0011,-5.0011,-5.0011,-5.0011,-5.0011,-5.0138,-5.1371,-5.2236,-5.2952,-5.4188,-5.553,-5.6693,-5.6693,-5.7226,-5.7886,-5.7886,-5.7941,-5.7997,-5.7997,-5.7997,-5.7997,-5.7997,-5.7997,-5.7997,-5.7997,-5.7997,-5.7997,-5.7997,-5.7997,-5.7997,-5.7997,-5.7997,-5.7997,-5.7997,-5.7997,-5.7997,-5.7997,-5.7997,-5.7997,-5.7997,-5.7997,-5.7997,-5.7997,-5.7997,-5.7997,-5.7997,-5.7997,-5.8142,-5.8503,-5.8213,-5.8186,-5.8586,-5.893,-5.8969,-5.8586,-5.9008,-5.9233,-5.9252,-5.9658,-6.0049,-6.0389,-6.0389,-6.0389,-4.5423,-4.5423,0.0,0.0,-4.5889,-4.6596,-4.751,-4.8165,-4.8855,-4.9804,-5.0011,-4.9935,-4.9784,0.0,0.0,0.0,0.0,0.0,0.0,0.0,0.0,0.0,0.0,0.0,0.0,0.0,0.0,0.0,0.0,0.0,-4.9001,-4.9001,-4.9001,-4.9001,-4.9001,-4.9001,-4.9001,-4.9001,-4.9001,0.0,-4.9001,-4.9001,-4.9001,-4.9001,-4.9185,-4.9547,-4.9877,-5.0011,-5.0011,-5.0011,-5.0011,-5.0011,-5.0011,-5.0011,-5.0068,-5.0794,-5.1777,-5.2881,-5.3622,-5.4711,-5.5849,-5.5849,-5.64,-5.706,-5.706,-5.7501,-5.7997,-5.7997,-5.7997,-5.7997,-5.7997,-5.7997,-5.7997,-5.7997,-5.7997,-5.7997,-5.7997,-5.7997,-5.7997,-5.7997,-5.7997,-5.7997,-5.7997,-5.7997,-5.7997,-5.7997,-5.7997,-5.7997,-5.7997,-5.7997,-5.7997,-5.7997,-5.7997,-5.7997,-5.7997,-5.7997,-5.8042,-5.8097,-5.8024,-5.8186,-5.8586,-5.8669,-5.871,-5.8586,-5.9306,-5.9692,-5.9692,-6.0049,-6.0313,-6.0389,-6.0389,-6.0389,-4.5423,0.0,0.0,-4.5423,0.0,-4.6803,-4.7545,-4.8286,-4.8988,-4.9705,-4.986,-4.9842,0.0,0.0,0.0,0.0,0.0,0.0,0.0,0.0,0.0,0.0,0.0,0.0,0.0,0.0,0.0,0.0,0.0,-4.9001,-4.9001,-4.9001,-4.9001,-4.9001,-4.9001,-4.9001,-4.9001,-4.9001,-4.9001,-4.9001,-4.9063,-4.9185,-4.9246,-4.9246,-4.9367,-4.9607,-4.9877,-5.0011,-5.0011,-5.0011,-5.0011,-5.0011,-5.0011,-5.0011,-5.0051,-5.0602,-5.1264,-5.1969,-5.2768,-5.3735,-5.4702,-5.4961,-5.5574,-5.6235,-5.6235,-5.6785,-5.7428,-5.7428,-5.7703,-5.7997,-5.7997,-5.7997,-5.7997,-5.7997,-5.7997,-5.7997,-5.7997,-5.7997,-5.7997,-5.7997,-5.7997,-5.7997,-5.7997,-5.7997,-5.7997,-5.7997,-5.7997,-5.7997,-5.7997,-5.7997,-5.7997,-5.7997,-5.7997,-5.7997,-5.7997,-5.7997,-5.7997,-5.7997,-5.7997,-5.8186,-5.8586,-5.8772,-5.8891,-5.8891,-5.9502,-5.9791,-5.9791,-6.0207,-6.0389,-6.0389,-6.0389,-6.0389,-4.5423,0.0,-4.5423,-4.5423,-4.6113,0.0,-4.7579,-4.839,-4.9143,-4.9571,-4.9708,0.0,0.0,0.0,0.0,0.0,0.0,0.0,0.0,0.0,0.0,0.0,0.0,0.0,0.0,0.0,0.0,0.0,0.0,-4.9001,-4.9001,-4.9001,-4.9001,-4.9001,-4.9001,-4.9001,-4.9001,-4.9001,-4.9001,-4.9001,-4.9107,-4.929,-4.953,-4.953,-4.9607,-4.9708,-4.9935,-5.0011,-5.0011,-5.0011,-5.0011,-5.0011,-5.0011,-5.0011,-5.0051,-5.0509,-5.0766,-5.1052,-5.1964,-5.2842,-5.359,-5.4049,-5.473,-5.5372,-5.5372,-5.5941,-5.6602,-5.6602,-5.7171,-5.7795,-5.7795,-5.7905,-5.7997,-5.7997,-5.7997,-5.7997,-5.7997,-5.7997,-5.7997,-5.7997,-5.7997,-5.7997,-5.7997,-5.7997,-5.7997,-5.7997,-5.7997,-5.7997,-5.7997,-5.7997,-5.7997,-5.7997,-5.7997,-5.7997,-5.7997,-5.7997,-5.7997,-5.7997,-5.807,-5.8301,-5.871,-5.9084,-5.9361,-5.9397,-5.9725,-5.9906,-5.9906,-6.0237,-6.0389,-6.0389,-6.0389,-6.0389,0.0,0.0,-4.5423,0.0,-4.651,-4.7596,0.0,0.0,-4.9797,0.0,0.0,0.0,0.0,0.0,0.0,0.0,0.0,0.0,0.0,0.0,0.0,0.0,0.0,0.0,0.0,0.0,0.0,0.0,-4.9001,-4.9001,-4.9001,-4.9001,-4.9001,-4.9001,-4.9001,-4.9001,-4.9001,-4.9001,-4.9001,-4.9001,-4.9107,-4.935,-4.9649,-4.9649,-4.9708,-4.9708,-4.9935,-5.0011,-5.0011,-5.0011,-5.0011,-5.0011,-5.0011,-5.0011,-5.0011,-5.0051,-5.0712,-5.15,-5.1669,-5.2387,-5.3268,-5.3329,-5.3904,-5.4564,-5.4564,-5.5115,-5.5757,-5.5757,-5.6345,-5.6969,-5.6969,-5.7483,-5.7997,-5.7997,-5.7997,-5.7997,-5.7997,-5.7997,-5.7997,-5.7997,-5.7997,-5.7997,-5.7997,-5.7997,-5.7997,-5.7997,-5.7997,-5.7997,-5.7997,-5.7997,-5.7997,-5.7997,-5.7997,-5.7997,-5.7997,-5.7997,-5.7997,-5.7997,-5.8344,-5.871,-5.9084,-5.9502,-5.9874,-6.0237,-6.0285,-6.0313,-6.0313,-6.0389,-6.0389,-6.0389,-6.0389,-6.0389,-4.5423,-4.5423,-4.5423,0.0,-4.618,-4.7038,-4.7558,0.0,-4.9186,0.0,0.0,0.0,0.0,0.0,0.0,0.0,0.0,0.0,0.0,0.0,0.0,0.0,0.0,0.0,0.0,0.0,0.0,0.0,-4.9001,-4.9001,-4.9001,-4.9001,-4.9001,-4.9001,-4.9001,-4.9001,-4.9001,-4.9001,-4.9063,-4.9307,-4.9367,-4.9547,-4.986,-4.986,-4.986,-4.986,-4.9935,-5.0011,-5.0011,-5.0011,-5.0011,-5.0011,-5.0011,-5.0011,-5.0011,-5.0011,-5.0509,-5.121,-5.1518,-5.2108,-5.2806,-5.3103,-5.3445,-5.3739,-5.3739,-5.4289,-5.4932,-5.4932,-5.55,-5.6124,-5.6124,-5.6381,-5.6767,-5.7226,-5.7336,-5.7446,-5.7905,-5.7997,-5.7997,-5.7997,-5.7997,-5.7997,-5.7997,-5.7997,-5.7997,-5.7997,-5.7997,-5.7997,-5.7997,-5.7997,-5.7997,-5.7997,-5.7997,-5.7997,-5.7997,-5.7997,-5.7997,-5.7997,-5.8186,-5.8563,-5.9159,-5.9361,-5.9758,-6.0389,-6.0389,-6.0389,-6.0389,-6.0389,-6.0389,-6.0389,-6.0389,-6.0389,0.0,0.0,-4.5318,-4.5194,-4.5743,-4.6553,0.0,0.0,0.0,0.0,0.0,0.0,0.0,0.0,0.0,0.0,0.0,0.0,0.0,0.0,0.0,0.0,0.0,0.0,0.0,0.0,0.0,0.0,-4.9001,-4.9001,-4.9001,-4.9001,-4.9001,-4.9001,-4.9001,-4.9001,-4.9001,-4.9001,-4.9124,-4.9411,-4.9488,-4.9666,-4.9935,-5.0011,-5.0011,-5.0011,-5.0011,-5.0011,-5.0011,-5.0011,-5.0011,-5.0011,-5.0011,-5.0011,-5.0011,-5.0149,-5.0564,-5.1052,-5.1619,-5.2155,-5.2654,-5.306,-5.3206,-5.3206,-5.3206,-5.3628,-5.4106,-5.4106,-5.4675,-5.5299,-5.5299,-5.5445,-5.5739,-5.6345,-5.651,-5.6767,-5.7776,-5.7997,-5.7997,-5.7997,-5.7997,-5.7997,-5.7997,-5.7997,-5.7997,-5.7997,-5.7997,-5.7997,-5.7997,-5.7997,-5.7997,-5.7997,-5.7997,-5.7997,-5.7997,-5.7997,-5.7997,-5.7997,-5.8115,-5.8498,-5.9159,-5.9289,-5.9692,-6.0389,-6.0389,-6.0389,-6.0389,-6.0389,-6.0389,-6.0389,-6.0389,-6.0389,0.0,-4.4944,0.0,-4.4669,0.0,0.0,0.0,0.0,0.0,0.0,0.0,0.0,0.0,0.0,0.0,0.0,0.0,0.0,0.0,0.0,0.0,0.0,0.0,0.0,0.0,0.0,0.0,0.0,-4.9001,-4.9001,-4.9001,-4.9001,-4.9001,-4.9001,-4.9001,-4.9001,-4.9001,-4.9001,-4.9063,-4.9229,-4.9411,-4.9607,-4.9708,-4.9935,-5.0011,-5.0011,-5.0011,-5.0011,-5.0011,-5.0011,-5.0011,-5.0011,-5.0011,-5.0011,-5.0051,-5.0564,-5.1105,-5.1669,-5.2155,-5.2717,-5.3164,-5.3206,-5.3206,-5.3206,-5.3206,-5.3243,-5.328,-5.328,-5.3849,-5.4454,-5.4454,-5.5023,-5.5592,-5.5647,-5.5647,-5.6088,-5.7648,-5.7997,-5.7997,-5.7997,-5.7997,-5.7997,-5.7997,-5.7997,-5.7997,-5.7997,-5.7997,-5.7997,-5.7997,-5.7997,-5.7997,-5.7997,-5.7997,-5.7997,-5.7997,-5.7997,-5.7997,-5.7997,-5.8369,-5.875,-5.9159,-5.9571,-5.9988,-6.0389,-6.0389,-6.0389,-6.0389,-6.0389,-6.0389,-6.0389,-6.0389,-6.0389,0.0,0.0,0.0,-4.4112,-4.4444,-4.5003,0.0,0.0,0.0,0.0,0.0,0.0,0.0,0.0,0.0,0.0,0.0,0.0,0.0,0.0,0.0,0.0,0.0,0.0,0.0,0.0,0.0,0.0,0.0,-4.9001,-4.9001,-4.9001,-4.9001,-4.9001,-4.9001,-4.9001,-4.9001,-4.9001,-4.9063,-4.9229,-4.929,-4.9471,-4.9708,-4.9784,-4.986,-5.0011,-5.0011,-5.0011,-5.0011,-5.0011,-5.0011,-5.0011,-5.0011,-5.0206,-5.0564,-5.0712,-5.1365,-5.2155,-5.2315,-5.2761,-5.3206,-5.3206,-5.3206,-5.3206,-5.3206,-5.3206,-5.3206,-5.3206,-5.3427,-5.3628,-5.3628,-5.3849,-5.4197,-5.4711,-5.5163,-5.565,-5.6326,-5.6859,-5.7373,-5.7905,-5.7997,-5.7997,-5.7997,-5.7997,-5.7997,-5.7997,-5.7997,-5.7997,-5.7997,-5.7997,-5.7997,-5.7997,-5.7997,-5.8097,-5.8369,-5.8142,-5.8231,-5.875,-5.8669,-5.8891,-5.9571,-5.9725,-5.9988,-6.0389,-6.0389,-6.0389,-6.0389,-6.0389,-6.0389,-6.0389,-6.0389,-6.0389,-4.3453,0.0,0.0,0.0,0.0,-4.4098,0.0,0.0,0.0,0.0,0.0,0.0,0.0,0.0,0.0,0.0,0.0,0.0,0.0,0.0,0.0,0.0,0.0,0.0,0.0,0.0,0.0,0.0,0.0,0.0,-4.8257,-4.8257,-4.8257,-4.8257,-4.8257,-4.8257,-4.8257,-4.8257,-4.8436,-4.8751,-4.8795,-4.9095,-4.953,-4.959,-4.9725,-4.9801,-4.986,-4.9935,-5.0011,-5.0011,-5.0011,-5.0011,-5.0011,-5.0206,-5.0564,-5.0964,-5.1518,-5.2155,-5.2563,-5.2912,-5.3206,-5.3206,-5.3206,-5.3206,-5.3206,-5.3206,-5.3206,-5.3206,-5.3164,-5.3146,-5.3146,-5.3103,-5.3188,-5.3738,-5.4206,-5.4619,-5.4983,-5.5723,-5.6593,-5.7446,-5.7593,-5.7685,-5.7941,-5.7997,-5.7997,-5.7997,-5.7997,-5.7997,-5.7997,-5.7997,-5.7997,-5.7997,-5.8115,-5.8257,-5.8412,-5.8412,-5.8563,-5.8969,-5.8852,-5.9084,-5.9758,-5.9791,-5.9988,-6.0389,-6.0389,-6.0389,-6.0389,-6.0389,-6.0389,-6.0389,-6.0389,-6.0389,0.0,0.0,0.0,0.0,0.0,0.0,-4.455,0.0,0.0,0.0,0.0,0.0,0.0,0.0,0.0,0.0,0.0,0.0,0.0,0.0,0.0,0.0,0.0,0.0,0.0,0.0,0.0,0.0,-4.7208,-4.6786,-4.6786,-4.6786,-4.6786,-4.6786,-4.6786,-4.6786,-4.6786,-4.6786,-4.7158,-4.7885,-4.8031,-4.8464,-4.9195,-4.9376,-4.9453,-4.9488,-4.9649,-4.9784,-5.0011,-5.0011,-5.0011,-5.0011,-5.0011,-5.0051,-5.0166,-5.1262,-5.1601,-5.1817,-5.2868,-5.3206,-5.3206,-5.3206,-5.3206,-5.3206,-5.3206,-5.3206,-5.3206,-5.3206,-5.3103,-5.298,-5.298,-5.2912,-5.2806,-5.2806,-5.2806,-5.3024,-5.379,-5.4665,-5.5623,-5.6557,-5.6785,-5.706,-5.7831,-5.7978,-5.7997,-5.7997,-5.7997,-5.7997,-5.7997,-5.7997,-5.7997,-5.7997,-5.8326,-5.8437,-5.807,-5.871,-5.9008,-5.8669,-5.9008,-5.9397,-5.9791,-5.9842,-5.9988,-6.0389,-6.0389,-6.0389,-6.0389,-6.0389,-6.0389,-6.0389,-6.0389,-6.0389,-4.2348,0.0,0.0,0.0,0.0,0.0,0.0,0.0,0.0,0.0,0.0,0.0,0.0,0.0,0.0,0.0,0.0,0.0,0.0,0.0,0.0,0.0,0.0,0.0,0.0,0.0,0.0,0.0,-4.6904,-4.6786,-4.6786,-4.6786,-4.6786,-4.6786,-4.6786,-4.6786,-4.6786,-4.6786,-4.6904,-4.7107,-4.7149,-4.7581,-4.8413,-4.8473,-4.8839,-4.9488,-4.9547,-4.9607,-4.9683,-4.9877,-5.0011,-5.0051,-5.0415,-5.0803,-5.1262,-5.1915,-5.2408,-5.2806,-5.3121,-5.3206,-5.3206,-5.3206,-5.3206,-5.3206,-5.3206,-5.3103,-5.306,-5.306,-5.2955,-5.2868,-5.2868,-5.2806,-5.2806,-5.2806,-5.2717,-5.2753,-5.3034,-5.3253,-5.3863,-5.545,-5.6355,-5.6832,-5.696,-5.7565,-5.795,-5.7857,-5.795,-5.7997,-5.7997,-5.7997,-5.7997,-5.7997,-5.8115,-5.8369,-5.8831,-5.8521,-5.8791,-5.9842,-5.9467,-5.9502,-6.0207,-6.0237,-6.0285,-6.0389,-6.0389,-6.0389,-6.0389,-6.0389,-6.0389,-6.0389,-6.0389,-6.0389,-4.2078,-4.2013,-4.2078,0.0,0.0,0.0,-4.4047,-4.4704,0.0,0.0,0.0,0.0,0.0,0.0,0.0,0.0,0.0,0.0,0.0,0.0,0.0,0.0,0.0,0.0,0.0,-4.6769,-4.6346,-4.6346,-4.6058,-4.5872,-4.5872,-4.5872,-4.5872,-4.5872,-4.5872,-4.5872,-4.5872,-4.5872,-4.6024,-4.6346,-4.6346,-4.6946,-4.8005,-4.8005,-4.8472,-4.9307,-4.9367,-4.935,-4.9428,-4.9683,-4.9918,-5.0206,-5.053,-5.0982,-5.15,-5.2155,-5.2563,-5.2806,-5.3103,-5.3206,-5.3206,-5.3206,-5.3206,-5.3206,-5.3146,-5.306,-5.2999,-5.2937,-5.2806,-5.2717,-5.269,-5.269,-5.269,-5.269,-5.2645,-5.2581,-5.2645,-5.2627,-5.3017,-5.4537,-5.5267,-5.5816,-5.6428,-5.6987,-5.7454,-5.7737,-5.7857,-5.795,-5.7997,-5.7997,-5.7997,-5.7997,-5.8142,-5.8369,-5.8669,-5.8563,-5.8831,-5.9605,-5.9537,-5.9658,-6.0129,-6.0313,-6.0389,-6.0389,-6.0389,-6.0389,-6.0389,-6.0389,-6.0389,-6.0389,-6.0389,-6.0389,-4.1885,-4.2141,-4.2645,-4.2707,-4.3196,0.0,-4.363,-4.4105,-4.4587,0.0,0.0,0.0,0.0,0.0,0.0,0.0,0.0,0.0,0.0,0.0,0.0,0.0,0.0,0.0,-4.6667,-4.6007,-4.5585,-4.5585,-4.4959,-4.4587,-4.4587,-4.4587,-4.4587,-4.4587,-4.4587,-4.4587,-4.4587,-4.4587,-4.4925,-4.5585,-4.5585,-4.6312,-4.7682,-4.775,-4.8189,-4.8883,-4.9073,-4.9168,-4.9168,-4.935,-4.9767,-5.0341,-5.0495,-5.0858,-5.1314,-5.2155,-5.2361,-5.2343,-5.2955,-5.3164,-5.3164,-5.3164,-5.3164,-5.3103,-5.2999,-5.2955,-5.2937,-5.2806,-5.2672,-5.2563,-5.2526,-5.2498,-5.2498,-5.2498,-5.2498,-5.2498,-5.2498,-5.2554,-5.2827,-5.3672,-5.3936,-5.4447,-5.5869,-5.627,-5.6682,-5.7507,-5.769,-5.7792,-5.795,-5.795,-5.7997,-5.7997,-5.8326,-5.8412,-5.8115,-5.8669,-5.893,-5.8669,-5.9306,-5.9725,-5.9791,-6.0129,-6.0342,-6.0389,-6.0389,-6.0389,-6.0389,-6.0389,-6.0389,-6.0389,-6.0389,-6.0389,-4.3015,-4.3196,-4.3453,0.0,-4.431,0.0,-4.4384,-4.4514,-4.4587,0.0,0.0,0.0,0.0,0.0,0.0,0.0,0.0,0.0,0.0,0.0,0.0,0.0,0.0,0.0,-4.5923,-4.5246,-4.479,-4.479,-4.4654,-4.4587,-4.4587,-4.4587,-4.4587,-4.4587,-4.4587,-4.4587,-4.4587,-4.4587,-4.4654,-4.479,-4.479,-4.5263,-4.616,-4.6735,-4.7428,-4.8156,-4.8748,-4.9063,-4.9063,-4.9063,-4.9307,-4.9767,-5.0714,-5.1105,-5.1314,-5.2361,-5.2717,-5.2698,-5.2806,-5.2868,-5.2868,-5.2868,-5.2868,-5.2868,-5.2868,-5.2743,-5.2654,-5.2572,-5.2526,-5.2526,-5.2498,-5.2498,-5.2498,-5.2498,-5.2498,-5.2498,-5.2498,-5.248,-5.2562,-5.2771,-5.3436,-5.41,-5.4254,-5.5476,-5.6434,-5.6503,-5.7182,-5.7649,-5.7697,-5.7792,-5.7839,-5.7839,-5.8024,-5.8231,-5.8479,-5.8344,-5.8498,-5.9046,-5.893,-5.9122,-5.9758,-5.9874,-6.0068,-6.0389,-6.0389,-6.0389,-6.0389,-6.0389,-6.0389,-6.0389,-6.0389,-6.0389,0.0,0.0,0.0,-4.4514,0.0,0.0,0.0,-4.4587,-4.4587,-4.4587,0.0,0.0,0.0,0.0,0.0,0.0,0.0,0.0,0.0,0.0,0.0,0.0,0.0,0.0,-4.5145,-4.4807,-4.4587,-4.4587,-4.4587,-4.4587,-4.4587,-4.4587,-4.4587,-4.4587,-4.4587,-4.4587,-4.4587,-4.4587,-4.4587,-4.4587,-4.4587,-4.4976,-4.5737,-4.6464,-4.7208,-4.7953,-4.8697,-4.9001,-4.9001,-4.9001,-4.9124,-4.935,-5.0587,-5.1174,-5.15,-5.2454,-5.2761,-5.2698,-5.2761,-5.2806,-5.2806,-5.2806,-5.2806,-5.2806,-5.2698,-5.2627,-5.2554,-5.248,-5.2498,-5.2498,-5.2498,-5.2498,-5.2498,-5.2498,-5.2498,-5.2498,-5.2498,-5.2498,-5.2498,-5.2498,-5.2898,-5.3372,-5.3679,-5.4451,-5.5298,-5.6061,-5.6582,-5.7079,-5.7546,-5.7697,-5.7792,-5.7697,-5.7792,-5.796,-5.8105,-5.796,-5.8078,-5.8461,-5.8503,-5.8732,-5.9196,-5.9287,-5.9499,-5.9937,-6.0226,-6.0304,-6.0256,-6.0256,-6.0313,-6.0389,-6.038,-6.0352,0.0,0.0,0.0,0.0,0.0,-4.4587,0.0,0.0,0.0,0.0,0.0,0.0,0.0,0.0,0.0,0.0,0.0,0.0,0.0,0.0,0.0,0.0,0.0,0.0,0.0,-4.4587,-4.4587,-4.4587,-4.4587,-4.4587,-4.4587,-4.4587,-4.4587,-4.4587,-4.4587,-4.4587,-4.4587,-4.4587,-4.4587,-4.4587,-4.4587,-4.4891,-4.5517,-4.6397,-4.7124,-4.775,-4.8629,-4.9001,-4.9001,-4.9001,-4.9063,-4.9273,-5.0442,-5.1087,-5.1533,-5.2426,-5.2672,-5.2608,-5.2717,-5.2735,-5.2735,-5.2735,-5.2735,-5.2717,-5.2608,-5.2554,-5.2498,-5.2498,-5.2498,-5.2498,-5.2498,-5.2498,-5.2498,-5.2498,-5.2498,-5.2498,-5.2498,-5.2498,-5.2498,-5.2498,-5.2498,-5.2715,-5.3367,-5.3603,-5.4175,-5.5504,-5.594,-5.6425,-5.7176,-5.754,-5.7697,-5.7601,-5.7697,-5.7697,-5.7601,-5.7697,-5.7745,-5.7745,-5.8086,-5.8314,-5.8503,-5.8716,-5.8971,-5.9359,-5.9777,-5.9956,-5.9855,-5.9684,-5.9866,-6.0361,-6.0294,-6.0264,0.0,0.0,0.0,0.0,-4.4587,0.0,0.0,0.0,-4.4587,-4.4587,0.0,0.0,0.0,0.0,0.0,0.0,0.0,0.0,0.0,0.0,0.0,0.0,0.0,0.0,0.0,-4.4587,-4.4587,-4.4587,-4.4587,-4.4587,-4.4587,-4.4587,-4.4587,-4.4587,-4.4587,-4.4587,-4.4587,-4.4587,-4.4587,-4.4587,-4.4587,-4.4621,-4.4756,-4.616,-4.6836,-4.7005,-4.8392,-4.9001,-4.9001,-4.9001,-4.9333,-4.989,-5.048,-5.0751,-5.0911,-5.2096,-5.2526,-5.2526,-5.2544,-5.2526,-5.2526,-5.2526,-5.2526,-5.2526,-5.2526,-5.2498,-5.2498,-5.2498,-5.2498,-5.2498,-5.2498,-5.2498,-5.2498,-5.2498,-5.2498,-5.2498,-5.2498,-5.2498,-5.2498,-5.2498,-5.2498,-5.2516,-5.2625,-5.3222,-5.3748,-5.3947,-5.5172,-5.6079,-5.6169,-5.6903,-5.7455,-5.7437,-5.7534,-5.7601,-5.7601,-5.7601,-5.7649,-5.7649,-5.7679,-5.7877,-5.8227,-5.8576,-5.8816,-5.8894,-5.8933,-5.8971,-5.8971,-5.8222,-5.8641,-6.0129,-6.0118,-6.0118,0.0,0.0,0.0,0.0,0.0,0.0,-4.4587,0.0,-4.4587,0.0,0.0,0.0,0.0,0.0,0.0,0.0,-4.4587,0.0,0.0,0.0,0.0,0.0,0.0,0.0,0.0,0.0,0.0,0.0,-4.4587,-4.4587,-4.4587,-4.4587,-4.4587,-4.4587,-4.4587,-4.4587,-4.4587,-4.4587,-4.4587,-4.4587,-4.4587,-4.4587,-4.4621,-4.5669,-4.6397,-4.6853,-4.7919,-4.8612,-4.9001,-4.9394,-4.9674,-4.9988,-5.0893,-5.1209,-5.1329,-5.2162,-5.2498,-5.2498,-5.2498,-5.2498,-5.2498,-5.2498,-5.2498,-5.2498,-5.2498,-5.2498,-5.2498,-5.2498,-5.2498,-5.2498,-5.2498,-5.2498,-5.2498,-5.2498,-5.2498,-5.2498,-5.2498,-5.2498,-5.2498,-5.2498,-5.2498,-5.2498,-5.2498,-5.277,-5.3168,-5.3639,-5.4255,-5.4979,-5.5866,-5.643,-5.6879,-5.7252,-5.7388,-5.7437,-5.7388,-5.7455,-5.7486,-5.7486,-5.7553,-5.7631,-5.7624,-5.8146,-5.8405,-5.8277,-5.8595,-5.8716,-5.8654,-5.7875,-5.7846,-5.8537,-5.831,-5.8369,-4.4587,0.0,0.0,0.0,0.0,0.0,0.0,0.0,0.0,0.0,0.0,0.0,0.0,0.0,0.0,0.0,0.0,-4.4587,0.0,0.0,0.0,0.0,0.0,0.0,0.0,0.0,0.0,-4.4587,-4.4587,-4.4587,-4.4587,-4.4587,-4.4587,-4.4587,-4.4587,-4.4587,-4.4587,-4.4587,-4.4587,-4.4587,-4.4587,-4.4587,-4.4604,-4.5365,-4.6109,-4.6836,-4.7597,-4.8386,-4.9273,-4.9715,-5.0102,-5.0422,-5.1296,-5.1719,-5.1884,-5.2322,-5.2498,-5.2498,-5.2498,-5.2498,-5.2498,-5.2498,-5.2498,-5.2498,-5.2498,-5.2498,-5.2498,-5.2498,-5.2498,-5.2498,-5.2498,-5.2498,-5.2498,-5.2498,-5.2498,-5.2498,-5.2498,-5.2498,-5.2498,-5.2498,-5.2498,-5.2498,-5.2498,-5.2498,-5.2697,-5.3277,-5.3566,-5.4092,-5.5233,-5.5656,-5.6091,-5.679,-5.6962,-5.7053,-5.717,-5.7307,-5.7356,-5.7356,-5.7455,-5.7388,-5.7206,-5.7671,-5.784,-5.7737,-5.8076,-5.8252,-5.8183,-5.7211,-5.6779,-5.6904,-5.6743,-5.6842,0.0,0.0,0.0,-4.4587,0.0,0.0,0.0,0.0,-4.4587,0.0,0.0,0.0,0.0,0.0,0.0,0.0,0.0,0.0,0.0,0.0,0.0,0.0,0.0,0.0,0.0,0.0,0.0,-4.4587,-4.4587,-4.4587,-4.4587,-4.4587,-4.4587,-4.4587,-4.4587,-4.4587,-4.4587,-4.4587,-4.4587,-4.4587,-4.4587,-4.4587,-4.4604,-4.5365,-4.6109,-4.6836,-4.7597,-4.8669,-4.989,-4.989,-5.0532,-5.1551,-5.1619,-5.1951,-5.248,-5.2498,-5.2498,-5.2498,-5.2498,-5.2498,-5.2498,-5.2498,-5.2498,-5.2498,-5.2498,-5.2498,-5.2498,-5.2498,-5.2498,-5.2498,-5.2498,-5.2498,-5.2498,-5.2498,-5.2498,-5.2498,-5.2498,-5.2498,-5.2498,-5.2498,-5.2498,-5.2498,-5.2498,-5.2498,-5.2498,-5.2516,-5.3204,-5.3729,-5.3766,-5.4454,-5.5214,-5.5957,-5.6029,-5.6355,-5.7134,-5.7188,-5.7206,-5.7206,-5.7188,-5.7206,-5.7188,-5.7239,-5.7239,-5.7239,-5.7239,-5.7239,-5.7239,-5.5716,-5.5174,-5.5574,-5.601,-5.6232,0.0,0.0,-4.4587,-4.4587,0.0,0.0,0.0,0.0,0.0,0.0,0.0,0.0,0.0,0.0,0.0,0.0,0.0,0.0,0.0,0.0,0.0,0.0,0.0,0.0,0.0,0.0,0.0,-4.4587,-4.4587,-4.4587,-4.4587,-4.4587,-4.4587,-4.4587,-4.4587,-4.4587,-4.4587,-4.4587,-4.4587,-4.4587,-4.4587,-4.4587,-4.4587,-4.484,-4.5635,-4.6802,-4.7056,-4.7971,-4.9333,-4.9732,-5.0366,-5.1034,-5.1432,-5.2,-5.2498,-5.2498,-5.2498,-5.2498,-5.2498,-5.2498,-5.2498,-5.2498,-5.2498,-5.2498,-5.2498,-5.2498,-5.2498,-5.2498,-5.2498,-5.2498,-5.2498,-5.2498,-5.2498,-5.2498,-5.2498,-5.2498,-5.2498,-5.2498,-5.2498,-5.2498,-5.2498,-5.2498,-5.2498,-5.2498,-5.2498,-5.2498,-5.2733,-5.3096,-5.3639,-5.3947,-5.4418,-5.5196,-5.5269,-5.5577,-5.6337,-5.688,-5.7188,-5.7188,-5.7188,-5.7188,-5.7188,-5.7188,-5.7188,-5.7188,-5.7188,-5.7188,-5.7188,-5.5649,-5.4985,-5.5073,-5.419,-5.4031,-4.5111,-4.479,0.0,-4.4587,-4.4587,0.0,-4.4587,0.0,0.0,0.0,0.0,0.0,0.0,0.0,0.0,0.0,0.0,0.0,0.0,-4.4587,0.0,0.0,0.0,0.0,0.0,0.0,-4.4587,-4.4587,-4.4587,-4.4587,0.0,0.0,-4.4587,-4.4587,-4.4587,-4.4587,-4.4587,-4.4587,-4.4587,-4.4587,-4.4587,-4.4587,-4.4587,-4.4587,-4.5382,-4.6786,-4.6786,-4.7734,-4.9333,-4.9715,-5.0237,-5.0751,-5.1381,-5.1835,-5.2228,-5.2434,-5.2498,-5.2498,-5.2498,-5.2498,-5.2498,-5.2498,-5.2498,-5.2498,-5.2498,-5.2498,-5.2498,-5.2498,-5.2498,-5.2498,-5.2498,-5.2498,-5.2498,-5.2498,-5.2498,-5.2498,-5.2498,-5.2498,-5.2498,-5.2498,-5.2498,-5.2498,-5.2498,-5.2498,-5.2498,-5.2498,-5.2498,-5.2679,-5.3204,-5.3277,-5.3585,-5.4399,-5.4472,-5.4888,-5.5903,-5.6482,-5.6899,-5.717,-5.7188,-5.7188,-5.7188,-5.7188,-5.7188,-5.7188,-5.7188,-5.7188,-5.7188,-5.5649,-5.4907,-5.487,-5.3241,-5.2806]}]]